GFSSE_850_thetae_000.txt.gz
Theta_e
328 328 343 340 339 338 337 335 332 327 330 324 320 324 327 326 329 331 330 329 328 326 322 320 326 328 333 333 332 330 330 330 329 327 321 317 313 315 318 326 323 317 324
327 329 342 342 340 339 337 334 332 331 332 324 322 331 326 324 328 328 325 324 323 322 321 316 324 325 328 332 331 331 330 330 326 321 319 312 316 316 317 319 331 323 324
324 328 342 342 341 337 334 334 332 332 331 323 319 329 328 327 326 325 324 325 323 322 318 314 316 318 318 322 327 326 324 322 317 316 316 312 315 316 317 320 330 323 325
323 327 335 343 340 337 333 335 334 333 327 322 320 325 328 326 329 328 329 325 325 318 314 314 315 314 311 313 315 314 313 313 310 311 312 315 314 315 316 325 328 326 322
323 324 329 341 338 336 336 335 334 329 324 322 323 329 328 329 329 328 323 327 326 318 315 314 314 314 314 314 315 314 314 312 311 311 310 310 310 313 317 328 328 329 327
323 324 325 329 331 339 337 332 331 327 322 322 319 327 329 330 330 330 329 328 328 318 315 315 316 315 316 316 317 318 317 317 317 317 317 317 316 314 312 316 321 327 328
325 326 325 327 332 339 334 331 329 323 319 319 318 326 330 330 331 331 330 328 329 324 317 317 317 318 317 317 318 318 318 318 318 320 322 323 324 323 320 318 317 325 327
329 328 327 326 330 333 335 332 330 323 320 319 322 324 328 330 331 331 331 330 331 323 318 319 320 321 322 322 325 325 326 326 325 326 325 326 325 325 325 324 324 323 322
332 331 329 327 327 331 335 333 330 324 324 321 320 321 322 325 329 329 328 328 325 318 318 322 325 327 328 328 329 329 329 328 328 327 327 327 328 328 328 328 328 328 328
335 334 333 332 329 326 329 333 331 325 330 325 322 319 316 319 324 326 326 321 317 319 324 326 327 328 329 328 329 329 328 327 326 324 324 326 328 328 328 329 329 328 327
335 336 336 335 332 327 327 329 330 328 330 330 326 318 315 317 320 320 318 317 321 325 327 329 329 330 329 328 327 326 325 324 322 321 323 321 323 326 326 326 327 327 328
332 334 336 336 334 329 329 329 328 328 328 326 325 318 314 315 318 319 319 321 326 328 329 330 329 328 327 327 325 324 322 319 319 318 318 319 320 320 320 320 324 327 329
329 331 334 335 335 332 329 329 327 329 330 328 325 319 318 317 319 322 324 327 329 329 332 329 326 326 325 325 324 322 318 314 312 312 313 313 317 320 320 317 315 320 321
327 329 332 335 336 335 331 330 329 331 333 329 326 324 325 325 326 328 328 330 328 329 329 327 326 325 324 321 315 311 310 311 311 311 310 310 313 315 316 315 319 320 321
325 325 327 332 336 336 335 335 333 335 333 330 330 329 328 328 328 329 331 328 327 327 327 325 323 317 312 311 310 311 310 308 306 305 305 307 308 310 313 317 319 319 320
326 326 325 325 333 337 337 338 337 336 333 332 330 330 330 330 331 333 330 329 327 326 325 318 310 309 310 310 308 306 304 304 304 304 305 307 309 311 311 312 313 314 314
324 325 326 324 329 336 339 340 339 337 335 333 331 330 330 329 329 326 326 326 325 316 309 309 308 307 306 304 303 303 303 303 303 304 306 307 308 310 310 310 310 309 309
325 326 326 324 326 336 340 340 338 336 334 332 330 331 329 328 328 327 326 322 308 309 308 307 306 305 304 303 303 302 302 302 303 304 304 304 305 306 305 305 305 305 304
325 325 325 324 327 336 339 340 337 336 335 332 330 329 328 326 325 323 317 308 309 309 308 306 303 302 302 302 302 302 302 302 302 304 302 300 299 299 298 300 299 298 297
324 324 323 325 330 337 339 337 335 335 334 332 331 331 327 326 321 307 308 309 310 308 306 303 301 301 300 300 301 301 301 300 302 305 300 301 298 299 298 298 298 296 296
324 324 323 326 334 335 337 336 335 334 334 332 332 330 326 321 307 309 310 311 310 308 305 302 301 300 300 300 300 300 299 299 299 298 299 302 298 298 297 296 296 296 295
324 323 324 328 335 334 336 336 333 332 331 330 329 325 317 307 309 311 312 311 310 308 305 302 300 299 298 297 295 295 295 297 298 298 297 298 297 296 295 295 295 295 295
323 322 323 329 337 335 338 336 333 329 329 328 323 319 308 309 310 312 311 310 309 308 306 302 299 298 296 294 293 293 293 292 292 294 295 295 294 294 293 294 294 294 293
322 322 323 326 335 336 333 335 333 328 328 325 319 309 309 309 312 311 310 309 308 307 304 301 298 296 293 292 292 293 292 291 290 291 292 294 292 292 293 293 293 292 293
321 322 322 324 329 332 333 333 329 327 326 323 311 309 309 310 311 310 309 308 307 306 303 300 296 293 292 292 292 292 291 291 290 289 289 291 292 292 292 291 291 291 291
322 322 324 326 330 331 333 331 328 326 325 318 309 309 309 310 310 309 307 307 306 304 301 298 294 292 292 292 292 291 290 289 289 288 287 288 288 289 290 291 290 290 289

GFSSE_850_thetae_003.txt.gz
Theta_e
327 331 342 343 340 338 337 333 329 328 328 323 317 321 326 329 331 331 332 331 330 327 324 321 322 331 335 334 332 331 331 331 330 330 322 314 312 313 314 328 329 325 320
326 331 343 342 340 340 337 333 331 330 330 320 332 332 330 330 331 329 328 326 322 321 319 315 321 326 330 331 331 331 330 330 329 322 318 314 314 315 316 323 329 328 324
325 329 344 343 342 340 336 332 331 331 328 320 332 330 326 325 325 328 325 322 319 319 316 314 315 320 318 325 329 328 326 322 317 312 313 313 313 315 316 319 327 327 321
324 329 342 345 342 340 334 334 333 332 327 321 321 326 325 329 330 331 328 323 320 315 314 314 315 313 311 313 316 316 314 313 310 308 309 311 313 314 315 325 324 327 324
323 331 344 343 343 340 334 335 334 330 325 321 327 330 330 329 328 322 325 326 324 315 315 315 315 316 316 316 316 316 316 314 312 312 311 310 309 310 312 314 326 327 327
324 326 342 347 343 339 341 334 335 328 324 322 323 329 329 330 331 330 330 328 327 319 317 317 317 316 316 317 318 318 321 320 316 317 317 318 319 317 314 312 316 321 325
323 326 339 345 343 339 344 341 337 325 321 321 322 329 330 331 332 332 331 329 328 321 318 318 319 319 319 319 320 319 318 318 317 318 320 321 322 323 322 320 318 318 325
324 325 329 344 337 342 342 341 336 324 320 320 322 328 330 331 332 333 332 329 328 322 319 319 323 326 326 327 328 326 326 326 325 324 323 323 324 324 324 324 326 325 325
328 325 327 336 339 340 342 341 333 324 324 321 322 324 329 331 332 332 331 329 326 320 319 325 327 328 328 328 328 328 328 327 326 325 323 323 324 325 325 327 328 328 328
330 329 330 333 339 339 340 338 336 326 332 325 321 318 319 325 329 329 328 326 321 319 323 327 329 330 330 329 328 327 326 324 323 321 320 321 321 324 325 328 329 328 329
333 333 334 335 339 339 338 338 336 327 331 330 324 318 315 318 323 325 322 318 319 324 328 329 329 329 328 327 326 324 321 319 316 316 317 317 318 320 322 324 325 326 327
331 334 335 336 336 336 336 337 334 328 328 327 326 319 314 316 319 317 317 318 324 327 327 329 330 327 325 325 323 321 320 317 312 311 311 312 312 314 316 318 317 317 323
329 332 334 336 337 336 330 334 333 328 327 327 324 320 315 316 318 319 323 325 328 328 329 328 326 326 325 321 318 313 310 310 310 311 311 311 310 311 314 318 322 320 320
326 328 331 334 336 337 334 329 330 328 330 331 326 318 322 321 323 326 329 329 328 328 328 328 326 324 318 311 310 310 310 310 310 308 307 307 307 308 317 321 321 320 320
325 325 326 328 332 336 336 332 331 329 333 331 326 325 326 327 328 330 330 328 327 326 326 325 322 314 309 308 308 308 306 305 304 304 304 305 306 308 311 315 316 317 320
325 325 325 325 326 333 337 335 334 333 334 330 329 329 329 330 330 330 329 328 327 326 324 314 308 308 307 306 304 304 303 303 303 304 304 306 307 309 310 311 312 312 313
323 324 324 324 325 327 336 338 337 336 335 333 331 330 330 329 329 329 327 326 325 318 308 308 308 307 305 303 303 303 303 303 303 303 304 305 307 308 309 309 310 310 309
323 323 324 325 325 325 335 338 337 337 335 333 331 330 329 329 329 328 326 325 312 309 309 308 306 304 302 302 302 302 302 302 301 302 302 301 301 302 301 301 301 302 301
323 324 324 325 325 324 333 337 336 337 334 333 331 331 330 328 327 325 323 310 309 309 308 306 303 301 301 301 302 301 302 301 301 302 303 302 300 298 299 298 298 299 297
323 324 324 324 325 325 332 338 337 335 334 334 333 332 330 328 325 320 307 309 310 310 308 305 302 301 300 301 301 300 300 299 300 302 304 299 299 300 298 297 297 296 296
324 324 324 323 324 325 331 338 337 333 334 334 333 331 329 326 321 306 309 311 312 311 309 306 303 301 300 300 299 299 298 299 298 298 299 298 297 297 296 296 296 296 296
324 324 323 323 324 326 330 334 334 333 334 333 331 328 326 319 306 309 312 312 311 310 309 308 305 301 298 297 295 295 296 297 298 297 297 297 296 296 296 296 296 295 295
323 324 324 324 326 330 330 334 335 334 333 330 327 324 316 308 308 311 312 311 310 309 308 307 305 300 297 294 294 294 293 293 293 297 297 296 296 296 295 295 295 294 294
323 323 325 326 328 330 332 335 332 332 331 329 326 320 314 308 310 312 311 309 308 308 307 305 302 298 294 293 294 294 293 291 290 292 292 293 293 294 295 294 294 293 293
323 323 324 325 328 332 334 335 334 332 330 326 321 321 307 309 310 311 310 308 307 307 306 304 300 295 293 293 293 293 293 292 291 289 290 292 293 294 293 292 292 292 291
321 322 323 323 325 332 337 333 334 331 327 325 321 309 308 309 310 310 308 307 307 306 305 302 298 294 293 293 293 292 291 291 290 289 288 289 289 290 291 291 290 289 288

GFSSE_850_thetae_006.txt.gz
Theta_e
327 335 343 341 338 335 334 330 325 327 326 321 317 323 328 330 330 331 332 332 331 328 323 320 322 334 330 337 334 332 330 330 330 329 326 316 310 311 311 314 329 331 330
326 337 342 342 340 338 335 331 329 329 324 325 332 330 330 332 332 330 330 327 323 319 318 315 318 329 333 332 331 331 331 330 329 324 316 315 313 314 314 318 326 332 324
329 341 343 343 342 339 336 331 330 329 322 329 332 328 329 330 330 329 324 319 317 317 314 315 318 322 326 330 328 331 330 327 319 312 311 324 316 314 314 318 328 327 320
328 344 346 343 343 340 335 333 331 329 324 319 331 326 326 329 329 329 320 319 315 314 314 315 315 312 312 314 318 317 315 313 311 309 320 321 322 314 314 317 323 327 323
331 336 344 342 343 341 336 334 333 328 323 320 325 329 329 326 324 324 327 324 319 316 316 316 316 317 317 317 317 328 329 322 314 319 322 316 313 319 311 315 323 328 329
335 337 338 341 343 341 339 337 334 327 322 319 328 329 329 330 331 329 329 327 325 318 317 317 318 318 318 318 318 318 317 317 317 328 322 324 320 320 316 313 315 323 327
340 345 340 341 342 341 340 339 338 327 322 319 329 329 330 331 332 332 332 329 327 321 319 319 320 329 323 322 324 322 321 322 322 324 322 322 323 322 322 321 320 317 317
332 343 342 343 342 341 341 340 337 324 319 319 328 329 330 330 332 333 332 330 327 323 321 321 326 327 327 329 328 327 326 326 329 330 328 326 324 324 323 324 327 326 325
332 342 341 341 342 341 341 340 336 324 321 320 324 330 330 331 332 333 333 330 327 320 319 325 328 330 330 330 329 328 327 325 325 327 322 326 324 322 324 328 329 330 331
332 340 341 341 339 340 339 339 335 325 326 320 319 322 328 331 332 331 329 329 327 319 322 327 329 330 330 329 327 325 323 320 319 316 319 320 318 317 318 322 325 327 329
335 340 340 341 340 340 339 338 336 327 332 325 320 316 317 323 327 328 325 323 319 320 325 327 329 329 327 325 324 322 320 320 316 313 313 312 312 313 316 317 317 319 322
338 334 332 340 343 340 338 338 336 331 331 330 325 318 315 317 321 322 319 317 320 325 327 326 328 326 325 324 321 315 312 311 310 310 311 311 311 311 311 313 317 319 319
339 339 333 335 339 339 338 336 336 334 334 331 325 320 313 315 318 317 320 325 327 328 327 329 328 327 325 320 311 310 310 310 310 310 310 309 308 308 315 321 321 321 322
338 337 332 333 335 336 338 337 338 335 333 332 329 320 316 316 317 322 330 328 329 327 327 327 326 324 318 309 309 309 308 307 306 305 307 304 305 307 312 316 316 319 320
334 333 333 329 332 335 339 338 337 335 333 333 330 320 324 325 328 327 327 326 327 326 326 325 320 310 308 308 307 306 305 304 303 303 306 305 306 308 310 312 315 315 316
330 328 331 327 327 330 336 337 336 336 335 334 331 324 328 330 328 329 329 328 327 327 323 312 309 309 307 306 304 303 303 303 303 303 304 305 306 308 309 310 310 310 310
326 329 326 326 326 327 334 338 337 335 333 333 332 330 330 328 328 329 328 327 326 323 309 309 308 306 303 302 302 302 302 302 301 302 303 304 305 306 306 306 306 306 307
323 323 323 323 324 324 330 337 337 335 334 334 333 331 330 329 329 328 327 325 324 309 309 308 306 303 302 302 302 301 301 301 300 301 301 301 300 299 299 299 298 298 299
324 323 323 323 323 325 334 336 338 336 336 334 333 331 330 329 328 327 326 324 309 309 310 308 306 304 302 301 301 301 301 300 300 301 301 302 303 300 300 299 298 297 297
324 323 323 323 323 324 333 337 336 336 336 334 333 331 331 329 328 326 323 308 310 311 311 310 308 306 303 300 299 299 299 299 300 301 302 299 298 297 298 297 297 297 297
323 323 324 323 323 324 328 329 334 336 335 333 333 332 332 329 326 322 307 310 312 311 311 310 308 306 302 299 298 299 298 298 298 300 297 297 297 297 297 296 296 296 296
322 323 324 324 323 324 325 329 331 333 334 334 334 333 330 326 321 309 309 312 312 311 311 310 308 305 300 297 296 298 299 299 298 297 297 297 296 297 296 297 296 296 295
321 322 323 324 324 324 327 332 333 333 334 334 333 330 325 317 312 308 311 312 311 311 310 309 308 304 298 296 295 295 297 299 296 297 297 296 296 296 296 296 295 295 294
320 321 322 323 324 325 328 331 332 330 332 333 332 328 322 312 308 310 311 311 310 310 309 308 306 303 298 295 294 294 294 293 294 296 296 295 294 294 294 293 294 293 292
318 318 322 323 325 326 328 332 334 333 333 332 330 325 317 308 309 310 311 310 309 309 308 307 305 301 297 295 294 294 293 293 293 293 294 295 294 293 292 291 291 291 291
319 318 321 324 326 327 330 332 334 333 331 330 326 321 310 308 309 310 310 309 308 308 307 306 303 300 296 294 294 293 293 292 292 292 292 293 293 292 291 291 290 290 290

GFSSE_850_thetae_009.txt.gz
Theta_e
341 332 343 341 340 334 332 327 325 325 323 319 320 327 327 328 330 331 332 331 331 328 324 318 320 334 335 337 337 334 331 330 329 328 325 317 313 312 312 312 330 331 333
342 339 341 340 339 334 333 330 329 327 320 326 325 327 333 334 333 333 330 327 324 320 317 313 316 331 333 333 331 331 331 330 329 323 313 318 321 314 314 321 326 330 332
345 345 340 341 339 337 334 331 330 326 326 335 332 330 331 332 331 329 326 318 316 314 313 315 320 325 329 330 329 329 330 329 318 312 313 326 325 315 315 319 327 327 324
345 346 344 341 342 338 334 332 330 326 320 332 328 322 328 328 326 323 320 316 314 314 314 315 314 312 314 316 318 319 317 313 311 311 324 322 324 321 313 315 318 325 326
345 347 344 340 341 339 335 332 332 325 319 320 327 329 327 330 329 325 325 323 317 316 316 316 316 317 317 317 317 316 324 320 316 328 328 328 317 326 313 311 314 323 327
344 347 348 343 341 340 339 334 332 325 320 325 329 328 328 325 325 329 327 327 323 318 318 318 321 325 320 319 320 319 319 319 320 329 329 329 328 323 321 320 316 314 317
344 348 345 343 341 341 338 336 335 322 320 326 329 330 330 331 332 332 331 328 327 320 319 320 327 329 326 328 329 326 325 324 325 332 331 331 330 324 322 322 322 323 322
343 347 344 343 341 341 339 338 337 325 319 325 329 330 330 331 332 333 332 329 327 323 319 324 327 328 330 329 328 328 326 325 325 331 331 330 327 324 322 324 328 328 327
342 345 346 343 342 342 340 338 337 326 319 322 328 330 330 330 332 333 333 332 329 323 319 326 329 330 330 330 328 326 323 320 321 325 321 325 321 317 316 318 324 328 330
341 343 345 345 342 341 340 339 336 327 321 320 324 328 330 331 332 332 332 331 330 320 320 326 328 328 328 326 324 323 319 319 320 319 319 318 313 313 314 316 318 319 321
341 342 343 343 342 343 340 339 337 332 328 320 319 320 325 330 331 331 328 326 322 318 323 325 326 328 326 323 321 316 313 316 314 314 314 312 311 312 312 312 313 314 317
341 341 341 342 341 343 340 338 337 334 331 325 321 317 325 327 327 330 323 320 317 322 325 325 327 327 325 323 318 311 311 311 311 310 312 312 311 310 310 319 318 317 320
340 341 341 342 342 341 342 341 337 336 335 335 333 328 324 317 319 321 321 320 327 326 327 326 325 325 324 318 310 310 309 309 308 309 311 309 305 315 321 321 318 321 322
338 340 342 342 343 342 341 340 339 337 335 336 333 331 324 326 323 327 331 332 330 327 325 326 326 323 312 310 309 308 306 305 306 307 308 306 305 307 309 311 316 316 317
335 339 341 342 339 342 342 340 339 337 335 335 335 332 328 328 328 331 328 326 325 326 326 326 320 310 309 308 306 304 304 303 304 306 308 306 305 307 309 310 312 313 313
331 336 339 341 338 337 339 342 339 338 336 335 335 332 330 332 331 327 327 327 327 327 326 317 310 308 307 305 303 303 302 303 303 304 307 305 305 306 307 308 308 309 309
328 332 335 339 341 332 336 340 339 338 337 335 335 332 332 332 330 328 329 328 327 326 318 310 309 307 305 303 302 302 302 302 302 303 304 304 304 304 304 304 303 302 301
326 327 331 335 339 339 329 336 339 338 337 335 334 332 333 331 327 328 328 327 325 322 309 310 310 308 305 303 301 301 301 301 302 302 302 302 301 300 301 300 299 299 298
326 325 325 328 334 339 330 334 339 338 336 336 335 335 332 329 329 329 327 326 325 309 311 311 310 309 306 303 300 300 300 301 302 301 301 301 302 301 298 298 299 299 299
325 325 325 324 327 335 336 336 339 337 336 337 335 332 331 330 330 328 327 325 310 311 312 311 311 309 305 302 300 300 300 301 302 302 303 299 299 298 297 297 297 297 297
324 324 324 324 326 331 337 336 337 337 337 335 334 332 331 330 329 327 325 312 311 312 312 312 311 309 305 302 299 300 301 300 302 304 298 299 298 297 297 297 297 297 297
324 324 325 326 328 332 333 329 335 337 334 335 334 333 331 331 328 325 318 309 312 312 312 312 311 307 304 301 298 300 301 301 300 299 298 298 297 296 296 297 297 296 296
322 323 324 327 331 332 326 327 336 334 333 334 334 333 332 331 326 321 308 311 312 311 312 311 310 308 303 300 298 297 299 301 299 299 298 297 297 296 296 296 296 295 294
321 322 324 328 333 329 325 328 331 328 333 333 333 333 330 326 318 312 310 312 311 311 311 310 309 307 303 299 297 297 296 295 296 297 298 297 297 296 295 295 295 295 293
319 321 323 328 332 332 326 327 329 330 331 332 331 332 326 322 315 309 310 311 310 310 310 309 308 306 303 299 297 296 295 295 295 295 295 296 295 295 295 294 293 292 292
316 319 321 328 331 331 326 329 328 327 329 331 330 330 326 319 310 309 310 310 309 309 309 308 307 306 302 299 296 295 295 294 294 294 294 294 293 294 293 292 292 291 291

GFSSE_850_thetae_012.txt.gz
Theta_e
338 330 334 329 331 333 329 323 322 321 322 324 330 331 330 330 330 330 331 330 329 327 323 316 326 332 336 338 337 336 332 330 328 326 321 315 313 311 310 311 329 331 332
332 335 338 332 330 330 327 326 326 321 319 317 321 328 330 332 332 332 328 327 324 318 313 313 323 331 333 333 332 330 330 327 325 315 311 322 321 314 313 317 323 329 329
336 335 339 336 333 330 328 328 326 323 335 333 326 333 334 332 329 327 322 314 313 312 313 315 319 328 330 329 328 327 326 321 312 312 322 324 325 322 314 316 321 325 323
342 334 334 333 333 334 330 329 326 321 333 329 325 329 331 329 326 316 315 314 314 313 313 314 313 311 313 314 315 314 315 313 316 324 324 321 323 322 319 312 315 318 326
346 338 337 339 337 336 332 330 326 321 324 327 323 326 328 327 323 321 322 318 316 316 315 315 316 316 316 316 317 317 317 317 324 328 328 327 323 324 321 318 313 313 317
347 346 340 340 341 339 336 332 327 320 319 327 327 327 329 325 327 326 325 324 319 318 318 320 326 323 322 323 323 323 323 323 324 329 328 329 325 325 323 322 321 319 317
347 347 346 339 341 338 336 333 326 319 321 327 326 325 325 328 331 330 326 325 322 319 319 325 328 326 328 329 327 326 325 324 327 331 331 330 329 328 324 322 325 329 325
346 348 347 340 340 340 337 334 325 319 318 325 329 329 330 330 332 333 331 326 323 318 319 324 328 331 329 329 328 325 322 320 325 330 330 326 325 321 317 321 327 329 333
346 348 344 340 341 340 338 336 330 322 318 324 328 329 330 330 332 332 333 331 329 320 319 326 328 328 328 326 324 322 319 319 318 317 321 322 320 314 313 315 316 319 323
344 346 345 342 341 341 339 338 330 323 318 323 325 328 330 331 333 333 333 333 331 320 320 325 325 326 326 323 322 317 313 315 314 317 315 315 313 311 312 312 313 314 315
343 344 347 342 341 342 339 339 335 329 321 319 323 324 328 331 331 331 330 328 325 318 322 324 324 325 324 323 322 314 311 311 311 312 311 311 312 312 311 314 315 315 318
341 343 344 344 344 341 342 339 337 332 325 319 319 320 324 330 330 329 327 323 318 319 323 324 325 326 325 323 317 310 310 310 309 309 310 311 311 311 321 320 318 321 321
340 341 342 342 342 341 340 339 338 336 329 325 323 321 327 328 327 329 321 318 321 324 324 324 324 325 322 313 311 310 308 307 306 308 308 308 306 315 322 319 318 317 319
339 340 341 342 341 342 340 340 338 336 333 330 332 330 326 321 320 323 331 330 330 326 324 325 325 324 312 310 308 307 305 305 305 306 306 307 305 306 307 309 309 311 313
336 339 341 341 343 342 338 339 338 335 336 332 334 332 326 324 322 329 331 330 326 324 325 326 324 311 309 309 306 304 303 303 303 305 305 306 305 306 307 308 309 309 310
330 336 339 340 341 343 341 340 338 335 336 334 334 333 328 327 329 331 330 325 325 326 326 325 312 310 310 307 304 303 303 302 303 303 305 305 304 305 306 306 307 306 306
327 331 337 340 340 339 341 340 339 336 337 335 334 334 330 331 330 330 327 327 327 326 325 312 311 311 309 307 304 302 302 302 302 303 304 304 303 303 302 301 300 299 299
326 327 333 337 340 338 332 341 338 337 338 336 334 333 331 331 331 330 328 328 327 326 315 311 312 311 309 306 303 301 301 301 302 302 302 302 302 302 302 301 299 299 300
326 326 329 333 338 338 334 337 338 337 336 336 334 332 332 331 332 327 328 327 326 323 310 312 312 312 309 306 302 301 301 301 302 302 301 302 301 301 298 298 298 298 298
324 325 326 330 335 338 333 335 336 337 336 335 334 332 332 333 329 329 328 327 325 310 312 312 313 312 309 305 301 301 301 300 302 301 303 302 299 299 298 298 298 298 298
322 323 326 325 326 334 337 337 335 336 335 334 334 333 334 331 329 329 328 327 321 311 312 313 313 312 309 304 301 301 302 301 301 303 303 299 299 298 297 297 298 298 297
322 322 324 325 325 327 334 334 332 335 335 334 335 335 333 331 330 329 327 325 310 313 313 313 313 312 310 305 301 300 301 301 301 300 299 299 298 297 297 297 297 297 297
321 323 324 324 325 324 332 335 336 336 334 334 333 334 332 331 330 329 326 316 310 313 313 313 312 311 310 306 301 300 299 301 300 299 298 298 297 297 297 297 297 296 295
320 321 323 324 324 326 329 334 331 331 334 333 334 333 332 330 330 328 322 310 311 312 312 312 311 310 309 305 302 299 298 297 297 297 298 298 297 297 296 296 296 295 294
316 320 320 323 325 327 330 332 332 333 333 332 332 330 329 329 328 323 315 310 311 312 311 311 310 310 308 305 301 298 297 296 296 295 295 296 296 295 295 294 294 293 292
315 315 320 322 324 330 331 333 329 329 331 331 329 329 329 326 324 316 311 310 311 311 310 310 309 309 307 305 301 298 297 296 295 295 294 295 294 294 293 293 292 292 291

GFSSE_850_thetae_015.txt.gz
Theta_e
341 336 334 326 319 323 321 318 319 323 326 332 334 334 334 333 332 330 330 328 327 325 321 314 331 334 335 337 336 331 331 327 327 324 319 314 314 311 310 311 325 329 330
339 333 328 323 321 322 320 321 319 318 318 320 328 329 327 329 330 330 328 325 320 314 312 315 332 332 332 332 332 331 326 321 315 311 317 320 320 318 313 315 323 324 325
332 337 329 325 323 323 323 321 318 328 330 323 332 334 334 333 329 323 315 312 312 313 314 316 330 329 329 329 325 319 317 311 312 320 321 319 320 320 313 313 316 320 321
335 336 331 329 325 325 324 322 320 328 327 327 331 333 333 330 320 314 313 314 313 313 313 313 312 313 314 312 313 315 313 316 322 323 323 319 318 321 318 312 312 313 320
336 335 332 330 327 327 325 323 319 321 324 322 326 330 330 325 318 318 316 315 315 315 315 315 315 315 316 317 318 318 318 320 324 324 325 326 323 323 322 321 319 315 316
339 334 333 331 330 331 327 323 319 317 321 323 323 327 328 324 321 321 319 317 317 317 318 324 321 322 324 323 323 323 323 324 326 329 330 328 326 327 325 322 320 323 322
344 338 336 336 337 332 328 321 318 317 322 325 325 328 326 326 327 324 321 318 317 318 321 325 325 328 327 327 326 324 322 325 329 330 330 329 325 324 318 320 326 330 329
346 345 343 338 339 336 330 320 318 317 323 325 323 325 326 331 332 331 324 319 317 318 321 324 328 328 328 326 323 321 320 324 328 329 329 327 323 319 314 321 327 327 330
346 347 347 342 338 338 335 328 318 317 319 326 327 329 330 331 332 332 331 325 320 317 320 324 325 325 326 323 321 318 317 319 318 316 318 320 319 316 311 312 314 316 317
346 347 347 342 338 338 337 334 323 318 318 321 325 328 330 331 333 333 333 331 328 318 320 323 323 324 324 322 321 314 314 314 312 313 315 314 314 313 312 313 313 314 322
344 344 345 342 339 339 338 338 333 324 317 319 323 328 330 331 333 333 333 331 327 318 320 323 323 324 324 323 321 313 311 311 310 311 311 311 311 312 320 323 323 323 324
341 343 344 344 341 341 340 339 336 329 322 318 320 324 328 330 330 331 329 326 322 319 323 324 324 324 324 321 313 310 310 309 308 308 309 309 310 322 323 322 323 322 322
342 343 344 345 343 341 339 338 338 335 328 320 318 319 325 328 326 327 325 322 319 321 324 323 323 324 322 313 311 309 308 306 306 306 307 307 307 317 322 321 317 316 316
339 341 342 342 341 341 340 339 338 337 334 327 320 318 322 325 327 328 326 326 326 327 324 324 325 324 313 310 309 307 305 304 304 305 305 306 306 306 308 309 310 311 312
339 339 340 341 340 340 340 339 338 336 334 328 325 328 323 326 322 325 329 328 326 327 323 325 325 314 310 310 308 305 304 303 303 304 304 305 305 305 306 307 307 307 307
331 338 339 341 341 340 341 340 337 337 335 334 331 332 330 320 322 327 329 330 328 324 325 325 319 310 312 309 306 304 303 303 303 303 304 305 304 304 305 305 305 303 302
326 332 338 339 340 341 341 340 337 337 335 335 333 333 332 325 323 327 329 330 324 326 326 324 311 312 310 309 306 303 302 302 302 302 303 303 303 302 302 302 302 301 300
326 327 332 337 339 339 338 338 339 337 336 334 334 333 333 328 329 329 329 327 327 326 325 314 312 311 311 309 305 302 301 301 301 302 302 302 302 302 302 301 299 299 298
325 325 328 331 333 336 337 337 337 337 336 335 334 333 333 330 330 330 330 327 327 326 323 311 312 313 311 308 304 302 301 301 302 302 302 302 301 300 299 299 298 298 298
323 323 324 328 332 333 334 335 335 337 336 336 334 333 333 331 331 330 329 327 326 326 316 312 313 313 311 307 303 301 301 301 302 301 301 303 301 299 299 298 298 298 298
321 321 323 326 331 334 334 337 335 335 335 335 334 334 332 332 331 331 328 328 326 325 311 313 313 313 311 307 302 302 302 301 301 302 303 302 299 299 298 298 298 297 297
320 321 321 321 328 334 333 332 333 332 335 334 334 333 332 332 332 331 328 328 326 321 312 313 313 313 312 309 304 301 301 301 301 301 301 299 299 298 298 298 297 297 296
318 320 321 322 324 330 334 332 333 334 333 335 334 333 332 331 332 330 329 327 323 313 312 313 313 313 312 310 306 303 300 301 300 299 299 299 298 298 297 297 296 296 295
316 317 319 321 323 325 327 329 329 330 332 334 333 333 332 333 332 330 328 325 318 311 312 313 313 312 312 311 308 304 301 300 299 298 298 298 298 297 296 296 296 295 293
314 315 317 320 322 324 325 327 327 327 331 330 331 332 331 331 329 329 327 321 311 311 312 312 312 312 311 311 308 304 301 299 298 297 297 298 297 296 295 295 295 293 292
314 314 315 317 320 321 324 325 326 326 327 331 331 332 331 329 327 326 325 319 311 311 311 312 311 311 311 310 308 304 300 298 296 295 295 295 294 295 294 294 293 292 290

GFSSE_850_thetae_018.txt.gz
Theta_e
341 333 332 333 323 322 324 324 324 325 328 335 335 335 336 337 335 332 330 329 325 324 321 327 335 333 337 335 331 330 330 325 326 325 323 319 315 311 310 311 318 327 329
338 335 331 325 320 318 318 317 317 318 321 333 333 334 333 330 328 329 327 322 317 312 312 330 331 334 332 331 330 330 328 318 315 312 313 316 315 312 312 315 320 321 318
338 334 332 322 321 320 320 318 317 319 317 319 328 330 332 331 329 323 313 311 312 313 313 331 331 330 330 330 324 317 315 311 314 316 316 316 316 317 311 312 314 315 317
335 332 330 324 323 322 320 318 318 318 319 336 336 335 333 330 314 311 312 312 312 312 314 322 327 325 318 313 314 313 313 317 319 320 319 320 318 321 319 315 313 313 320
334 331 329 327 324 323 320 318 318 318 320 326 333 334 332 321 313 313 313 313 313 313 314 313 314 314 316 317 318 317 319 322 324 323 322 323 322 323 322 320 319 316 317
336 332 330 329 327 325 321 318 317 318 319 319 326 331 327 316 317 316 316 316 316 317 319 318 319 321 322 322 323 323 324 325 326 327 328 327 326 325 323 321 321 324 323
334 332 331 331 330 327 323 319 317 318 321 321 326 326 328 318 319 319 317 317 318 322 327 323 326 326 327 326 324 322 323 328 327 328 328 328 326 324 317 322 328 330 330
338 334 334 333 333 331 326 320 317 318 320 321 325 326 323 327 327 322 319 318 318 321 324 327 327 326 325 323 321 320 319 323 326 327 328 328 323 321 313 317 326 327 329
344 339 337 336 335 332 327 321 317 319 320 322 324 323 328 331 332 330 324 320 318 320 324 325 324 324 324 321 319 316 317 318 317 317 319 320 319 318 312 312 313 315 317
343 343 343 342 338 335 333 325 319 318 321 323 326 328 330 331 332 333 331 326 321 318 321 322 323 323 323 321 320 315 314 314 313 312 314 315 314 312 312 315 320 324 324
343 340 341 344 341 336 335 332 327 319 320 323 326 329 330 331 334 333 332 331 327 318 321 322 322 324 324 323 321 314 311 311 311 310 310 310 310 318 321 323 324 324 325
342 343 338 341 341 338 337 336 332 324 318 322 324 327 329 331 333 333 332 330 325 318 321 322 323 324 323 321 313 310 310 309 308 308 308 308 313 321 322 322 322 322 322
340 342 341 340 341 340 338 338 336 330 323 318 322 325 327 328 329 330 329 327 322 318 320 322 322 323 323 314 310 309 308 307 306 306 306 306 307 316 320 320 318 318 316
339 339 340 340 341 341 340 339 337 336 329 322 318 320 322 323 324 326 325 322 319 319 321 323 323 324 318 311 309 308 306 304 304 304 305 305 306 310 309 309 310 311 311
338 338 339 340 340 340 340 339 337 337 336 332 322 318 318 320 322 323 325 323 323 324 324 323 324 323 312 310 309 306 304 303 303 304 304 305 305 305 307 306 306 306 306
339 338 338 338 340 340 339 339 339 338 335 333 327 322 320 319 322 324 325 327 324 325 324 324 325 317 310 310 308 305 303 303 302 303 303 304 304 304 304 304 303 300 299
325 329 338 337 336 337 339 339 339 339 337 334 332 328 329 327 323 320 324 326 327 328 323 325 323 312 311 310 308 305 302 302 302 302 303 303 302 302 301 302 301 299 298
324 325 330 338 337 337 339 339 339 339 336 335 334 332 330 331 323 322 325 327 329 326 325 325 318 312 312 311 307 303 301 301 301 302 302 302 302 301 301 300 299 299 298
324 324 324 335 334 336 337 336 337 338 335 335 334 333 333 332 329 325 325 329 329 326 326 324 312 312 312 309 305 302 301 301 302 302 302 302 302 300 299 299 298 298 298
322 323 324 324 332 333 334 332 334 337 336 335 334 333 333 332 331 329 329 329 329 326 326 321 312 313 311 308 303 301 301 302 302 302 301 302 302 299 299 298 298 298 298
320 321 321 322 323 332 332 332 332 335 336 333 334 334 333 333 332 329 329 330 329 327 325 316 313 313 311 308 303 302 302 302 302 302 301 303 300 299 299 298 298 298 297
319 319 320 320 321 324 331 331 331 330 333 332 334 334 333 332 331 329 329 330 329 326 325 313 313 313 312 309 304 302 302 301 301 302 302 301 300 298 298 298 297 297 296
318 319 319 319 320 321 323 331 332 330 332 333 333 333 333 332 331 330 330 330 328 326 321 312 313 313 313 311 308 305 302 302 301 300 300 299 298 298 298 297 297 295 295
315 315 316 318 318 321 322 326 331 331 330 331 332 332 332 332 331 330 330 331 328 325 315 312 313 313 313 312 311 308 306 303 301 299 299 299 298 298 297 296 295 295 295
314 314 314 314 316 318 322 325 328 331 330 329 328 330 329 331 330 330 330 331 328 323 313 312 313 312 312 312 312 310 307 304 301 300 299 298 298 297 296 295 295 294 293
314 314 314 314 314 316 319 323 326 330 330 330 329 329 330 330 331 330 331 328 327 321 312 312 312 311 311 311 311 309 306 303 300 299 297 297 296 296 295 295 294 293 291

GFSSE_850_thetae_021.txt.gz
Theta_e
335 336 336 330 326 326 325 327 327 328 330 333 336 335 335 335 335 335 333 331 328 324 324 334 333 337 336 328 328 328 327 323 322 323 327 325 321 316 311 311 314 322 327
333 335 335 331 326 326 323 324 324 324 328 335 334 336 336 335 332 328 327 323 318 316 331 334 332 334 331 331 330 329 327 317 321 322 317 314 314 311 313 315 318 317 317
336 336 333 326 324 322 319 319 320 320 327 335 334 334 331 328 328 323 315 311 311 313 334 332 332 332 330 330 323 318 315 311 312 314 315 315 316 314 310 312 314 314 316
336 331 331 324 322 320 320 318 318 318 321 327 329 333 331 328 312 311 311 311 313 315 331 329 329 326 322 314 314 312 312 315 317 318 318 318 319 320 320 316 314 314 319
337 331 326 324 323 321 320 319 321 319 327 337 336 334 331 318 312 312 312 312 312 312 314 318 315 313 315 316 316 317 319 320 320 321 322 322 322 323 323 321 320 317 317
336 330 326 324 324 323 320 318 319 319 328 336 335 332 327 313 313 313 314 314 314 315 315 316 318 320 321 321 321 322 322 323 323 323 324 325 324 327 320 320 323 327 325
336 332 328 325 326 325 321 318 319 320 320 324 330 329 318 315 315 315 316 317 319 323 325 324 325 326 326 324 323 322 323 324 325 326 326 326 324 322 316 322 327 329 330
336 333 330 328 328 327 323 318 317 320 320 320 324 323 316 318 317 316 316 317 320 323 326 327 329 326 324 322 320 319 319 321 323 324 325 326 322 318 314 313 317 325 328
337 333 332 329 330 330 325 320 317 320 321 321 322 324 325 329 323 318 317 317 319 323 329 332 325 324 323 320 318 317 316 317 317 316 316 318 317 316 314 312 312 314 318
343 337 332 331 331 330 326 321 317 320 322 323 323 324 329 331 333 329 322 319 318 324 323 323 323 323 322 321 320 317 314 313 313 312 313 314 313 312 314 321 324 325 325
343 341 340 340 341 336 330 323 318 318 322 323 324 325 329 331 333 332 330 326 323 318 321 322 322 323 323 322 321 316 312 311 310 310 310 310 313 321 322 323 324 325 326
341 341 341 342 342 340 335 332 324 319 320 324 325 328 329 330 332 333 332 330 328 319 320 322 322 323 323 322 316 311 310 309 308 307 308 310 316 321 322 322 322 322 321
333 340 338 339 341 340 337 335 332 325 319 320 324 326 328 329 333 332 332 331 328 321 320 322 322 322 323 319 312 310 309 307 305 305 306 306 314 317 320 320 320 319 319
334 335 336 338 339 340 339 338 335 334 326 319 321 325 326 328 329 330 331 329 326 321 319 321 322 323 323 315 310 310 307 305 303 304 305 305 307 315 312 308 309 310 310
336 336 339 338 337 339 340 339 338 337 335 327 319 321 324 325 326 327 328 325 323 319 321 323 322 323 322 312 310 308 306 304 303 303 304 304 305 306 307 306 306 306 304
338 334 335 336 337 338 339 338 339 338 336 336 331 321 320 321 323 326 326 325 322 324 324 323 323 324 318 311 310 308 305 303 302 303 303 304 304 304 304 304 303 301 300
338 338 337 335 336 339 339 339 339 338 337 336 333 333 324 319 320 324 326 325 326 324 325 323 324 323 312 311 310 307 304 302 302 302 303 303 303 302 302 302 301 299 298
323 324 326 333 335 335 336 336 339 339 338 338 336 332 326 325 325 325 325 324 326 326 327 323 324 321 311 311 309 305 303 301 301 302 302 302 302 301 301 299 299 299 298
323 323 322 323 329 335 335 335 335 336 338 338 336 333 332 330 330 330 322 324 326 327 328 325 325 317 311 311 307 303 301 301 301 302 302 301 302 301 299 299 299 298 299
319 322 322 322 322 326 334 334 334 334 337 338 336 333 333 331 331 331 326 324 326 329 327 326 325 313 312 310 305 302 301 301 302 302 301 301 302 301 299 299 298 298 298
320 320 320 321 321 322 329 333 334 333 332 336 336 334 333 332 332 332 330 328 328 329 328 326 323 312 312 309 304 302 302 302 302 302 301 301 303 300 300 299 298 298 298
318 318 320 320 320 320 322 327 332 332 331 331 333 333 333 333 332 332 330 329 328 328 329 326 322 312 312 310 305 303 302 302 302 302 302 302 301 300 299 298 298 298 297
316 317 317 318 318 319 320 321 331 333 332 331 332 334 332 333 332 331 330 329 327 328 329 326 321 312 313 311 309 305 303 303 302 302 301 301 300 299 298 297 297 297 296
314 315 316 315 315 316 317 320 323 327 331 330 329 330 331 331 331 331 330 330 329 329 329 326 317 312 313 312 311 309 308 305 302 300 300 299 298 298 298 297 297 295 295
314 314 314 314 314 314 315 316 321 325 329 330 330 329 330 330 329 330 330 330 330 330 328 326 316 312 313 312 312 312 310 307 304 302 300 299 298 298 297 297 295 295 295
313 313 314 314 314 313 313 315 316 323 325 327 331 330 329 329 328 328 329 330 330 329 328 325 314 312 312 312 311 311 310 308 307 303 300 299 298 297 296 295 295 294 293

GFSSE_850_thetae_024.txt.gz
Theta_e
332 337 344 339 330 330 330 330 333 337 338 339 339 340 338 337 336 335 334 332 329 324 326 331 336 335 329 326 325 324 324 325 327 329 329 332 328 325 317 311 314 321 321
327 334 333 330 329 330 329 329 329 332 338 337 335 335 334 335 335 332 329 325 319 320 336 336 338 338 332 329 329 327 322 316 321 321 320 317 314 311 313 314 316 316 318
329 328 332 324 323 326 327 325 335 338 337 335 337 336 335 331 326 324 317 312 312 330 332 332 333 330 330 329 322 316 314 311 313 313 314 314 314 312 311 312 313 314 316
333 328 330 323 320 321 321 322 326 338 337 336 336 333 328 325 312 311 311 312 316 332 331 328 330 329 323 313 313 311 311 314 316 315 316 317 318 319 319 317 315 315 318
335 329 329 321 321 319 319 318 318 333 331 334 332 332 328 312 311 311 311 311 313 321 326 327 322 314 314 315 314 316 318 319 320 320 321 322 322 322 321 320 320 320 319
336 331 327 322 321 321 319 319 319 318 331 336 336 331 321 312 312 312 312 313 313 313 313 314 315 319 320 320 320 320 321 322 324 324 324 324 322 324 316 318 324 329 328
335 333 328 324 323 322 319 318 319 334 338 335 334 329 314 313 314 314 314 315 316 318 320 321 323 324 324 323 322 321 322 324 324 324 324 324 320 318 314 314 327 327 330
335 332 329 325 324 323 320 318 319 321 332 335 330 324 314 315 315 315 316 319 322 326 326 326 329 325 322 320 319 319 319 322 323 323 323 321 319 317 315 312 313 322 325
337 332 330 326 325 325 323 318 317 319 321 328 331 321 317 317 317 316 317 319 321 327 328 330 327 323 321 319 317 316 316 316 316 315 315 316 315 314 312 312 313 314 318
337 334 331 328 325 325 324 321 317 318 320 323 329 327 324 327 322 319 317 317 321 330 329 325 323 322 321 320 319 317 314 313 312 312 311 311 311 314 323 325 326 326 327
340 338 333 330 328 329 326 323 319 317 320 323 326 330 327 331 333 329 325 320 318 324 322 322 322 322 322 322 321 317 312 310 310 309 309 309 321 323 323 324 324 324 325
340 341 337 335 337 339 335 329 321 318 319 321 324 324 326 330 331 332 330 327 326 319 320 321 322 323 323 322 318 312 310 309 308 307 307 313 320 321 322 322 321 321 321
337 339 339 340 340 341 339 335 331 323 318 320 322 325 327 329 330 332 332 331 330 325 319 321 322 322 322 321 314 311 310 308 306 305 305 306 315 317 320 319 319 319 317
333 337 339 339 339 340 339 338 335 332 326 319 319 323 325 328 329 333 332 332 331 326 320 320 321 321 323 321 313 310 309 306 304 304 304 305 307 313 311 307 310 309 308
336 335 335 338 338 339 339 339 338 336 334 330 320 319 322 325 327 329 331 331 329 326 321 320 322 322 323 320 311 310 307 305 303 303 304 304 305 306 306 306 305 305 304
337 334 334 337 338 339 339 339 339 337 337 336 333 322 319 322 324 326 327 328 326 323 320 323 322 322 323 317 311 309 308 305 303 303 303 304 304 304 304 303 302 301 301
335 338 334 333 334 336 338 339 339 338 337 337 335 334 326 320 321 323 326 326 325 322 324 324 322 323 323 314 311 310 306 304 302 302 303 303 303 302 301 301 301 300 299
322 333 337 335 335 334 335 335 338 337 337 337 336 335 334 333 322 320 322 326 325 325 324 326 323 324 322 312 311 309 305 303 301 302 302 302 302 301 301 300 299 299 299
318 321 322 326 330 329 335 334 333 333 334 335 337 336 336 333 328 321 321 324 325 324 325 327 324 324 321 312 311 307 303 301 301 302 302 302 302 301 301 300 300 299 299
318 319 319 321 322 323 323 331 334 333 333 333 336 337 336 335 330 327 328 328 323 323 326 328 325 324 318 311 309 305 303 302 301 302 302 301 302 302 301 299 299 299 299
318 318 319 319 321 321 321 322 329 334 332 334 334 335 336 335 333 331 330 329 324 324 326 328 325 324 317 311 308 303 302 302 302 302 302 302 302 302 301 300 299 299 299
315 317 318 319 319 319 320 321 323 327 330 331 332 331 330 334 333 332 331 330 328 326 327 327 327 325 318 311 308 304 303 303 302 302 302 302 302 302 301 300 299 299 298
314 314 315 317 317 318 318 320 320 328 331 331 333 332 330 330 334 333 329 330 329 327 326 327 328 325 318 312 310 306 304 305 304 303 302 302 302 301 300 299 298 298 298
313 313 313 314 315 315 317 318 318 320 323 326 329 330 330 328 330 333 331 329 330 328 327 327 328 326 319 312 311 309 307 306 304 304 303 303 302 301 300 298 298 298 297
312 313 313 313 314 314 314 315 315 316 318 324 327 330 331 329 328 329 331 330 330 329 328 327 328 326 323 313 312 312 309 307 306 305 304 304 302 300 299 298 297 297 295
310 311 312 313 313 313 313 313 314 314 315 318 323 325 328 330 328 328 328 329 329 329 329 329 328 327 321 313 312 311 312 311 310 307 306 305 302 300 299 298 296 295 295

GFSSE_850_thetae_027.txt.gz
Theta_e
333 335 343 345 343 343 341 338 338 340 339 340 340 341 340 340 338 336 335 333 331 323 329 333 336 335 330 327 325 325 331 332 333 333 333 332 332 328 320 313 313 316 321
329 333 346 345 333 339 331 334 336 338 339 339 338 337 340 335 334 334 332 328 320 327 335 337 336 334 330 328 327 324 321 320 322 323 323 319 315 311 312 313 314 314 324
330 330 338 338 339 335 332 327 335 336 338 336 335 336 334 333 330 326 323 316 316 335 336 337 337 330 329 328 320 316 313 312 314 315 315 314 313 311 312 313 313 315 324
329 329 326 324 322 323 325 325 338 338 338 336 336 335 331 326 319 312 311 311 328 331 332 328 329 329 322 313 311 311 313 315 315 315 315 317 318 319 319 317 316 317 319
329 327 326 321 321 321 321 322 339 339 338 337 336 330 326 311 311 311 311 313 320 327 325 323 321 314 314 314 315 317 318 319 319 320 320 320 321 324 320 320 322 322 320
332 329 326 321 320 319 318 319 323 335 336 334 332 329 314 312 312 312 312 312 316 320 318 314 314 317 319 319 319 320 321 322 322 322 322 321 322 317 317 322 328 330 330
334 331 326 321 321 320 318 319 319 328 338 337 335 327 312 313 313 313 313 314 314 315 316 320 322 323 323 322 321 321 321 322 322 322 322 320 318 317 314 319 325 326 330
335 332 327 324 322 321 318 318 319 330 338 337 333 326 314 314 315 315 317 318 321 324 324 327 330 324 321 320 318 318 319 320 319 319 318 318 316 315 313 312 313 322 326
336 333 329 325 324 322 319 318 318 328 336 334 332 323 315 316 316 316 319 323 327 327 330 332 325 322 320 318 317 317 316 315 314 313 314 314 313 312 314 316 315 320 322
337 334 331 327 325 324 322 318 317 319 321 333 335 324 317 318 317 317 318 321 325 331 331 328 323 322 321 320 319 317 314 312 311 311 310 310 311 325 326 327 327 327 327
337 335 333 330 327 326 326 322 319 318 320 320 329 331 323 324 322 319 318 318 323 329 326 323 322 322 322 322 320 315 311 310 309 309 308 315 325 323 324 325 325 326 325
337 336 335 332 329 329 329 326 323 318 319 320 322 330 328 330 331 329 326 321 320 319 321 321 322 322 322 322 318 312 310 309 308 307 306 320 321 321 321 321 321 321 321
335 338 338 335 332 335 337 334 329 321 318 320 321 323 326 328 330 332 331 328 328 324 319 320 321 321 322 322 317 312 310 308 306 305 305 308 316 320 316 319 317 318 317
337 337 339 338 337 338 339 338 336 331 323 319 321 322 324 326 329 329 332 331 330 328 324 319 320 321 322 322 318 311 310 307 305 304 304 305 308 311 311 306 310 313 308
336 336 337 339 339 339 339 339 338 336 333 328 320 321 323 325 327 328 331 331 331 330 325 320 319 321 322 322 318 312 309 307 304 303 304 304 305 306 306 305 305 305 304
336 335 336 337 339 339 338 338 337 336 336 335 333 326 319 322 325 327 328 330 330 329 326 321 320 322 322 322 316 311 310 307 304 303 303 304 304 304 304 304 303 302 302
326 331 336 337 335 336 338 337 337 336 336 335 335 335 331 321 322 325 326 327 328 327 324 320 322 322 322 322 316 311 309 306 303 302 303 303 303 303 302 302 302 301 299
320 322 324 334 337 335 332 333 334 334 334 335 336 336 335 332 324 322 323 325 326 325 324 323 323 322 323 323 315 311 308 305 303 302 302 303 302 302 302 301 300 300 300
318 318 319 323 333 336 333 332 332 332 332 334 334 336 336 335 334 330 324 323 325 325 325 325 324 324 323 323 314 310 308 303 302 302 302 302 302 302 301 301 300 300 299
317 318 318 318 323 329 333 334 331 331 333 332 332 331 333 335 335 334 330 323 322 325 326 326 325 326 323 322 312 310 305 302 301 302 302 302 302 302 302 301 300 300 299
317 317 317 318 318 321 322 324 325 324 327 332 331 331 331 332 335 334 332 325 323 325 326 325 326 326 323 321 311 307 304 302 302 302 302 302 302 302 303 302 301 300 299
314 314 315 316 318 319 319 321 321 322 323 324 328 329 331 331 330 331 333 329 328 328 325 325 326 326 324 319 311 307 304 303 302 302 302 302 302 302 303 303 301 300 300
312 313 313 314 316 318 318 318 319 320 323 323 324 327 329 331 330 329 330 330 330 330 326 325 326 326 326 322 314 308 305 306 305 304 303 303 303 303 303 303 301 300 299
311 313 313 313 313 314 316 317 318 318 320 321 321 323 326 330 331 330 329 329 329 330 328 327 326 326 327 325 317 310 309 307 306 306 304 304 303 303 303 302 301 299 299
309 311 312 312 312 313 314 315 316 317 318 318 319 322 326 327 329 329 329 328 328 329 329 328 327 326 327 327 323 315 311 308 307 307 307 307 305 304 302 301 300 299 298
311 310 310 311 312 312 313 313 314 314 314 315 316 317 318 322 325 329 329 328 328 327 328 328 327 326 326 327 325 317 313 312 310 306 306 307 306 305 303 301 299 298 297

GFSSE_850_thetae_030.txt.gz
Theta_e
335 338 343 342 344 340 339 339 337 337 339 340 339 340 341 341 340 338 336 334 331 324 331 336 334 333 334 329 329 331 331 331 331 331 332 332 332 328 317 313 320 328 321
336 343 339 342 344 342 340 337 341 339 341 339 339 339 339 338 336 334 333 329 321 331 335 338 335 331 325 325 324 322 325 327 326 326 327 324 317 312 313 314 313 317 326
342 344 339 344 341 341 341 340 341 340 340 338 337 335 334 333 333 329 324 318 331 338 338 338 334 328 326 324 317 315 314 314 317 318 316 324 312 311 312 313 315 317 327
343 343 342 338 343 340 334 338 338 338 339 336 336 335 332 327 323 316 312 316 334 337 337 337 333 324 316 312 311 312 313 314 313 314 326 329 330 319 318 317 316 318 319
343 342 340 327 329 325 325 325 340 338 339 338 336 332 325 314 311 311 312 323 329 332 330 328 321 313 313 314 316 318 318 318 319 322 323 328 331 323 320 321 325 323 321
342 341 328 322 324 324 325 332 340 338 338 338 333 327 314 311 311 311 313 318 324 326 322 316 314 317 318 319 320 321 321 322 322 326 328 321 328 315 317 323 330 332 332
342 341 332 322 322 321 320 322 339 339 338 336 331 322 312 312 312 312 312 314 317 316 314 317 320 322 322 320 320 320 321 321 327 326 328 323 320 314 313 320 323 328 331
342 341 338 324 322 321 320 320 328 336 337 335 332 320 313 313 313 314 314 315 316 319 322 330 326 322 320 319 318 318 319 318 322 321 316 318 314 313 313 312 314 325 327
342 340 339 330 323 323 319 321 321 329 338 337 334 322 314 314 315 316 319 322 328 325 332 332 324 322 319 318 317 317 316 314 321 315 313 318 312 314 319 316 319 321 324
340 338 339 337 325 324 323 324 329 338 339 337 332 325 316 316 316 317 320 323 327 329 332 331 322 321 320 320 319 316 314 312 311 311 313 318 321 328 326 328 328 328 327
337 336 338 337 334 334 336 324 325 327 334 335 333 324 318 325 318 317 319 321 328 330 329 322 321 321 321 321 320 314 311 310 310 316 320 323 326 326 325 327 326 326 325
337 335 334 333 335 334 334 331 323 324 324 331 333 330 329 332 331 329 319 319 323 327 323 321 321 321 322 321 319 314 310 310 309 319 324 324 324 321 321 323 323 322 322
338 336 334 334 335 334 334 335 335 333 331 332 334 335 334 335 334 331 330 322 321 321 320 321 321 321 321 321 320 314 311 309 312 317 320 318 321 320 319 315 318 318 316
337 337 337 337 334 331 335 336 336 334 329 329 330 333 335 333 334 334 333 331 331 328 324 320 320 321 321 322 321 315 311 309 312 316 316 307 311 311 314 308 309 312 312
336 337 337 338 338 336 336 339 338 337 334 327 329 332 332 332 331 332 334 333 332 330 329 324 320 320 320 322 322 315 312 309 309 313 318 305 306 306 306 305 306 306 305
340 339 336 337 338 339 338 338 338 337 336 335 331 327 327 328 328 332 333 330 333 332 331 327 322 320 321 321 322 315 311 309 307 307 315 306 305 305 304 304 304 303 303
330 334 340 335 336 336 336 338 338 337 336 334 335 334 329 323 328 330 330 327 335 332 331 328 323 320 322 321 322 316 311 309 306 304 305 310 304 304 303 303 302 302 300
320 321 326 326 330 336 337 334 336 337 335 334 334 335 335 334 330 327 329 326 326 329 328 327 322 321 322 321 322 316 310 308 305 304 303 303 304 304 302 302 302 300 300
319 319 319 320 321 323 330 337 335 331 332 333 334 333 334 335 335 333 329 329 327 325 326 326 323 323 323 322 322 316 310 307 304 303 302 303 303 302 302 302 301 300 300
317 317 317 318 318 319 325 328 336 334 332 333 331 330 333 333 335 334 332 330 328 324 326 326 325 324 324 322 322 316 310 306 303 302 302 302 302 302 302 302 301 300 301
317 317 317 317 318 318 323 323 327 334 333 333 330 329 332 331 331 331 333 332 331 328 324 324 326 325 324 324 321 313 308 305 303 302 302 302 303 302 302 303 302 301 301
315 316 316 316 317 317 318 322 324 325 328 331 326 327 329 330 329 330 330 332 331 331 324 323 326 326 324 324 320 310 306 305 303 302 302 302 302 303 303 302 303 302 301
311 312 314 315 315 315 316 317 323 328 327 324 323 323 324 328 329 331 330 330 330 331 328 325 326 326 325 325 324 314 308 309 305 304 303 303 302 303 303 303 303 303 301
310 311 312 312 313 313 314 315 322 328 325 320 320 321 322 323 325 332 330 330 330 329 329 329 328 325 324 325 324 322 315 309 307 306 305 303 303 303 303 303 303 302 301
311 310 310 312 312 312 312 313 315 327 328 328 328 322 320 321 322 324 327 328 329 329 328 329 329 326 325 326 326 326 320 312 308 307 306 307 304 304 303 303 303 303 302
312 311 311 310 311 312 312 312 312 316 325 328 327 328 325 320 320 324 325 326 328 329 328 327 330 327 326 326 326 326 326 321 312 308 306 306 307 307 306 304 303 302 301

GFSSE_850_thetae_033.txt.gz
Theta_e
346 331 339 342 338 334 333 339 338 337 339 339 340 340 341 341 340 338 336 333 329 328 335 335 331 335 332 328 333 333 332 331 331 331 331 331 329 323 314 312 328 328 321
347 335 338 343 341 336 344 339 337 337 342 340 339 338 337 339 337 334 333 329 321 331 337 336 330 322 323 323 323 325 328 329 329 327 326 327 316 311 312 312 314 316 319
346 344 333 343 344 342 338 341 338 342 341 339 338 337 336 333 332 328 324 319 338 335 339 336 332 325 322 318 316 315 317 318 318 317 325 326 313 312 313 314 316 319 316
346 343 340 339 341 342 340 343 342 341 341 339 336 335 330 326 321 316 316 331 338 338 338 335 333 320 313 311 311 312 313 313 313 323 329 331 331 319 318 317 318 318 319
345 343 342 327 342 343 337 339 339 340 339 337 335 330 324 315 311 311 315 331 336 336 336 335 324 313 312 314 316 317 317 318 321 330 332 332 332 319 320 322 329 325 322
344 344 341 332 338 339 339 340 340 340 339 339 335 326 314 311 311 312 313 322 329 329 323 319 313 317 318 319 320 320 321 322 329 331 331 327 328 316 319 325 332 332 333
343 344 336 330 330 327 342 339 339 339 339 338 333 322 312 311 311 312 314 318 321 321 315 316 319 321 321 320 320 321 321 323 330 331 330 328 317 314 313 320 321 330 332
343 343 337 331 324 323 332 333 338 339 338 336 332 320 312 312 312 312 313 315 315 315 319 322 323 320 319 318 318 318 318 318 330 328 322 322 313 313 312 312 316 327 327
343 342 340 327 322 322 322 323 335 338 337 335 331 322 313 314 314 315 315 316 318 322 332 329 322 320 319 318 317 316 315 315 325 319 318 320 311 321 321 315 322 324 325
343 342 340 339 324 323 320 321 327 333 337 337 334 325 314 315 316 318 319 323 323 327 333 330 322 320 319 319 319 316 314 312 316 313 317 314 329 327 328 329 328 328 326
344 343 341 339 337 336 336 324 327 336 338 336 335 330 316 316 316 318 322 325 325 331 331 328 321 321 321 321 320 315 312 313 316 319 322 323 326 326 328 327 327 326 325
344 343 342 340 338 337 338 334 329 335 336 337 336 329 322 331 325 322 322 322 327 331 328 323 321 321 322 321 320 315 313 313 317 322 326 325 324 325 324 324 324 324 322
341 345 340 341 339 338 338 337 334 334 334 335 337 335 332 333 332 331 330 318 321 324 323 321 321 321 321 319 320 316 313 311 317 320 323 322 323 321 318 317 313 317 316
339 341 338 338 341 339 338 338 338 336 334 334 335 336 334 335 334 334 333 330 328 329 329 321 320 319 321 321 321 317 313 312 317 318 321 316 319 315 311 312 308 309 310
341 336 337 337 338 340 339 340 340 339 336 334 334 334 335 335 334 334 334 334 334 331 330 326 321 318 320 320 321 319 314 313 316 318 320 308 307 309 308 307 306 306 305
342 342 336 338 338 338 339 341 341 340 339 336 334 334 334 334 334 334 334 334 333 334 333 328 325 320 317 319 321 321 315 312 314 316 318 310 307 306 305 305 305 304 303
337 340 342 338 336 337 337 339 342 340 339 338 336 335 335 334 333 332 333 333 336 334 333 330 323 319 317 318 320 321 318 313 312 312 315 313 305 305 304 304 304 303 303
326 327 332 338 342 338 338 340 340 340 339 339 338 337 336 335 334 332 332 332 331 331 331 330 324 324 321 320 320 321 320 314 311 311 311 312 308 305 304 303 303 302 301
322 323 324 325 333 339 341 338 335 338 340 339 339 338 337 336 335 333 332 333 330 333 330 329 325 326 322 320 319 319 320 315 310 310 308 306 308 309 305 303 302 301 301
319 320 321 321 322 327 334 338 329 327 334 338 338 338 338 338 335 335 333 333 333 331 330 327 325 326 323 321 320 320 320 313 309 308 306 305 305 304 305 303 302 301 301
317 317 318 319 320 321 323 330 332 326 322 326 334 337 339 337 337 336 334 333 333 333 332 329 324 324 324 321 319 318 316 315 309 308 306 305 304 303 302 303 303 303 302
314 315 316 317 318 318 319 321 327 331 322 321 324 331 333 334 334 336 334 332 332 331 331 330 326 324 324 324 322 319 312 312 311 306 305 305 304 303 303 303 303 303 303
312 312 313 314 315 315 316 317 320 327 332 332 327 326 328 332 333 337 337 333 332 332 331 330 328 325 323 323 324 321 314 312 311 308 305 304 303 303 303 303 303 303 304
312 310 311 312 312 312 313 314 315 320 327 332 332 331 327 325 326 327 337 334 331 331 331 329 329 328 323 324 323 322 320 313 310 308 306 304 303 303 303 303 303 303 303
314 311 311 310 312 313 312 312 312 314 321 328 330 330 330 330 325 322 329 334 333 330 329 329 328 328 326 324 326 324 323 319 313 311 309 308 305 304 303 302 303 302 303
315 313 312 311 311 311 312 312 312 312 319 325 327 329 330 330 331 332 330 332 334 333 328 328 328 327 327 326 327 325 324 324 323 314 309 309 309 307 305 303 303 302 302

GFSSE_850_thetae_036.txt.gz
Theta_e
344 327 323 324 329 334 336 339 337 337 338 339 340 339 340 340 339 337 335 331 323 332 336 330 331 333 328 330 333 332 332 333 333 332 331 331 327 314 313 321 319 316 317
337 328 325 326 331 331 338 337 337 340 341 338 339 338 337 337 336 332 330 324 328 336 336 327 322 319 322 323 326 330 330 330 327 324 324 317 311 311 312 313 315 315 314
341 333 331 335 332 342 344 337 337 342 341 340 339 337 335 333 330 325 320 334 333 338 337 334 330 320 316 315 315 315 318 318 321 329 330 330 318 315 315 316 317 317 318
345 337 337 343 343 340 338 340 341 341 340 338 338 335 328 323 319 317 329 339 338 338 335 334 327 312 311 311 311 312 313 315 328 330 331 331 329 318 318 319 318 319 319
346 339 336 341 343 343 341 343 341 340 340 338 335 329 319 313 311 312 332 337 337 337 336 334 315 313 314 315 316 317 318 323 330 330 328 330 326 318 320 328 329 328 327
344 343 336 334 330 339 339 340 339 341 339 337 334 324 313 311 311 312 316 334 334 331 326 317 315 317 318 318 319 320 321 326 329 331 328 324 318 313 319 329 331 333 333
344 345 341 328 334 325 332 333 339 338 338 336 332 320 312 311 312 313 317 321 324 320 315 316 319 320 319 319 319 319 319 327 329 331 326 320 314 313 313 320 326 331 331
343 343 338 325 325 324 322 335 339 339 339 338 331 319 312 312 312 313 316 318 318 315 317 321 321 319 318 317 317 317 317 327 329 322 318 316 313 312 312 312 321 326 325
343 342 332 323 322 321 325 333 338 339 338 337 331 319 313 313 313 313 314 314 315 319 325 322 320 319 318 317 317 316 315 323 323 316 318 316 313 324 320 323 323 324 324
342 342 338 326 321 321 320 323 334 339 338 336 332 324 313 314 314 315 316 318 320 325 329 323 320 319 319 319 318 315 313 314 313 314 315 312 327 327 328 328 328 327 325
342 342 340 339 327 323 321 320 322 334 336 336 332 329 316 315 316 318 320 325 323 327 329 325 320 320 320 320 319 315 312 313 315 318 319 323 326 327 328 328 326 325 324
344 342 341 339 337 336 337 325 323 330 335 337 334 328 319 316 318 318 320 321 324 330 328 324 320 320 320 321 320 316 314 313 316 322 324 323 323 326 325 323 325 323 322
340 343 342 340 338 337 338 336 325 332 334 333 331 325 322 326 332 328 323 322 321 324 324 322 320 320 320 320 320 320 316 312 316 318 320 321 321 320 318 316 314 310 313
341 340 341 340 340 338 338 337 335 333 333 331 334 335 331 331 333 331 327 328 318 318 321 319 319 320 319 320 321 320 319 314 315 317 317 319 317 316 311 309 309 307 308
338 339 339 340 340 339 338 338 338 337 336 334 333 334 336 334 334 332 334 333 332 328 328 327 323 320 318 319 320 320 320 315 315 315 317 317 311 311 309 307 306 306 306
341 340 335 335 336 338 340 339 339 340 339 337 334 333 334 336 336 334 333 334 333 332 332 330 329 323 321 318 318 320 320 317 314 316 316 315 311 306 307 305 305 305 304
340 340 340 336 334 337 338 338 340 339 340 339 337 334 334 333 335 335 335 331 332 333 333 332 330 327 322 319 318 318 320 319 314 314 313 313 310 306 305 305 305 304 303
331 334 339 340 340 338 335 337 340 341 339 340 338 337 335 335 334 333 333 331 332 330 333 333 331 328 322 321 320 318 320 319 317 313 312 312 310 307 304 304 304 303 303
324 325 326 328 335 337 335 337 338 338 340 340 337 336 337 336 335 334 333 332 332 333 332 332 329 330 326 323 321 319 319 319 318 313 312 311 309 307 305 304 304 303 303
319 321 322 323 324 326 336 338 339 335 337 338 340 339 336 335 335 334 333 333 332 332 332 330 328 330 328 324 321 317 318 318 318 313 311 310 308 306 306 305 304 303 302
318 319 319 320 320 321 321 328 334 333 328 329 329 331 340 338 338 333 331 330 333 332 333 331 330 329 326 322 318 316 315 317 317 315 311 310 308 306 305 304 304 303 303
316 316 316 317 318 319 320 321 323 327 330 327 324 324 328 332 337 338 335 332 330 332 332 332 330 330 327 322 320 317 314 315 318 317 312 309 308 307 305 304 303 303 303
313 312 313 315 316 317 318 318 319 320 322 330 331 325 320 323 331 332 336 334 335 332 332 332 331 330 329 323 322 320 316 318 318 318 315 310 307 307 306 304 303 302 303
314 311 311 312 312 312 314 316 316 317 317 319 325 329 328 326 323 324 328 332 332 334 333 332 329 328 329 327 321 321 320 319 316 314 314 310 306 306 305 304 303 302 302
315 312 311 311 311 314 313 312 312 312 313 314 321 328 331 331 329 328 328 326 332 331 332 331 332 328 327 327 327 324 320 319 316 316 316 314 308 306 305 304 303 302 302
314 313 313 313 312 312 312 312 312 312 312 312 317 323 327 329 329 329 329 330 328 328 329 329 330 330 328 326 326 324 323 322 320 314 313 315 313 311 307 304 302 302 301

GFSSE_850_thetae_039.txt.gz
Theta_e
345 334 323 329 342 336 337 335 336 337 338 340 339 338 339 339 337 334 329 323 331 337 325 329 331 330 326 333 333 332 332 332 332 332 330 325 316 312 313 314 316 315 313
343 329 323 328 335 334 337 335 338 339 339 338 337 336 333 336 333 328 323 329 336 337 323 323 317 318 323 327 331 331 331 329 327 325 322 314 311 312 313 316 315 314 313
338 329 325 327 329 335 335 337 340 339 339 337 337 335 332 330 326 320 328 333 338 338 334 331 317 313 314 316 317 321 322 324 327 327 326 326 316 315 316 317 317 317 316
336 333 326 328 337 344 335 336 341 340 339 338 335 333 324 319 317 336 338 338 338 336 332 330 312 310 311 311 312 313 318 326 330 330 330 328 323 318 324 319 319 320 323
338 335 332 333 340 339 336 340 341 340 338 336 335 324 314 312 312 337 336 337 337 336 334 321 313 314 314 315 314 314 319 324 327 330 330 326 318 318 327 330 332 332 332
342 334 334 344 340 338 343 341 341 339 338 336 330 317 311 311 311 322 334 334 334 333 326 313 316 317 318 318 319 320 325 328 328 324 324 320 314 314 326 330 332 333 333
343 337 334 334 337 336 341 341 340 338 337 331 327 315 311 311 312 313 319 329 325 318 314 317 319 318 318 318 319 320 324 326 327 326 319 316 313 313 316 326 330 331 331
343 343 342 333 329 334 337 338 339 338 337 331 327 315 312 312 312 314 317 319 317 314 318 321 319 317 317 317 317 318 323 326 325 320 315 315 312 312 312 319 322 323 323
343 343 341 332 323 323 329 337 340 338 338 332 327 316 313 313 313 315 316 316 315 318 322 320 319 318 317 317 316 315 317 319 320 315 314 314 318 324 325 324 324 324 324
342 340 333 324 322 321 322 328 338 338 336 333 328 319 313 313 314 314 315 315 318 324 324 320 319 318 318 318 317 315 314 314 313 313 314 314 325 326 328 328 327 325 320
342 341 338 326 321 321 321 320 323 333 335 333 326 321 314 314 315 316 317 318 320 324 326 322 319 319 320 319 318 315 314 313 314 314 317 320 325 328 327 328 326 324 323
342 341 340 338 333 323 322 319 320 324 327 328 325 324 317 315 315 317 318 320 321 322 326 323 319 319 320 320 319 316 315 314 314 316 318 320 324 327 326 326 323 320 316
341 341 340 339 338 331 330 328 321 321 325 328 326 323 323 316 319 318 317 318 320 322 324 323 320 319 319 320 320 319 318 315 314 315 315 317 318 317 317 316 314 311 307
342 341 340 339 337 337 337 335 333 323 326 328 327 328 328 320 325 329 328 324 322 319 320 320 320 319 319 319 319 320 320 317 315 315 316 316 317 315 313 309 308 308 306
336 341 341 339 338 337 337 337 334 335 333 333 330 331 332 332 329 330 332 329 328 329 321 321 320 320 318 318 319 319 319 319 317 316 316 315 316 314 310 307 306 306 305
336 332 336 338 338 338 338 338 336 337 336 337 336 333 333 334 335 333 333 333 332 333 331 327 329 328 325 320 318 318 318 319 318 316 316 315 315 314 309 307 305 305 305
338 338 337 334 334 336 337 338 338 338 338 338 339 337 334 333 334 336 336 335 332 330 333 332 331 330 330 325 323 319 317 318 317 317 316 315 314 313 309 307 305 305 304
337 337 339 339 340 336 336 336 336 338 339 339 338 338 336 334 333 333 334 333 333 332 331 332 331 330 328 328 324 320 318 317 316 317 317 315 314 313 310 306 305 304 304
324 326 329 332 333 337 338 337 337 338 339 339 339 338 336 335 335 334 333 333 333 333 331 332 330 331 330 328 328 323 320 318 318 316 317 316 314 313 311 307 305 304 304
319 323 323 322 324 326 325 331 335 337 337 337 337 337 337 336 335 335 335 335 333 333 332 332 333 332 331 328 329 327 321 318 316 317 316 316 316 313 311 308 306 304 304
317 318 321 321 320 322 326 327 330 332 331 332 333 332 332 332 335 336 333 332 334 333 332 332 332 332 331 328 326 326 320 317 316 317 315 314 315 315 312 309 307 305 304
318 318 318 319 320 320 320 320 321 324 328 329 328 331 331 331 331 333 335 335 332 333 333 332 331 331 330 329 328 324 314 315 317 318 317 316 314 313 312 310 307 305 304
316 316 315 315 316 317 317 318 319 320 320 321 322 324 324 325 326 328 328 329 332 333 333 331 328 328 328 328 328 325 315 316 320 320 318 317 315 313 312 310 307 306 304
313 312 311 311 312 313 314 316 317 317 318 319 318 318 319 320 324 325 325 327 327 329 330 331 330 329 330 329 328 327 324 321 319 319 319 318 315 313 311 309 308 306 304
314 312 311 311 311 311 312 312 312 312 312 312 313 314 317 323 327 326 326 325 328 327 329 332 332 331 329 329 329 327 323 319 317 316 317 319 316 314 311 308 307 306 304
315 313 313 313 312 312 312 311 311 311 311 312 312 312 313 318 323 326 327 327 327 327 327 327 328 328 329 330 329 328 326 323 319 316 315 316 317 316 313 312 307 306 304

GFSSE_850_thetae_042.txt.gz
Theta_e
342 328 327 334 337 340 343 336 334 339 339 338 338 338 337 337 334 328 323 334 335 327 332 331 329 326 331 335 334 333 332 331 331 331 329 317 312 311 313 315 314 313 315
339 327 326 341 337 338 337 340 339 337 339 337 337 334 331 332 328 324 326 335 336 323 324 316 316 325 328 330 331 331 331 330 329 327 320 312 312 313 315 315 314 313 315
340 327 326 338 334 342 335 338 339 337 336 337 332 332 327 325 320 322 333 337 337 333 327 315 312 314 319 324 328 327 326 326 324 321 319 317 316 316 316 317 317 317 314
340 326 326 333 333 335 337 339 338 338 336 334 331 326 321 318 336 337 334 338 337 331 325 312 310 311 311 314 318 322 322 320 319 322 320 319 317 323 320 319 319 323 332
334 328 328 330 340 335 336 339 339 339 338 333 329 318 314 315 337 338 338 337 336 334 323 313 313 313 312 312 313 316 320 321 323 324 321 319 315 325 328 331 332 333 334
336 331 331 339 345 335 337 339 339 339 337 336 326 313 311 312 335 333 334 333 333 331 315 316 317 317 317 316 317 321 324 324 322 322 322 316 313 324 331 330 332 333 332
336 335 343 341 339 339 339 340 340 339 337 333 323 312 312 311 312 325 327 326 323 317 315 318 318 318 318 318 319 321 321 322 322 322 317 314 313 314 325 329 330 330 331
339 335 333 338 335 342 341 340 339 338 336 327 321 312 312 312 312 315 317 320 316 314 318 319 317 317 317 317 317 318 320 322 320 317 315 315 312 312 321 324 322 321 323
341 340 338 333 327 339 339 335 339 339 335 324 320 313 312 312 313 315 317 317 315 317 320 318 317 317 317 316 316 316 318 318 317 315 313 313 319 323 326 325 324 324 324
343 342 341 338 324 331 334 331 338 338 336 325 318 314 313 313 314 315 316 315 316 320 320 319 318 318 318 317 316 315 315 314 314 313 314 314 322 327 328 327 327 320 319
342 340 335 328 323 322 325 325 333 335 334 328 322 316 314 314 314 315 315 316 318 322 323 320 319 319 319 318 317 315 314 314 314 314 316 318 326 328 328 328 327 321 321
341 340 334 326 321 321 321 322 324 327 330 328 323 321 315 314 315 316 316 318 319 322 325 323 319 319 320 320 319 316 315 315 315 315 316 318 325 328 326 327 323 314 314
341 340 339 338 336 324 322 320 321 322 325 326 326 323 322 316 315 316 317 319 320 321 323 324 321 319 319 320 320 319 318 316 315 315 316 316 319 321 316 313 315 313 310
341 340 339 338 337 336 331 330 326 322 322 325 326 325 324 322 317 318 318 318 319 319 320 321 321 320 319 319 319 319 319 319 317 315 316 316 316 318 317 312 309 308 307
341 339 339 338 337 336 335 333 333 331 324 326 328 328 330 330 324 325 327 329 329 326 326 320 318 319 319 319 318 318 319 319 318 316 316 316 316 316 316 313 308 307 306
342 340 339 338 337 335 335 336 335 333 334 335 335 334 332 332 332 332 332 331 332 332 331 331 327 326 326 324 321 319 318 318 319 318 317 316 316 316 315 314 309 306 305
332 333 338 339 338 336 336 335 335 335 336 336 336 337 336 333 332 332 333 333 334 334 333 331 332 329 328 328 328 325 321 317 317 318 318 317 317 316 315 314 310 307 305
336 338 339 337 338 338 336 336 336 336 335 337 337 337 337 337 334 333 333 332 333 334 334 332 330 331 330 330 329 328 325 320 318 317 318 317 316 316 315 313 311 307 305
326 330 332 337 339 339 338 337 337 337 336 337 338 337 337 337 336 335 334 333 333 333 333 333 332 331 330 330 330 329 327 326 320 318 317 317 317 316 315 314 312 308 305
320 324 329 332 328 329 336 338 336 336 337 337 337 336 337 337 337 337 335 334 334 334 333 333 333 332 332 332 331 330 328 326 324 320 318 316 317 316 315 314 312 309 306
318 318 322 322 322 323 328 332 332 333 333 333 334 334 332 332 333 332 333 334 335 335 334 333 332 332 330 330 330 331 329 325 325 326 320 317 316 316 315 314 313 311 307
317 317 318 319 319 319 320 323 326 328 328 333 332 333 333 333 333 332 331 330 331 333 333 332 332 332 329 328 330 329 327 326 326 327 324 321 320 316 316 315 313 311 309
316 317 317 317 317 317 317 317 318 319 319 322 324 325 327 326 328 331 329 329 330 329 329 329 329 331 330 328 327 327 325 323 324 324 324 322 319 317 316 315 314 311 309
314 315 314 314 314 313 314 315 315 316 316 317 318 318 319 319 319 319 322 325 324 326 329 328 328 329 329 329 328 328 327 327 322 321 322 322 319 315 314 313 312 311 309
313 312 311 311 311 311 312 312 312 313 313 313 314 315 315 315 315 316 320 324 325 324 323 327 327 327 327 327 327 328 328 327 325 322 320 319 320 318 316 314 311 310 308
314 313 312 311 312 311 311 311 310 310 310 311 311 312 311 311 312 313 316 320 323 327 326 325 326 326 326 326 326 326 324 324 323 319 318 318 317 314 315 314 312 310 307

GFSSE_850_thetae_045.txt.gz
Theta_e
333 326 330 334 337 333 334 334 335 337 336 336 336 336 336 333 329 322 333 333 335 333 332 329 327 327 334 337 337 333 332 332 331 331 330 315 311 312 314 313 312 313 318
326 325 330 334 335 339 335 334 340 339 338 336 336 329 331 328 323 325 336 332 324 322 316 313 323 328 330 333 333 332 332 331 330 328 320 312 313 315 315 315 313 313 320
327 326 342 337 339 339 343 340 339 339 339 336 326 325 323 321 322 329 336 336 332 325 314 311 316 321 329 328 330 330 329 328 324 318 316 315 316 316 316 317 318 319 316
329 325 343 339 338 337 337 342 341 340 337 325 323 319 318 324 329 334 338 337 333 322 312 310 311 313 316 322 326 326 325 317 319 319 316 316 318 325 320 322 323 333 332
336 324 339 335 342 335 337 338 339 340 332 325 318 315 314 335 337 335 338 335 333 324 313 313 312 311 312 316 317 315 315 317 319 318 316 313 320 328 329 331 334 333 332
335 325 331 333 336 336 337 340 340 337 332 330 320 312 313 337 338 333 334 333 330 320 315 316 316 315 314 314 315 317 317 318 318 317 315 313 316 329 330 331 333 333 332
331 328 330 335 340 334 338 341 337 332 324 330 319 312 312 325 324 329 328 326 323 315 317 317 317 317 317 317 318 320 320 319 318 316 314 313 313 319 328 329 329 331 329
333 330 332 345 340 335 339 339 338 337 330 323 317 312 312 312 317 325 324 321 316 315 318 317 317 317 317 318 319 319 320 321 318 315 314 314 312 312 325 324 324 321 318
336 333 331 335 338 339 341 341 339 337 333 323 316 312 312 312 313 315 317 318 315 318 319 317 317 316 317 317 317 319 319 319 316 315 313 313 318 321 326 327 324 323 322
339 336 333 330 333 340 340 339 340 340 335 325 318 313 313 313 314 315 316 316 315 319 319 318 317 317 317 317 317 318 318 317 314 313 314 315 321 329 329 328 327 320 317
342 342 341 339 330 334 338 334 338 338 335 332 323 315 313 314 314 315 316 315 317 320 320 319 318 318 318 318 316 316 315 314 314 315 315 319 324 331 331 328 326 325 318
342 340 338 335 328 325 331 329 328 332 333 331 328 321 314 314 314 315 315 316 318 320 323 322 319 319 319 319 319 317 315 315 315 315 316 317 326 329 328 327 326 316 315
341 339 331 326 323 322 323 326 325 325 328 329 329 325 322 315 315 315 316 317 319 319 320 323 323 320 319 319 320 319 317 317 317 316 316 316 324 324 325 325 317 316 312
340 339 338 336 332 324 322 321 322 322 324 326 326 326 323 323 317 316 316 316 317 318 319 320 322 321 320 319 319 319 319 319 319 318 316 316 317 316 318 319 316 311 308
340 338 337 337 336 335 330 331 328 327 326 323 325 326 326 326 325 319 320 325 326 328 325 325 323 319 319 319 319 319 318 318 318 318 318 317 316 316 317 317 316 313 308
341 340 337 336 336 335 334 334 334 334 332 328 329 331 330 331 331 330 330 330 329 330 332 331 330 330 327 327 326 324 320 319 319 318 318 317 317 317 316 317 316 315 311
340 340 337 337 337 336 335 334 334 335 334 334 334 335 335 334 332 332 332 331 332 333 333 333 333 331 330 330 329 329 328 326 323 319 317 317 317 317 317 316 315 315 313
332 337 336 338 338 338 337 336 335 335 335 334 335 336 336 336 336 335 333 332 332 333 333 334 334 333 332 331 330 330 329 329 327 325 321 318 316 316 316 316 315 314 313
332 336 337 337 338 338 338 337 337 336 336 336 336 336 337 336 336 336 335 333 333 333 333 333 333 333 333 332 331 331 330 330 329 328 327 325 322 318 317 316 316 315 313
324 326 331 336 339 339 339 338 338 338 337 337 337 337 336 336 337 337 337 336 335 335 335 334 333 333 333 332 331 331 331 330 328 327 327 326 326 324 319 316 316 315 314
318 320 324 327 331 334 334 335 337 336 336 336 336 337 337 336 335 335 334 334 334 334 334 334 334 332 332 331 330 329 328 329 329 329 328 326 326 327 322 317 315 314 314
317 317 319 321 324 324 323 325 330 331 332 331 329 331 333 335 333 331 331 331 331 331 331 331 330 329 330 330 330 329 329 327 326 325 326 325 325 325 324 319 315 314 314
316 317 317 318 318 319 319 320 321 324 325 325 326 326 330 332 333 333 332 331 332 331 329 330 330 329 329 329 329 329 326 326 325 325 325 324 323 322 320 315 313 312 312
315 315 315 315 315 315 315 315 316 316 317 317 318 318 319 320 320 321 319 319 321 323 323 325 326 326 328 328 327 327 328 328 326 325 324 323 323 322 323 318 312 311 311
314 314 313 312 312 312 312 312 313 313 313 313 313 314 314 315 315 316 316 316 316 320 323 324 325 327 326 326 325 326 324 325 325 323 320 321 321 321 319 319 318 317 315
314 313 313 312 311 311 310 311 311 311 311 311 311 311 311 311 311 311 311 312 313 319 323 326 327 326 325 323 321 321 323 324 323 322 322 321 320 319 319 319 317 318 317

GFSSE_850_thetae_048.txt.gz
Theta_e
329 331 332 332 332 333 334 335 336 337 338 335 336 335 334 327 322 331 334 335 331 332 330 326 327 324 329 334 336 333 332 331 329 329 324 312 313 314 314 313 313 317 329
325 330 331 331 330 331 332 333 334 335 334 334 334 329 328 322 326 337 327 323 320 315 312 317 326 327 333 334 333 333 331 330 327 322 313 314 315 315 316 315 313 317 328
325 329 333 339 331 332 333 337 339 339 337 330 324 321 320 324 328 337 335 329 320 312 311 316 322 327 328 331 331 329 328 325 317 315 315 316 316 316 317 318 328 325 319
324 328 333 331 341 338 340 340 338 339 336 327 321 317 318 326 332 337 336 331 323 312 310 311 314 320 324 325 326 325 319 316 318 316 314 316 324 322 326 329 335 331 332
325 333 335 338 336 339 340 340 339 338 332 326 318 315 329 332 333 337 335 331 325 313 313 311 311 312 315 318 318 315 317 318 318 316 314 315 327 330 330 334 334 332 333
326 336 343 337 337 335 339 337 341 337 333 329 317 314 333 336 337 338 332 330 323 315 316 315 315 313 314 314 316 318 318 318 318 315 314 313 322 331 330 332 332 332 332
329 333 341 341 336 336 339 340 340 336 329 326 318 313 332 337 336 328 328 326 320 315 317 317 317 316 316 317 318 319 318 318 317 315 314 313 314 327 328 329 327 330 327
329 329 338 337 335 335 342 342 337 334 327 322 315 311 322 335 327 326 324 320 315 317 318 317 317 317 317 318 319 320 320 319 317 315 314 313 312 314 327 324 322 320 318
330 329 332 342 339 335 342 341 338 337 334 323 316 312 312 312 317 325 322 318 315 318 318 317 316 316 317 317 317 318 318 318 316 314 314 314 319 320 328 327 324 320 317
334 331 332 339 339 336 343 340 339 337 335 325 318 313 313 313 313 315 317 317 315 319 318 317 317 317 317 317 317 317 317 316 315 314 315 317 321 329 330 327 325 317 311
338 336 333 332 337 337 339 341 340 336 333 333 322 315 313 314 314 315 316 316 316 319 319 318 318 318 318 318 317 317 316 315 315 315 316 317 322 330 329 328 327 319 315
340 340 340 339 336 335 339 338 332 333 335 334 329 321 314 314 314 315 315 316 317 319 322 321 319 319 319 319 319 319 318 316 316 316 316 316 320 328 328 327 326 318 311
341 340 339 337 337 330 336 336 330 326 330 330 329 326 322 315 314 315 315 316 317 319 320 321 322 322 320 319 319 319 319 318 317 318 317 316 319 328 325 326 322 319 313
340 339 334 327 326 326 329 330 328 326 326 326 327 327 324 323 319 315 315 316 317 318 318 319 319 321 321 320 320 319 318 318 318 318 318 316 316 323 325 318 318 317 315
340 338 336 334 329 323 323 324 325 323 323 323 325 327 326 325 325 323 317 319 322 324 327 325 327 328 326 323 321 320 319 318 318 318 318 317 317 316 317 317 317 317 316
339 339 337 335 335 334 330 328 329 329 331 330 324 326 329 329 330 330 327 327 328 329 330 331 331 331 330 329 329 328 327 326 325 323 320 318 317 317 317 317 317 317 317
338 338 338 336 336 335 334 333 333 333 333 332 331 332 334 334 333 332 331 331 331 331 332 332 332 332 332 332 330 330 329 329 329 328 326 323 320 318 317 316 316 316 316
339 338 337 338 337 337 336 335 334 334 334 334 333 334 334 335 335 335 334 333 332 332 332 332 332 333 333 333 332 332 331 331 330 330 329 329 326 325 321 318 317 316 316
332 333 334 338 336 338 338 337 336 336 336 335 335 335 335 336 336 335 334 334 335 335 334 334 334 333 333 333 333 333 332 332 330 329 327 327 327 326 326 324 319 316 316
331 334 336 337 337 337 337 337 337 337 337 337 336 336 336 336 337 337 336 336 337 336 335 334 334 334 334 333 332 331 330 330 329 329 328 328 328 327 326 325 325 319 315
324 326 331 336 337 337 338 338 338 337 336 337 336 335 334 335 336 337 336 335 334 332 332 332 332 331 331 330 330 329 328 328 328 328 327 326 325 325 326 324 321 320 315
318 319 321 324 328 332 336 337 337 335 335 335 336 335 335 334 334 336 336 334 331 332 330 330 331 331 330 329 330 331 329 327 326 326 325 325 325 324 324 323 321 318 314
317 317 318 319 322 326 329 328 326 325 328 331 334 335 334 332 334 335 334 333 333 333 331 329 330 328 328 327 328 329 326 325 324 324 324 324 324 324 323 321 321 319 314
316 316 317 317 318 318 318 318 318 318 318 318 319 320 321 320 320 321 321 322 321 320 319 320 323 325 326 325 326 326 324 324 324 323 322 322 323 322 321 321 320 321 318
315 315 315 315 315 315 314 314 314 313 313 313 314 314 314 314 315 315 315 315 315 315 315 316 324 325 325 326 325 324 322 323 324 323 321 321 319 319 320 318 317 318 318
314 314 313 313 313 312 311 311 311 311 311 311 310 310 310 310 311 311 311 311 311 311 313 314 325 325 325 324 324 321 321 321 319 320 319 317 318 317 316 316 316 315 315

GFSSE_850_thetae_051.txt.gz
Theta_e
331 332 334 333 340 339 338 337 339 339 338 337 335 334 330 322 331 338 337 331 332 330 327 322 324 329 331 335 334 332 331 328 325 321 313 314 315 315 313 313 317 331 332
327 330 333 332 337 336 334 336 338 337 335 332 332 328 322 325 334 320 322 320 314 312 314 323 323 327 330 334 333 331 328 323 315 313 315 315 315 316 317 318 317 326 330
325 330 333 331 332 332 333 337 339 338 334 327 321 320 324 328 338 331 327 318 311 310 315 320 324 326 330 331 328 326 321 316 316 315 316 320 317 320 323 333 329 323 323
325 328 332 332 332 336 336 337 338 338 328 321 318 319 326 330 337 335 331 322 312 310 311 315 320 323 323 325 324 318 317 317 316 314 315 324 326 328 334 336 332 333 334
325 329 340 334 339 335 339 338 338 337 327 320 316 324 327 332 336 335 327 322 314 313 312 311 313 316 318 318 315 317 318 318 317 314 314 324 332 331 333 333 331 332 332
325 332 336 342 340 342 340 338 336 333 327 320 315 332 332 332 336 338 326 322 315 315 315 314 314 314 315 316 318 318 318 317 316 314 313 317 331 331 329 331 330 331 329
329 337 339 342 337 338 340 340 338 332 326 319 315 336 337 338 337 324 323 320 315 316 316 316 316 316 316 317 318 318 318 317 315 314 314 313 317 329 329 328 325 324 321
330 343 338 341 336 337 338 341 339 333 325 318 313 322 337 337 329 322 321 318 316 317 317 316 316 317 317 317 317 317 317 316 315 314 314 313 315 318 329 324 322 321 318
328 341 338 342 336 336 341 342 338 334 329 321 313 312 314 314 317 322 320 317 316 318 317 317 316 317 317 317 317 317 317 316 315 315 315 316 319 321 328 327 324 312 311
329 332 339 338 336 335 342 341 339 338 334 325 316 312 313 313 314 316 318 317 316 319 318 317 317 317 317 317 317 317 317 316 315 315 316 317 321 328 330 328 324 313 309
331 331 334 340 340 336 341 340 340 338 335 331 321 313 313 313 314 316 317 317 316 319 319 318 318 318 318 318 318 318 317 317 316 316 316 317 319 329 330 328 325 316 315
334 333 337 339 340 337 340 342 341 335 333 333 327 320 314 314 314 315 316 316 316 319 322 321 320 319 318 318 319 319 319 318 317 317 317 316 317 329 329 328 326 320 317
338 337 336 336 336 338 339 339 336 328 330 332 330 327 321 315 314 315 315 316 316 318 320 321 322 323 322 321 320 319 318 318 318 318 318 318 316 325 328 324 322 319 317
340 340 339 339 338 337 336 338 336 331 326 328 329 328 325 323 319 315 315 316 317 318 318 319 320 320 321 320 320 319 319 319 318 318 317 318 317 317 323 325 319 317 317
340 339 337 333 333 330 330 334 333 328 325 325 325 326 326 324 324 323 318 317 319 320 325 328 327 329 329 329 327 326 327 326 324 322 322 321 319 317 317 317 317 317 317
339 339 337 334 331 326 324 325 325 325 324 327 326 324 327 327 328 330 329 324 326 328 329 330 331 331 331 331 330 330 329 329 329 328 328 326 324 321 319 317 317 317 318
336 339 338 337 336 335 333 329 329 331 331 331 330 327 330 333 333 333 332 331 331 331 331 331 331 332 331 331 331 331 331 331 330 330 330 329 329 327 325 322 318 317 317
336 339 339 338 337 336 335 334 333 333 333 333 333 333 333 333 334 335 334 333 334 333 332 332 332 332 332 332 332 332 332 332 332 331 330 328 327 326 327 326 325 321 316
335 338 338 338 339 337 337 336 336 335 335 335 335 334 334 334 335 335 335 335 335 335 335 335 334 334 334 333 333 333 332 331 330 329 329 328 328 328 328 327 325 323 319
333 333 334 333 337 336 336 337 337 336 336 335 334 334 335 335 335 335 336 336 336 336 336 335 334 333 332 331 330 330 329 327 328 328 328 329 328 328 327 327 325 322 320
332 332 333 335 336 336 336 336 336 335 335 335 335 335 336 335 335 335 336 336 336 335 332 330 330 330 330 329 330 327 326 327 326 325 325 325 326 325 325 325 324 322 320
320 327 328 330 332 333 333 333 334 334 334 334 333 334 335 335 334 334 333 331 333 334 334 332 332 331 331 330 329 330 327 324 323 323 323 323 323 323 324 324 323 321 320
318 319 321 322 325 327 329 330 332 334 333 331 330 332 333 334 335 335 333 333 334 334 333 332 333 329 328 329 326 326 325 324 323 322 322 323 321 322 323 322 321 321 321
317 317 317 318 320 322 324 327 328 326 322 321 320 319 320 321 321 321 321 320 320 320 320 320 319 320 323 326 326 326 325 325 324 322 321 321 321 321 319 319 319 318 317
315 316 316 317 317 317 317 316 316 315 315 314 314 313 313 314 314 314 314 314 313 313 313 313 313 315 319 327 325 325 324 323 321 321 318 317 318 315 317 317 316 316 316
315 315 315 315 314 314 314 313 313 312 311 311 311 310 310 310 310 310 310 310 310 310 310 311 312 313 322 327 325 325 324 322 321 321 317 316 315 316 314 314 314 314 314

GFSSE_850_thetae_054.txt.gz
Theta_e
335 342 339 337 339 340 339 340 340 340 339 338 336 334 323 333 337 337 331 332 330 328 323 328 334 334 332 334 332 331 326 317 313 314 315 315 315 314 314 319 337 333 329
335 342 338 339 340 341 341 340 340 341 338 335 333 330 324 331 320 321 319 314 312 313 324 324 326 326 331 332 330 326 317 315 315 316 316 316 317 323 329 322 321 326 325
336 341 340 340 342 341 339 340 340 340 333 326 324 323 327 336 328 325 317 311 310 316 322 324 327 329 330 327 324 316 316 315 314 316 322 328 326 335 334 330 328 328 334
336 339 341 339 338 337 338 340 339 335 325 320 320 327 330 337 333 329 319 311 310 312 317 321 322 322 323 322 316 316 317 316 314 316 333 334 334 335 334 332 334 334 334
341 342 341 339 336 340 336 338 338 333 322 318 322 327 331 336 334 326 319 314 313 311 312 315 317 318 317 315 317 317 317 315 314 316 330 334 337 332 332 332 331 332 331
342 341 340 335 340 336 338 337 337 329 323 317 327 327 333 337 335 324 319 315 315 314 313 314 315 315 315 317 317 317 316 315 315 314 314 329 334 331 329 328 327 328 327
341 344 338 342 340 339 340 339 335 329 322 316 334 333 334 336 333 324 320 316 316 316 316 315 315 316 317 318 317 317 317 316 315 314 313 313 324 331 328 324 321 319 317
342 343 342 344 341 340 340 340 337 330 321 314 332 340 339 339 332 324 320 316 317 317 317 317 317 317 317 317 318 317 317 316 315 315 316 316 317 325 328 325 320 313 313
343 343 344 340 337 338 339 341 337 329 321 314 315 322 331 323 323 324 320 316 318 317 317 317 317 317 317 317 317 317 317 316 316 316 317 318 319 322 329 325 317 311 309
343 344 346 343 338 339 339 341 338 334 327 319 312 314 317 317 317 321 319 316 318 318 317 317 317 317 317 317 317 317 317 317 316 317 317 317 319 328 331 328 324 318 316
342 345 344 344 341 342 342 340 339 338 334 324 316 313 313 318 314 317 318 317 317 319 318 318 318 318 318 318 318 318 318 317 317 317 317 317 318 328 332 330 328 323 318
341 342 344 342 342 342 340 341 338 338 335 333 324 317 314 314 315 316 317 317 316 319 320 320 320 319 319 319 319 318 319 318 318 317 318 317 317 327 332 330 327 322 319
339 339 340 339 340 341 339 340 340 341 335 334 332 328 319 314 314 315 316 316 316 319 321 322 323 323 324 323 321 320 319 319 318 318 317 317 317 318 329 330 324 321 317
340 339 338 337 337 338 340 339 340 337 334 334 331 330 326 323 316 315 315 316 316 318 322 320 322 320 321 322 323 323 323 324 322 321 319 319 319 317 317 320 321 319 317
340 339 338 338 338 337 337 338 339 337 333 334 329 328 327 325 324 323 317 316 317 318 320 327 328 328 329 329 329 329 329 329 328 328 328 327 325 321 318 317 318 318 318
340 340 339 337 337 337 334 334 336 336 334 331 326 325 326 327 327 329 329 322 321 325 327 328 330 331 331 331 331 331 331 330 330 330 329 329 329 329 325 322 319 317 319
339 339 338 336 332 329 326 326 332 330 329 328 329 326 324 330 330 331 332 331 331 331 331 331 331 331 331 331 331 331 331 331 331 330 330 330 329 327 327 326 326 323 319
335 337 338 338 336 335 334 331 328 330 331 332 332 332 331 332 333 334 334 334 334 334 333 333 332 332 333 333 333 333 333 332 331 331 330 329 328 328 328 328 327 326 323
333 334 337 338 338 337 336 335 334 333 333 333 333 333 333 333 333 334 335 335 335 335 335 335 335 335 335 334 333 332 332 331 330 328 327 328 328 328 329 328 328 327 324
332 333 336 336 338 338 337 337 336 335 335 334 334 334 334 334 335 335 335 335 336 336 335 335 335 335 333 332 332 330 328 328 326 326 327 325 325 325 327 328 328 326 325
333 333 332 333 333 335 335 335 336 335 335 335 336 336 336 336 336 335 334 334 335 335 336 336 334 332 331 331 330 329 329 328 328 327 323 323 323 324 324 324 324 324 323
327 331 332 333 334 336 336 336 336 335 335 335 336 336 335 335 335 335 334 333 333 333 331 333 334 333 332 332 332 331 328 325 325 323 323 322 322 323 322 322 323 323 321
318 321 327 329 330 332 333 334 333 333 333 334 334 333 331 330 331 331 332 333 334 334 333 334 333 332 332 330 326 329 327 323 323 323 323 322 322 322 321 321 320 320 320
317 317 318 324 327 327 328 330 330 331 332 332 331 326 323 322 321 321 322 322 322 322 321 319 318 319 321 323 322 324 326 326 324 323 322 321 320 320 320 319 318 317 318
317 317 317 317 319 321 323 325 324 323 321 318 317 316 315 314 313 313 313 314 314 313 313 312 312 312 313 314 318 327 326 325 325 323 321 320 318 317 317 315 315 315 315
316 316 316 316 317 317 317 316 316 315 314 313 312 312 311 311 310 310 310 310 310 310 310 310 310 311 312 314 315 328 326 324 323 321 319 318 316 315 315 314 312 312 313

GFSSE_850_thetae_057.txt.gz
Theta_e
347 339 338 338 337 337 338 340 341 341 339 337 335 324 333 338 337 330 329 329 326 330 339 340 337 332 333 332 329 320 314 314 315 315 316 316 319 318 322 332 336 330 324
345 338 338 338 340 339 340 341 341 340 338 336 332 325 338 330 320 317 313 312 314 321 325 326 326 328 331 327 320 315 315 315 317 320 323 325 334 330 326 326 326 332 336
345 341 339 338 341 340 340 340 340 340 336 327 326 333 333 325 322 315 311 311 318 322 322 323 328 328 325 320 315 315 315 314 323 333 333 334 336 332 331 333 334 335 332
343 341 342 340 341 340 340 340 339 336 323 321 325 333 338 332 326 316 311 311 315 318 321 323 323 322 320 315 316 316 315 314 324 335 336 336 334 333 332 334 332 331 328
343 343 342 342 339 337 340 339 337 328 321 321 327 331 336 334 327 319 313 312 312 314 317 319 319 318 315 316 316 316 315 314 317 332 335 334 338 330 330 328 327 328 326
342 343 335 338 338 338 335 337 337 326 319 321 327 331 338 336 330 321 315 315 314 313 314 315 316 316 317 317 317 316 315 315 318 319 331 334 339 332 327 322 319 317 315
342 346 337 337 341 338 337 335 327 325 317 325 328 333 339 337 326 321 316 316 316 316 315 315 316 317 317 317 317 317 316 316 318 317 317 322 323 329 324 320 316 312 312
342 345 337 338 339 338 339 336 329 325 315 331 335 336 339 337 325 322 317 317 317 317 317 317 317 317 317 317 317 317 316 317 323 317 318 318 318 320 323 320 312 310 309
344 343 342 343 342 341 341 338 334 324 316 322 339 341 338 330 324 322 318 316 318 317 317 317 317 317 317 317 317 317 317 316 320 317 325 325 319 322 327 324 321 318 316
343 345 345 343 342 340 340 340 337 331 319 315 324 327 322 318 321 321 318 316 318 318 317 317 317 317 318 318 318 318 318 318 319 320 324 318 318 324 331 330 327 323 319
343 343 344 343 342 343 342 340 338 336 328 318 313 316 317 327 315 321 319 317 318 319 318 318 318 318 318 318 318 318 318 319 318 318 321 318 318 321 332 332 329 324 319
343 342 343 342 341 343 342 339 338 337 335 328 320 314 325 331 330 329 318 317 316 319 320 320 320 320 319 320 320 319 318 318 318 318 319 318 318 318 329 333 331 324 319
341 344 342 341 340 341 343 340 338 337 338 338 336 331 329 326 318 316 319 317 316 317 321 322 322 322 324 323 321 321 320 320 320 319 320 318 318 318 318 329 325 321 320
341 340 339 341 341 340 341 338 340 336 337 338 337 336 331 324 318 328 329 329 325 330 332 333 332 331 328 325 328 327 326 326 327 324 323 326 325 322 319 320 320 319 319
340 340 340 342 342 340 341 340 339 339 337 336 337 336 334 332 325 325 327 327 328 329 330 331 333 332 332 333 332 331 330 329 328 326 328 328 329 328 326 322 320 322 322
341 340 340 340 339 339 340 338 338 338 338 336 336 336 335 334 332 328 331 328 327 328 331 332 333 334 334 334 334 333 333 332 330 329 329 329 329 329 328 327 326 324 322
343 341 341 341 341 339 339 339 338 339 337 336 336 336 334 334 333 333 334 334 333 331 332 333 333 334 334 334 334 334 334 333 333 333 331 330 328 328 327 327 327 327 326
341 341 341 341 338 337 336 336 336 336 336 336 336 337 334 328 332 335 336 336 336 335 334 334 334 334 334 334 335 335 333 332 333 333 332 332 331 328 328 328 328 328 327
340 338 338 338 338 337 337 337 336 335 336 336 337 337 337 334 333 334 336 336 336 336 336 335 335 336 335 335 334 333 333 332 332 331 331 330 330 330 326 326 328 328 328
339 339 334 337 338 337 337 337 337 336 337 337 337 338 338 337 337 336 336 336 337 339 337 337 335 334 334 335 332 331 331 330 329 329 329 329 327 326 325 325 325 326 325
337 338 334 334 336 337 338 337 337 337 337 338 338 337 336 336 336 336 336 338 337 338 339 336 335 334 334 333 333 330 330 330 328 328 328 326 324 323 321 323 323 323 323
325 337 338 333 334 334 338 337 337 338 339 339 339 337 336 337 338 341 339 339 339 338 335 335 336 335 335 334 333 333 329 325 325 326 324 323 322 322 322 322 321 321 322
319 328 335 336 335 337 337 338 337 337 335 334 334 334 334 332 333 333 333 333 333 335 334 333 333 335 330 330 330 330 327 324 324 324 324 323 322 321 321 320 321 320 319
317 318 324 331 330 331 332 333 334 334 335 335 333 330 331 330 327 325 323 320 319 319 319 319 319 318 318 322 327 328 329 326 324 323 323 322 321 320 319 318 317 315 315
317 316 317 318 322 326 330 332 333 334 333 331 330 326 319 317 316 315 313 313 312 313 313 313 313 312 312 312 320 324 325 322 325 322 322 321 320 318 317 318 315 314 312
319 317 317 317 318 319 320 323 326 326 323 319 316 315 314 313 312 311 311 310 310 310 310 310 310 310 311 313 314 323 321 321 324 323 322 320 319 318 317 315 314 312 310

GFSSE_850_thetae_060.txt.gz
Theta_e
346 333 334 335 335 337 339 340 340 339 336 333 324 333 339 335 325 327 328 329 341 342 342 336 332 330 330 323 314 314 315 316 316 319 330 330 324 323 328 329 332 336 334
336 334 335 336 336 338 339 340 339 338 334 328 333 340 333 319 315 312 312 316 325 331 330 326 326 328 321 315 314 314 316 323 325 330 334 334 329 329 329 334 337 333 331
331 334 337 338 338 338 339 339 338 335 326 325 337 327 323 320 313 310 313 317 322 333 330 326 324 319 315 315 315 314 319 332 334 334 336 334 330 331 335 333 329 328 329
330 333 336 340 340 340 339 337 334 325 322 326 339 335 328 323 315 311 312 317 321 321 323 321 319 316 316 316 315 314 316 331 334 336 335 333 332 331 329 325 327 327 323
334 333 338 340 340 339 338 335 326 320 321 326 337 335 332 324 317 313 312 313 317 318 318 318 316 316 316 316 315 315 315 319 330 333 334 334 332 326 323 320 317 316 316
342 339 340 341 340 339 338 333 325 319 322 327 332 336 333 326 318 315 314 313 314 315 316 315 316 316 317 317 316 316 317 317 317 322 330 332 330 325 320 317 311 311 312
344 343 342 338 336 336 335 332 322 318 321 326 331 338 335 328 319 316 316 316 315 315 315 316 317 317 317 317 317 316 316 317 317 317 317 318 318 322 320 314 311 310 309
344 343 336 339 340 336 336 328 324 316 323 328 333 340 338 328 322 317 317 317 317 316 316 317 317 317 317 318 317 317 317 320 319 319 324 320 319 321 322 318 319 317 316
345 343 336 341 337 338 337 332 327 317 325 329 336 340 335 322 321 319 317 317 317 317 317 317 317 317 318 318 318 318 317 318 318 319 324 319 319 322 326 327 324 322 319
345 342 337 340 338 340 339 337 329 319 318 335 339 338 325 319 321 320 317 318 318 317 317 317 317 318 318 318 318 318 318 318 318 319 320 319 318 320 328 331 329 324 319
344 342 342 342 342 340 339 337 336 328 318 320 326 326 321 320 316 321 319 317 318 318 318 318 318 318 318 318 318 318 318 318 318 318 318 318 317 318 327 330 331 327 319
344 343 341 341 340 341 340 338 337 334 327 319 314 315 318 333 327 318 318 318 316 318 319 319 319 320 320 319 319 319 319 319 318 318 319 318 318 318 319 327 329 325 319
340 339 341 341 343 340 340 339 337 335 333 335 330 319 328 329 325 320 317 317 317 316 318 321 321 322 320 321 321 323 325 324 325 323 323 324 324 323 321 319 321 320 319
341 340 340 341 342 343 341 341 338 334 338 336 338 333 330 325 318 319 323 321 318 319 322 328 326 331 329 327 329 328 328 327 327 327 327 327 327 327 326 324 323 321 322
341 341 339 339 339 339 338 339 338 337 337 336 337 334 334 330 324 319 323 325 322 325 328 329 330 331 332 333 332 332 331 330 329 329 328 327 327 328 328 328 327 325 324
339 339 339 338 338 338 338 338 338 337 338 336 336 335 333 334 329 325 327 325 324 324 326 329 330 334 333 333 334 333 333 332 332 331 331 330 329 328 328 328 327 326 325
339 339 338 339 338 338 338 338 338 337 338 336 336 335 334 332 332 331 332 334 332 329 329 331 332 331 331 331 331 332 333 333 332 331 331 331 331 331 329 327 327 328 327
340 341 340 339 338 338 338 338 337 337 337 337 336 336 335 331 330 333 333 334 334 335 334 332 332 333 334 334 333 332 332 332 332 333 332 332 332 331 330 329 327 326 327
340 341 340 340 339 337 337 335 334 337 337 335 336 337 337 333 332 333 334 335 335 334 335 335 335 334 333 333 333 333 332 332 329 328 327 326 325 328 328 328 325 325 325
339 340 340 340 338 337 336 336 335 334 335 335 336 337 337 337 336 335 335 336 336 335 335 334 334 333 333 333 333 334 331 329 330 327 324 325 327 326 326 324 322 322 323
338 339 338 336 337 337 337 336 337 336 336 336 337 337 338 338 338 338 335 336 335 334 334 334 333 334 333 333 333 332 333 329 327 325 327 327 326 325 323 322 322 321 321
334 336 338 334 335 336 337 337 337 337 336 336 337 336 337 336 338 337 336 338 335 335 334 333 333 332 331 330 330 330 327 326 323 323 326 327 324 322 321 321 320 320 320
325 334 337 337 335 335 335 337 337 338 338 338 338 338 339 338 337 335 334 334 334 336 336 333 334 331 330 330 330 328 326 325 325 325 325 324 323 321 320 319 317 317 317
322 325 333 336 337 336 336 336 333 332 335 335 336 336 333 330 332 332 330 325 322 318 316 315 314 315 316 318 322 323 325 325 323 322 321 322 321 321 319 318 317 317 315
319 319 320 329 332 331 331 331 331 332 334 334 335 334 331 331 324 318 316 315 313 312 312 312 312 312 312 312 314 317 324 322 322 321 320 321 321 319 319 317 317 315 314
318 317 317 317 321 329 330 330 331 331 331 332 332 330 323 316 314 313 312 312 311 310 310 310 310 310 311 312 317 321 320 320 320 320 321 322 320 319 318 316 315 314 312

GFSSE_850_thetae_063.txt.gz
Theta_e
344 331 335 335 338 338 339 340 338 335 328 326 338 337 331 323 328 331 341 342 342 341 337 332 328 325 315 314 315 317 319 329 333 332 328 327 327 330 336 336 333 330 330
342 331 333 334 336 338 339 338 336 331 326 336 340 330 317 313 313 322 330 340 340 335 329 325 322 315 314 314 320 328 328 329 331 332 330 329 331 334 334 332 326 331 331
336 332 333 334 336 338 338 337 333 326 328 340 328 319 315 311 311 313 317 327 335 327 321 319 316 315 315 314 323 332 332 333 334 332 331 330 332 330 325 323 323 321 323
333 334 334 336 338 339 337 334 326 324 331 333 326 323 316 311 311 316 318 317 317 319 319 316 315 316 316 314 318 325 328 332 332 333 332 331 326 322 318 315 314 314 315
333 335 337 339 338 338 333 326 320 324 333 335 332 325 318 313 312 314 316 317 318 318 317 315 316 316 316 315 315 317 319 324 329 331 330 325 324 319 316 312 311 311 311
334 337 340 340 339 337 333 323 319 324 329 334 335 325 319 315 314 313 314 315 316 316 315 316 317 317 317 316 316 317 317 317 317 320 323 320 321 321 314 311 311 310 309
334 338 340 341 338 338 332 323 319 323 326 333 337 329 322 317 316 315 315 315 315 316 316 317 317 317 317 317 317 317 318 318 318 320 320 318 318 322 317 318 318 317 316
340 340 341 338 336 336 332 322 318 322 326 332 338 333 328 320 317 317 317 316 316 317 317 317 317 318 318 318 317 317 318 318 318 320 321 319 319 322 324 324 322 320 318
344 340 337 337 335 335 329 324 317 322 325 334 339 334 322 320 318 317 317 317 317 317 317 317 318 318 318 318 318 318 318 318 318 319 320 318 318 320 325 328 327 322 318
345 342 335 340 336 335 332 327 318 324 327 329 337 329 320 320 319 317 317 318 318 317 318 318 318 318 318 318 318 318 318 318 318 318 319 319 317 318 323 327 330 329 320
344 341 337 338 337 336 333 332 322 318 331 336 337 329 319 317 319 319 317 318 318 318 318 318 318 318 318 318 318 318 318 318 318 318 318 318 318 317 318 322 324 328 321
342 341 340 340 340 338 333 327 329 320 317 326 328 321 318 324 320 318 318 317 317 318 319 319 319 319 319 319 319 319 321 322 321 323 323 323 323 323 321 320 320 322 320
341 340 339 340 340 339 338 333 329 330 323 318 315 315 322 324 323 319 318 317 317 316 317 319 320 321 322 321 322 326 325 325 326 326 325 326 326 327 326 325 324 323 322
339 340 340 340 339 340 340 339 335 333 329 328 330 322 325 326 324 317 317 320 318 318 319 321 320 322 326 328 328 327 327 327 327 326 326 326 327 327 327 327 327 326 324
340 340 339 340 340 341 342 340 340 335 334 337 334 334 331 328 322 319 319 321 320 319 320 322 324 328 330 331 331 331 331 330 330 329 329 328 328 329 328 327 328 327 325
338 339 339 339 340 341 339 337 337 337 336 336 336 335 333 329 327 323 322 323 322 321 322 324 327 331 333 332 332 333 332 331 331 331 330 331 331 330 330 329 328 327 327
338 340 339 338 338 338 337 337 337 335 337 336 336 335 333 330 328 326 325 328 330 327 326 328 330 331 332 331 331 331 332 331 331 331 331 330 331 329 328 329 328 327 326
338 338 338 338 338 338 338 337 337 337 337 336 336 336 334 330 328 328 329 331 332 332 332 332 331 331 332 333 332 331 331 331 331 331 331 331 332 331 328 326 327 327 325
338 338 338 337 337 337 337 336 336 336 336 336 336 336 335 335 328 330 331 333 334 334 334 334 333 333 332 331 331 331 332 332 331 330 329 329 329 326 325 325 324 324 322
338 339 339 339 339 337 336 336 336 336 336 336 336 335 337 336 334 331 332 334 335 335 334 334 333 332 332 330 331 330 330 330 329 329 329 328 327 326 326 325 322 321 322
334 334 337 339 338 338 337 336 334 333 336 336 334 336 336 336 336 336 335 335 335 334 333 333 333 332 331 330 329 329 328 328 327 324 323 329 327 325 326 324 321 321 320
327 331 333 335 334 337 337 335 335 334 333 335 336 336 336 337 337 336 336 335 334 334 333 333 333 331 330 329 329 328 327 325 325 322 323 327 327 325 322 320 320 317 318
324 328 330 332 332 334 336 337 337 337 336 336 336 336 336 336 337 337 336 336 336 335 333 333 331 333 329 326 325 326 326 324 324 324 326 325 324 323 320 319 318 317 317
322 323 331 331 332 332 333 336 337 336 334 333 336 336 338 337 334 332 332 333 334 330 323 318 315 314 314 314 316 318 324 325 324 322 321 322 321 321 319 318 318 317 316
322 322 323 332 330 330 331 331 331 330 331 333 334 334 335 335 333 331 328 320 316 314 313 312 311 311 311 312 312 313 315 318 322 319 320 320 321 321 320 318 318 317 316
318 318 320 323 332 331 331 330 329 329 328 328 331 332 331 331 330 319 315 313 312 312 311 311 310 310 310 311 311 313 318 318 317 321 320 321 319 320 320 319 318 316 315

GFSSE_850_thetae_066.txt.gz
Theta_e
336 338 335 336 337 337 337 336 334 325 331 338 335 330 326 336 340 341 340 340 340 338 334 328 321 314 314 315 316 324 330 329 327 327 328 331 335 336 333 326 329 329 328
333 335 335 336 336 338 338 335 329 324 337 339 325 314 316 327 340 341 341 341 337 333 325 318 314 314 317 320 322 325 329 330 329 328 330 334 332 326 322 319 320 326 332
332 335 335 336 338 339 337 333 325 336 340 331 316 312 311 317 326 337 341 337 332 323 317 314 314 314 319 324 327 329 329 329 329 329 329 326 320 317 315 314 314 315 318
332 334 334 337 339 337 335 330 325 340 338 320 317 311 311 313 314 323 329 327 319 316 315 315 315 314 318 322 325 329 328 331 329 326 324 322 319 316 313 312 311 311 312
332 333 335 337 338 336 332 324 324 335 326 323 317 312 312 314 315 316 316 316 316 315 315 316 316 315 316 317 319 321 323 324 326 324 324 322 320 315 311 311 310 310 309
333 334 338 338 337 332 324 321 326 335 331 328 318 314 313 313 315 316 316 316 316 316 316 316 317 316 316 317 317 317 318 318 319 319 318 318 320 317 316 318 318 317 314
336 338 339 338 336 331 323 321 325 333 335 331 321 316 315 314 314 315 316 316 316 317 317 317 317 317 317 317 317 319 319 318 320 321 319 319 320 322 321 321 320 318 318
338 341 340 338 336 330 323 320 324 330 335 337 325 320 316 316 315 315 316 316 317 317 317 318 318 318 317 317 317 318 318 318 319 320 319 317 318 321 324 326 324 321 318
338 340 341 338 336 333 323 319 323 326 334 340 331 325 319 317 317 317 316 317 317 317 318 318 318 318 318 318 318 318 318 318 318 318 319 318 317 318 321 326 328 329 320
339 341 340 336 335 331 323 318 321 325 332 339 333 321 319 318 317 317 317 318 318 318 318 318 318 318 318 318 318 318 318 317 318 318 318 318 318 317 319 321 323 327 323
343 341 336 337 336 332 326 320 321 325 329 335 331 321 320 320 319 317 318 318 317 317 317 318 318 318 318 318 318 318 318 319 320 321 322 321 321 322 321 320 321 322 322
344 342 335 338 336 335 331 323 318 327 326 334 332 323 318 318 319 320 318 317 318 318 318 318 318 319 319 319 319 320 323 323 324 324 324 324 325 326 326 325 324 323 323
340 341 336 339 337 337 333 329 323 318 330 333 330 320 317 323 320 319 319 318 316 317 318 319 320 319 320 322 323 326 325 325 325 325 325 325 326 326 326 327 326 325 324
339 339 338 338 338 339 338 333 329 327 319 317 316 315 316 320 322 319 318 318 317 316 318 319 321 321 326 328 328 327 326 327 327 328 328 328 328 329 329 328 327 327 326
331 336 337 338 338 338 339 339 338 335 331 327 329 322 321 322 323 319 318 320 320 318 319 321 323 325 328 329 329 329 330 329 329 330 330 329 330 331 330 329 328 327 326
330 331 337 338 339 339 340 340 339 338 334 333 334 332 333 330 328 323 319 320 321 320 322 323 326 328 330 330 331 331 330 330 331 331 331 330 330 330 328 328 327 327 326
336 334 334 336 337 338 342 339 336 337 336 335 335 335 335 333 330 327 322 323 325 325 324 325 328 330 330 331 331 331 331 330 330 330 331 330 329 327 328 328 325 325 326
334 335 334 331 338 336 339 337 336 336 336 336 335 335 335 334 330 329 327 327 331 332 331 331 331 331 331 332 331 330 330 330 330 330 331 331 331 328 329 328 324 324 324
335 335 333 334 335 338 338 335 336 336 335 336 336 335 335 334 333 329 329 330 332 333 333 333 333 332 331 331 330 330 330 330 330 330 328 331 331 330 326 324 324 325 322
336 336 336 336 337 338 337 337 337 336 335 335 335 334 336 335 335 332 330 333 333 334 333 333 332 331 331 331 329 327 329 327 328 326 327 326 328 329 324 324 325 323 320
336 337 336 337 337 337 336 336 336 336 335 335 334 334 335 334 335 335 334 334 333 333 333 333 332 331 330 330 328 328 326 327 324 325 324 324 325 325 325 324 324 320 319
330 332 334 334 336 337 337 337 336 336 335 336 335 335 333 334 335 335 335 334 334 334 333 332 331 331 330 330 328 328 327 324 324 323 322 321 325 323 324 323 320 318 317
325 326 329 330 332 333 335 334 336 335 334 334 335 334 334 335 335 335 334 334 334 334 334 333 332 331 328 327 326 326 326 324 323 323 322 324 323 323 322 321 319 318 318
323 323 326 330 330 332 332 333 334 334 333 333 332 334 335 335 335 335 335 334 334 334 335 334 333 324 320 314 313 313 317 325 323 323 321 322 322 321 320 320 318 318 318
322 323 325 327 328 329 331 331 331 332 332 330 330 330 333 334 333 330 329 331 332 331 323 316 313 312 311 311 311 311 313 314 318 325 321 319 320 319 318 319 318 318 318
322 322 321 325 326 327 329 330 331 331 331 329 330 330 329 326 325 326 328 329 319 314 312 312 311 311 310 310 311 311 312 314 315 318 320 320 319 319 319 318 317 318 317

GFSSE_850_thetae_069.txt.gz
Theta_e
338 337 336 336 336 335 335 333 325 327 336 330 328 334 338 339 338 340 342 341 338 336 330 320 313 314 315 319 325 326 324 325 326 330 334 333 328 320 319 329 327 333 334
336 336 336 336 336 337 336 331 324 336 339 332 326 329 339 339 339 340 340 338 335 327 318 313 314 316 318 321 324 327 326 325 326 330 327 322 317 315 315 315 319 330 332
337 335 335 336 336 338 334 325 326 338 336 317 313 322 338 341 341 341 340 335 327 317 314 314 316 319 321 323 324 324 326 325 326 325 320 318 315 313 312 311 312 314 317
336 335 336 337 338 337 332 324 334 340 326 314 311 313 327 337 342 338 337 331 316 314 315 315 316 319 318 319 321 323 324 323 322 322 321 319 315 312 312 311 310 310 311
336 337 338 338 338 335 328 328 340 337 318 314 311 311 314 324 329 331 324 317 314 315 315 316 316 318 318 318 318 319 320 321 321 320 319 319 317 315 317 318 317 315 311
339 338 338 338 336 335 326 326 338 325 319 314 311 313 314 315 315 315 315 315 315 316 316 316 317 317 317 318 318 318 318 318 319 319 318 319 320 318 320 320 319 318 318
339 338 337 338 335 331 322 324 334 325 320 316 313 313 315 315 315 316 316 316 316 317 317 317 317 317 317 318 319 319 318 319 321 320 318 318 319 322 323 324 323 319 318
338 338 338 337 333 326 321 326 335 334 326 319 315 314 314 315 316 316 316 316 317 317 318 318 318 318 318 318 318 318 318 318 319 319 318 317 317 318 322 324 326 327 320
337 339 338 337 333 325 320 324 334 338 333 325 318 316 315 315 315 316 316 317 317 317 318 318 318 318 318 318 318 318 318 317 317 318 318 318 318 319 320 321 322 324 322
339 340 339 338 335 330 321 322 327 336 338 334 324 318 316 316 316 316 317 317 317 317 317 317 317 317 318 318 318 318 318 318 319 320 321 321 321 322 322 322 322 322 322
340 341 340 337 335 330 322 319 324 330 338 336 328 320 318 317 317 317 317 317 317 317 317 317 317 318 318 318 318 318 318 321 321 322 323 323 324 325 325 324 323 323 323
340 340 340 335 334 330 325 318 324 327 336 337 328 322 320 319 318 317 318 318 317 317 317 317 317 318 318 319 319 320 323 323 323 323 324 324 325 325 326 326 326 325 324
343 342 338 336 334 332 328 319 326 326 330 334 333 324 320 319 320 320 318 317 318 318 318 319 320 320 320 322 322 326 325 324 325 326 326 327 327 328 328 328 327 326 326
336 341 339 339 336 335 332 326 319 327 330 334 334 328 318 323 323 321 320 318 317 316 317 319 321 322 325 328 328 328 327 327 327 328 329 329 330 330 330 328 326 324 323
329 336 337 338 337 338 337 332 330 326 320 323 323 319 316 320 324 322 319 319 319 317 320 322 323 325 328 329 329 328 328 328 329 330 330 330 330 329 329 327 327 326 323
328 330 326 331 337 336 337 338 338 336 334 327 325 325 323 325 326 326 320 321 321 320 322 323 325 326 329 330 330 330 330 330 330 329 328 329 329 328 327 325 326 325 322
327 329 326 329 336 337 337 333 335 336 337 334 332 332 332 333 330 328 326 321 323 322 323 324 326 328 329 330 330 331 330 329 329 328 329 329 328 329 327 326 327 325 323
328 329 331 329 327 332 334 335 336 335 336 335 334 334 334 334 334 330 328 323 325 328 329 328 329 330 331 331 330 329 329 329 329 328 328 329 331 329 328 329 327 324 323
333 332 333 330 329 328 330 331 330 336 336 336 335 335 334 335 335 333 329 327 328 331 332 333 332 332 331 330 330 329 329 328 328 326 327 326 327 327 328 327 323 323 324
336 334 333 335 330 329 329 329 330 330 336 336 334 335 334 334 335 335 332 329 330 332 332 332 332 331 331 330 329 329 328 327 326 327 325 325 325 325 327 327 323 324 323
336 335 334 333 334 333 334 333 335 334 336 336 334 334 334 333 335 335 335 331 333 334 332 332 332 331 331 330 329 328 328 325 326 321 323 323 323 323 325 324 323 323 320
335 334 335 335 336 335 336 335 336 336 336 335 334 334 334 333 334 332 333 333 332 332 333 332 330 330 330 330 329 328 327 325 320 321 322 322 320 324 323 321 322 320 318
328 332 333 335 335 336 336 336 337 336 335 334 334 334 333 333 333 334 334 334 333 333 332 332 332 331 330 329 329 328 326 323 322 321 322 322 322 322 321 321 321 319 318
321 324 328 329 331 332 333 332 333 334 332 333 331 332 333 332 332 332 332 332 331 331 332 332 331 332 332 327 319 315 314 318 323 322 321 322 322 322 320 320 319 319 318
321 322 323 325 326 330 330 330 331 331 331 331 331 331 330 331 331 332 332 328 328 324 324 324 330 323 314 312 311 311 311 312 315 318 322 319 321 320 320 318 318 318 318
320 321 322 323 325 326 326 328 328 330 330 331 331 330 329 329 329 330 327 325 323 323 326 319 313 312 311 311 310 310 311 312 313 315 317 320 321 320 319 319 317 317 318

GFSSE_850_thetae_072.txt.gz
Theta_e
339 338 338 335 334 334 333 329 323 333 331 331 333 330 326 321 326 335 339 339 337 335 321 313 314 315 320 322 321 322 324 328 332 328 322 318 317 316 316 330 331 332 332
337 337 337 334 334 333 332 325 329 337 329 327 336 340 338 337 338 341 340 338 333 320 313 314 315 318 321 323 322 322 323 325 323 319 317 315 313 312 312 313 314 322 330
336 337 337 334 335 337 331 323 336 338 331 324 334 338 338 339 341 339 338 333 321 313 314 316 319 320 320 321 323 322 322 322 320 320 317 313 313 312 311 311 311 311 314
336 337 337 336 336 337 327 325 336 338 319 314 327 340 340 340 339 339 333 323 313 314 315 318 319 319 320 320 321 322 321 321 320 319 319 315 315 317 318 317 315 311 309
336 337 337 336 337 334 324 328 338 333 315 311 318 337 341 341 339 336 329 314 314 315 316 318 318 318 319 319 319 320 319 319 319 318 319 319 318 319 320 318 317 317 317
336 338 337 338 337 333 323 337 337 322 314 310 311 325 333 337 333 326 316 314 315 316 316 317 318 318 318 319 319 319 319 320 319 318 318 319 320 321 323 323 322 318 317
337 337 338 338 335 331 325 339 336 318 313 311 313 313 319 323 317 315 315 315 316 316 316 317 317 318 318 318 319 318 318 319 319 318 317 317 318 320 323 324 326 323 319
338 337 338 338 335 331 324 337 329 321 315 312 314 315 315 315 315 316 316 316 317 317 317 317 317 317 318 318 318 318 318 318 318 318 318 318 319 319 321 322 321 323 320
337 338 338 337 333 325 324 335 334 327 319 314 313 315 316 316 316 316 316 317 317 317 318 318 317 317 317 318 318 318 317 317 318 319 320 320 321 321 322 322 322 322 322
337 337 338 336 332 323 322 333 337 332 327 319 315 314 315 315 316 316 317 317 317 318 318 318 318 318 318 318 317 317 317 319 320 321 322 323 323 324 324 324 323 323 323
338 338 338 336 333 325 321 326 336 338 334 328 320 316 316 315 316 316 316 317 317 317 317 317 317 317 318 317 317 318 319 321 321 322 322 323 324 325 325 325 325 325 324
339 340 338 338 335 330 321 322 330 337 338 335 324 319 317 317 317 317 317 317 317 317 317 317 317 317 318 318 319 319 324 323 323 323 324 325 325 327 327 327 326 325 325
340 341 339 337 335 331 323 319 324 330 340 336 327 322 320 319 317 317 318 318 317 317 317 317 318 319 320 320 320 325 325 324 325 326 327 328 329 329 329 326 325 323 323
340 340 341 338 335 333 326 320 322 325 333 337 332 325 320 320 320 320 319 318 317 318 318 319 320 321 323 327 327 327 327 327 327 329 329 329 329 329 327 328 327 326 325
331 335 339 338 337 336 332 327 319 326 327 330 334 333 325 320 324 322 321 319 318 317 317 319 322 322 325 328 329 328 328 328 329 329 329 329 329 327 327 325 325 325 325
327 326 325 331 331 336 335 334 329 325 323 327 333 332 321 318 323 325 322 319 321 319 321 322 323 325 327 329 329 329 329 329 329 328 328 328 328 327 327 326 326 325 325
328 328 328 327 327 328 335 334 335 334 332 331 324 323 325 325 329 329 328 322 323 323 322 323 324 326 328 329 329 329 330 328 328 328 327 327 327 328 328 325 326 326 325
331 330 325 326 328 327 331 333 333 333 333 334 333 332 333 332 334 333 330 328 324 324 324 325 326 328 330 330 329 329 329 328 327 327 327 325 326 326 326 327 328 326 322
330 328 326 327 327 326 331 331 331 332 333 332 332 334 334 334 334 334 332 329 325 326 330 331 332 332 331 330 329 329 329 329 327 326 326 325 325 323 324 324 325 323 323
328 328 329 331 326 329 329 329 327 328 330 329 330 336 335 334 334 334 334 332 330 329 331 332 332 330 330 330 329 329 327 327 328 324 326 324 326 324 323 324 326 322 322
331 333 331 332 329 331 328 328 328 330 329 328 331 336 335 333 333 333 334 334 332 332 332 331 331 331 330 329 329 327 327 326 322 319 317 318 320 320 321 325 322 321 321
330 332 332 333 333 333 330 329 329 327 329 329 331 335 335 333 333 333 334 333 332 332 332 331 331 330 328 329 328 328 326 324 318 318 319 320 321 319 324 324 320 320 320
326 331 331 331 332 332 333 332 332 332 332 333 334 334 334 333 334 333 333 333 331 331 331 331 330 330 329 329 330 329 326 323 321 318 319 321 321 321 321 321 320 320 319
322 322 328 331 332 332 332 332 333 332 332 333 331 332 331 333 332 331 331 331 331 331 330 328 329 331 329 330 329 324 319 317 318 318 319 320 320 321 321 321 319 319 317
321 321 320 323 328 328 329 329 329 329 330 329 327 330 331 331 332 332 330 330 330 329 326 324 323 321 321 325 313 311 311 311 312 316 316 315 320 319 319 320 319 318 317
321 320 321 321 322 327 326 327 328 328 329 329 330 330 328 329 328 329 330 330 329 325 324 324 321 321 318 312 311 311 311 311 312 313 316 316 318 318 317 318 318 318 317

GFSSE_850_thetae_075.txt.gz
Theta_e
338 338 338 338 336 335 334 330 322 334 328 331 316 320 329 330 330 332 338 338 336 326 313 314 317 321 320 320 322 326 325 323 318 316 314 313 314 317 321 325 330 332 327
339 337 338 337 334 333 331 325 331 333 329 336 330 319 329 326 329 336 339 337 331 315 314 316 321 321 320 320 322 322 320 319 317 315 313 313 312 312 312 312 315 322 332
338 338 338 335 333 332 330 322 336 329 329 339 338 335 330 335 338 340 337 332 316 314 316 318 320 321 321 321 321 321 320 320 319 316 314 315 316 316 315 314 311 311 313
337 338 337 336 334 334 327 328 337 331 326 336 339 339 339 341 340 338 332 318 313 315 319 320 320 320 321 321 321 320 320 319 319 319 317 318 319 319 318 317 317 317 313
337 337 337 336 336 334 324 334 338 324 318 332 340 339 340 339 339 333 321 313 314 317 319 319 320 320 320 321 320 320 319 318 318 319 319 320 321 322 322 320 318 317 317
337 337 337 336 337 332 323 334 338 321 313 322 340 341 340 339 337 329 314 314 315 318 319 319 318 319 320 320 319 319 320 319 317 318 318 319 320 323 324 325 322 319 319
337 337 337 337 337 329 330 336 337 317 311 313 335 341 341 337 333 320 314 315 316 317 318 318 319 319 319 319 318 319 319 319 318 317 318 318 320 321 322 321 322 321 320
337 337 338 338 335 327 336 338 334 317 311 311 320 332 334 329 319 314 315 316 316 317 317 318 318 318 318 318 318 318 318 318 319 319 319 320 320 321 321 321 321 322 321
337 337 338 338 335 327 337 336 327 319 312 313 313 317 322 317 315 315 316 316 316 316 317 317 317 317 318 318 318 317 318 318 320 320 321 322 322 322 323 323 322 322 322
337 337 337 337 334 328 329 335 330 322 316 313 315 317 319 316 316 315 316 317 317 317 317 317 317 317 317 317 317 318 318 319 320 321 322 323 323 324 324 324 324 324 323
337 337 337 337 333 323 324 335 333 330 323 315 313 315 316 317 316 316 317 317 317 318 318 318 318 318 317 317 317 318 321 321 321 322 322 323 324 325 326 326 325 324 324
337 337 338 336 333 324 322 336 337 335 331 325 317 315 314 315 316 316 316 317 317 317 317 317 317 317 317 318 318 319 324 323 323 324 325 326 327 328 328 325 323 323 322
337 338 338 337 334 327 321 327 335 337 334 333 323 318 316 316 316 316 317 317 317 317 317 317 317 317 318 319 319 323 325 324 325 325 327 327 328 328 327 327 326 326 326
336 340 337 338 336 333 324 320 327 335 338 333 328 322 321 319 317 317 317 317 317 317 317 317 318 320 321 323 325 327 326 326 326 328 328 329 329 328 327 326 325 324 326
334 334 340 339 336 334 327 321 321 325 332 341 335 325 322 321 321 321 320 319 318 317 318 319 321 322 323 327 328 328 327 327 328 329 329 327 326 327 327 326 325 325 325
330 328 331 337 335 335 333 328 320 325 326 329 334 333 331 323 323 325 324 321 320 318 317 319 323 324 326 328 329 329 329 328 328 328 327 327 326 326 326 327 326 325 324
327 325 327 326 331 331 333 334 330 325 325 328 330 333 334 326 319 324 325 325 321 322 320 322 323 325 326 328 329 329 329 328 327 327 326 327 326 324 325 326 327 326 326
324 326 326 326 328 328 327 332 333 333 332 329 326 324 324 326 326 331 330 328 324 325 323 323 324 326 328 329 329 328 328 328 328 328 327 327 325 325 323 324 325 325 324
326 327 327 327 327 328 328 328 331 331 332 332 333 332 332 334 333 334 333 331 329 324 325 325 326 328 331 330 329 328 328 328 328 328 326 325 326 325 325 324 324 324 322
328 329 328 327 327 328 327 327 327 330 331 331 332 331 332 333 334 334 334 333 331 326 326 330 331 331 330 329 329 328 328 327 327 325 324 323 319 318 321 321 324 324 322
331 330 329 326 328 325 325 327 328 328 327 327 327 330 330 332 333 333 333 334 333 330 329 331 331 330 330 329 328 327 327 327 321 319 315 315 315 317 319 320 326 322 321
331 331 329 328 330 329 328 329 326 328 328 328 328 327 328 328 332 333 333 333 332 333 331 331 330 329 329 329 327 327 326 325 320 318 316 318 318 318 318 322 323 321 320
328 329 329 330 328 325 329 330 329 328 329 329 328 328 328 329 333 333 333 332 332 332 330 330 330 330 329 328 328 327 326 324 324 318 315 315 319 319 319 321 321 321 320
322 326 329 330 330 330 329 329 329 329 330 329 331 331 331 332 333 331 331 332 332 331 330 330 329 328 327 328 328 328 325 324 322 318 314 317 317 318 320 320 321 320 319
320 321 321 322 330 329 330 330 330 330 328 325 325 325 325 326 329 330 330 330 330 330 330 329 328 324 323 322 321 314 311 311 311 312 316 313 315 317 320 318 317 319 319
320 320 320 320 320 327 327 327 328 328 329 329 329 328 328 329 328 327 324 327 329 329 329 327 324 324 324 322 318 312 311 311 311 312 313 312 314 315 317 317 315 318 317

GFSSE_850_thetae_078.txt.gz
Theta_e
343 344 339 338 338 334 335 333 326 324 329 321 320 330 334 331 333 332 336 338 333 313 314 317 319 320 323 327 330 325 318 316 315 314 313 314 315 321 324 324 335 334 335
343 344 339 339 338 335 335 330 323 332 334 324 315 327 330 329 335 334 339 336 321 313 317 328 323 319 322 323 320 319 318 316 313 313 312 312 312 312 312 315 319 333 335
344 345 338 339 336 335 331 326 332 330 334 329 320 327 329 330 333 338 338 332 314 315 320 321 320 320 321 322 320 320 320 317 314 315 321 323 318 317 316 313 312 312 316
344 345 342 338 333 332 330 323 332 329 339 336 323 330 331 335 337 339 335 316 314 317 320 321 321 321 322 321 321 320 319 319 317 319 329 330 320 318 318 317 317 316 314
345 345 346 337 334 332 327 329 331 327 337 340 337 334 336 341 340 336 323 314 316 319 320 320 321 322 321 321 320 319 318 318 319 321 323 331 330 324 323 320 319 318 317
344 345 341 337 335 333 325 336 336 326 330 340 340 341 341 341 337 326 314 314 319 320 321 321 321 320 320 320 319 319 318 317 319 325 325 326 330 322 322 322 320 320 319
343 343 338 337 337 332 327 336 336 316 321 340 341 341 340 339 333 318 314 316 319 320 319 320 320 320 319 318 319 319 319 318 324 323 329 331 324 321 321 321 321 321 321
342 341 340 338 337 328 331 335 337 316 313 340 341 341 340 338 331 314 314 316 319 319 320 319 319 319 319 318 318 318 318 319 321 320 322 329 321 321 322 322 322 322 321
341 341 339 338 336 329 331 337 333 316 311 330 341 340 340 333 325 314 315 316 317 319 318 318 318 318 318 318 318 318 318 319 325 322 324 329 323 323 324 323 323 323 322
339 341 341 339 336 332 338 337 330 316 311 312 335 339 336 325 317 315 316 316 316 317 317 317 317 318 318 318 317 318 319 319 321 321 322 324 324 324 325 325 324 324 324
336 339 339 339 339 337 338 335 328 321 313 315 316 329 324 321 316 316 316 316 317 317 317 318 318 317 318 317 317 318 321 320 321 322 323 324 325 327 326 324 323 322 321
332 339 339 338 338 335 337 335 333 327 320 318 321 326 330 330 329 326 317 317 318 318 318 318 318 318 317 317 318 318 323 323 323 324 325 326 327 328 326 327 325 325 324
324 327 338 338 335 331 328 335 334 332 332 329 324 319 328 324 317 316 317 318 318 318 317 317 317 317 317 318 319 320 324 324 326 325 326 327 328 328 327 326 325 324 326
324 329 339 338 334 327 324 336 337 334 332 331 321 316 316 316 316 316 317 317 317 317 317 317 318 317 318 319 322 327 327 329 329 327 329 328 328 327 327 326 325 325 325
325 324 333 338 335 331 322 326 335 336 336 333 328 321 320 317 317 317 317 317 317 317 317 317 318 320 322 327 328 330 331 331 330 330 331 328 327 327 326 327 325 326 324
323 326 330 337 337 334 324 320 324 331 335 336 334 326 324 322 321 320 320 319 320 318 318 319 325 328 329 329 331 331 331 331 331 331 330 330 327 325 325 326 327 326 325
325 325 326 333 335 335 331 326 319 322 325 331 335 336 333 332 323 325 328 326 323 321 319 318 322 325 329 331 332 332 332 332 331 330 330 329 329 327 324 324 323 324 325
325 325 326 330 332 333 332 334 328 323 325 327 328 331 333 336 332 322 326 326 328 322 323 321 326 328 329 330 332 332 331 330 330 330 330 329 329 329 329 326 325 324 324
325 326 327 328 327 329 327 328 333 333 332 331 329 328 326 325 325 325 331 332 330 326 324 324 325 328 329 331 332 331 330 329 330 329 329 329 329 325 326 326 324 324 323
325 326 327 326 328 327 327 328 329 332 332 332 332 332 332 332 332 333 334 334 333 330 326 325 326 327 330 332 330 328 328 330 329 328 326 320 316 315 316 320 321 323 324
326 326 325 324 326 326 326 327 328 327 328 328 331 328 328 331 332 333 333 334 333 333 329 325 328 330 331 329 329 329 330 328 328 323 317 314 314 314 318 319 323 325 323
326 328 328 328 328 327 326 326 326 327 328 327 329 328 328 328 329 330 331 332 334 333 332 328 330 332 329 329 330 328 328 327 326 317 318 314 313 316 316 317 322 325 322
328 327 327 329 328 327 324 326 327 329 328 328 328 328 329 328 327 327 328 329 332 333 332 331 330 330 330 328 328 328 328 325 325 323 316 314 313 316 315 315 322 324 321
326 326 327 328 328 327 329 328 328 327 328 328 328 328 329 329 329 328 328 328 330 332 332 332 331 331 329 329 328 327 326 327 324 320 319 316 314 316 316 318 319 321 320
321 320 323 327 328 328 329 330 327 328 328 328 325 323 326 329 325 327 327 329 330 331 331 330 330 329 329 328 325 323 320 314 312 318 317 317 318 315 314 315 319 318 318
318 319 319 319 324 329 329 329 329 329 329 327 328 328 326 325 325 326 326 326 325 328 328 328 329 329 326 324 323 323 319 317 314 313 316 316 317 317 316 314 317 318 316

GFSSE_850_thetae_081.txt.gz
Theta_e
345 345 342 340 336 334 333 333 331 328 326 332 334 335 334 332 334 336 342 337 327 313 314 318 326 334 338 335 325 317 315 314 314 315 318 318 321 324 327 336 338 337 335
345 345 343 339 338 335 334 334 328 322 326 321 328 334 334 332 334 332 339 334 315 315 323 320 322 327 331 322 318 317 315 314 314 314 314 313 313 313 315 321 330 332 328
344 344 342 340 339 335 334 331 323 331 332 324 325 330 333 330 335 333 338 330 314 330 339 328 321 324 321 319 319 318 315 315 318 321 324 319 317 316 315 314 313 314 315
344 344 343 340 339 335 334 328 329 330 336 318 327 328 330 329 336 338 337 318 316 330 333 320 321 322 321 320 320 319 318 317 323 331 331 330 319 318 318 317 317 316 314
344 343 343 340 338 334 330 324 332 332 338 320 329 329 331 335 334 339 331 314 321 334 321 322 322 322 321 321 319 318 319 319 325 332 333 334 329 323 321 319 319 318 318
344 342 342 340 335 332 329 324 331 332 340 333 331 331 335 337 339 336 318 315 320 321 322 323 323 322 321 320 319 318 318 320 330 333 333 331 323 322 321 320 320 320 320
343 343 343 338 336 333 327 330 330 327 339 339 334 336 340 341 338 327 314 318 320 321 322 322 321 320 319 319 319 319 318 323 331 332 333 332 321 321 321 321 321 321 321
342 342 342 338 336 335 327 335 335 322 335 340 341 341 342 339 329 317 314 319 321 321 321 321 320 319 318 318 319 319 319 320 329 331 333 326 321 322 322 322 322 321 321
342 342 341 338 338 334 329 335 337 319 324 340 342 341 340 338 328 314 315 320 321 320 320 320 319 319 319 318 318 318 319 322 328 328 331 330 322 323 324 324 324 323 323
340 341 341 339 338 333 332 336 338 321 314 340 341 340 340 337 327 314 315 319 320 320 319 318 318 319 318 318 317 318 319 320 326 322 328 324 323 324 325 324 323 322 321
334 337 341 340 339 338 336 338 335 319 312 334 340 339 339 334 321 315 315 316 318 318 318 318 318 318 318 318 317 318 320 322 325 326 326 323 325 326 325 324 324 323 322
324 326 333 336 338 339 335 338 329 318 313 318 337 339 337 329 330 329 317 316 316 317 317 317 318 317 317 318 317 318 323 323 323 325 326 325 327 327 326 325 324 324 326
323 323 323 329 334 337 336 337 335 326 328 331 332 329 333 332 332 332 320 317 317 318 318 318 318 318 318 322 323 322 325 326 327 328 326 326 327 328 327 326 326 325 325
323 322 323 324 326 337 336 336 335 332 330 329 331 331 331 332 330 331 327 320 320 318 322 319 320 322 323 323 324 325 328 329 330 330 330 328 328 327 327 327 327 325 326
323 323 323 324 330 335 333 335 335 335 334 332 329 329 330 331 326 328 328 326 324 322 324 324 325 324 324 326 328 329 331 331 331 331 331 331 328 327 326 326 326 327 326
324 323 325 327 331 335 331 334 336 335 336 334 332 328 329 328 321 325 327 326 322 322 321 324 324 326 327 329 331 332 332 332 331 331 331 330 329 327 326 324 323 324 325
324 324 327 325 329 332 331 332 335 336 336 334 334 332 332 330 323 320 322 320 321 327 325 325 326 329 330 330 331 332 332 332 332 331 330 330 329 329 328 327 325 323 323
324 324 325 325 327 332 329 325 331 334 335 335 335 334 328 326 325 323 326 331 332 331 328 325 327 329 330 331 331 332 332 332 331 330 330 330 329 329 329 328 327 325 324
325 325 325 326 325 330 331 331 324 322 327 331 332 332 334 332 334 332 326 331 333 332 330 328 328 330 330 330 331 332 331 331 329 329 329 329 329 328 328 328 326 321 323
325 325 325 326 326 328 330 330 332 330 328 329 327 332 328 329 331 325 325 332 334 333 330 330 329 329 329 330 330 331 331 329 331 329 328 327 324 317 315 316 323 319 322
325 326 327 327 326 325 328 329 329 331 332 332 332 332 333 332 332 332 333 332 333 333 332 331 330 329 328 330 331 330 328 328 330 329 327 323 322 314 313 317 323 324 323
325 326 327 326 326 326 327 327 327 328 329 330 331 331 329 328 328 329 330 332 333 333 333 332 329 329 329 331 331 330 331 329 328 326 323 319 314 313 313 313 316 324 324
325 326 326 326 326 327 326 326 326 327 327 327 328 328 329 329 330 329 328 328 328 329 330 332 332 329 330 330 329 330 328 328 327 325 324 319 315 314 316 313 314 319 324
321 323 325 327 326 323 324 324 326 327 327 328 328 328 327 328 328 328 329 329 328 328 328 328 327 332 330 329 329 329 329 328 325 323 323 319 317 317 320 316 314 316 320
326 325 325 322 322 323 326 322 323 326 325 324 324 325 325 324 325 325 326 328 327 328 326 326 327 328 331 329 329 328 327 326 323 318 320 318 320 319 319 318 316 317 318
322 321 323 322 326 327 327 328 328 328 327 326 325 323 323 323 324 323 324 323 326 325 324 324 325 327 327 329 329 326 323 322 319 317 315 316 316 318 318 317 315 316 318

GFSSE_850_thetae_084.txt.gz
Theta_e
347 344 335 330 330 330 329 329 330 334 335 334 335 334 332 331 332 336 341 335 317 313 318 335 337 338 338 320 316 315 314 315 319 317 321 321 321 330 336 337 335 331 333
346 344 341 334 333 332 332 332 331 330 332 333 333 334 332 330 335 341 338 332 313 314 319 337 334 335 327 317 316 315 314 314 314 314 313 314 316 318 326 328 329 325 324
345 345 343 340 336 334 332 333 330 322 322 325 331 333 332 333 334 334 337 325 316 321 326 333 335 334 320 318 316 315 316 321 324 325 320 317 316 315 314 314 314 314 315
346 345 342 340 338 335 333 333 325 327 330 324 327 332 331 333 333 333 336 317 337 336 321 322 324 322 320 320 318 316 319 326 331 331 330 321 319 318 318 317 317 317 315
345 344 341 341 340 335 336 329 324 331 334 323 328 331 331 333 336 338 334 320 336 335 320 321 321 321 320 319 319 318 319 326 332 333 332 326 322 321 320 319 319 319 318
346 344 341 341 340 335 335 328 329 330 336 321 331 330 332 333 334 338 327 319 337 322 320 321 321 321 320 319 318 318 320 328 327 330 329 328 320 319 319 319 319 320 320
344 343 341 342 340 334 331 325 331 331 339 325 330 331 332 336 336 337 317 320 322 321 322 326 321 321 320 319 318 318 322 326 330 333 331 322 320 320 320 320 320 320 320
343 342 341 342 338 333 331 325 331 328 339 328 332 332 337 338 339 331 315 318 320 321 322 322 321 319 319 319 319 319 321 326 330 331 329 321 321 321 322 322 322 321 321
341 341 341 342 337 336 332 331 334 327 334 340 333 336 341 340 337 323 320 319 321 322 322 321 320 319 318 318 318 319 321 325 328 327 331 326 322 322 323 323 323 322 321
338 341 341 341 337 337 333 332 338 322 326 340 340 341 341 338 328 316 319 320 321 321 321 320 319 319 318 318 318 319 319 323 323 324 329 325 322 324 324 322 321 321 320
334 337 332 329 337 337 333 332 338 334 316 339 342 340 339 338 328 314 318 320 320 320 320 319 318 318 318 318 317 318 320 323 324 325 324 323 324 326 324 324 323 324 325
331 331 333 328 327 330 330 333 337 333 316 334 341 339 338 336 328 315 317 319 320 320 318 318 318 318 318 317 317 318 323 322 324 324 325 324 325 326 326 325 325 324 325
330 328 325 324 323 324 328 334 336 331 316 316 339 338 337 333 324 317 317 316 317 317 317 317 317 317 317 318 320 318 325 325 326 327 325 325 326 327 327 326 326 325 325
328 327 324 321 323 323 326 325 335 327 314 315 325 337 335 331 331 327 322 317 316 317 318 318 318 317 318 321 322 322 324 326 328 329 329 330 330 326 325 326 325 326 325
327 323 323 323 323 324 325 327 335 328 323 328 330 327 333 332 331 330 323 317 317 318 319 321 320 322 323 321 322 325 328 330 330 330 330 330 330 328 326 324 324 324 326
325 323 324 323 324 326 326 330 334 332 330 328 331 331 332 332 331 330 327 321 321 322 320 322 321 323 324 324 328 329 330 331 331 330 331 329 329 329 327 326 323 321 322
325 323 323 327 326 326 327 333 333 333 333 330 329 330 330 328 323 323 325 323 321 320 319 320 323 325 327 328 329 331 332 331 331 330 330 329 329 329 329 328 326 324 323
327 324 324 326 324 327 330 331 331 331 332 331 328 326 331 329 322 320 320 320 320 322 324 324 324 326 329 330 330 331 331 332 330 331 329 329 329 329 328 327 326 327 324
328 325 324 326 325 327 325 329 330 333 332 331 333 329 330 327 324 324 326 329 332 332 330 327 325 325 328 329 330 330 331 331 330 330 329 329 328 329 328 323 320 320 319
328 326 325 324 325 327 325 323 325 329 333 333 333 335 335 332 332 332 330 328 332 332 332 330 327 327 329 330 329 330 330 330 330 328 329 329 328 327 320 314 315 317 318
328 327 325 325 325 324 328 325 327 325 325 329 327 330 331 332 331 333 328 326 332 332 333 332 330 329 328 328 330 329 329 329 329 328 329 329 326 319 314 313 314 319 319
325 326 326 325 326 323 327 328 329 329 328 328 330 332 331 332 332 332 332 332 332 332 332 332 332 330 329 329 329 331 330 329 328 329 329 328 319 315 313 314 315 318 315
325 326 327 327 326 326 327 327 328 328 329 329 330 330 330 330 329 328 328 328 328 329 330 332 332 331 329 329 329 329 329 329 329 329 327 319 318 315 313 314 315 316 317
323 326 326 327 327 325 326 326 326 327 327 327 327 327 328 328 328 328 328 328 328 328 328 328 328 328 328 329 328 329 329 328 327 325 325 323 319 317 316 315 314 313 316
321 323 322 325 326 323 323 324 325 325 325 326 326 327 327 325 327 326 327 327 326 325 324 324 327 326 327 327 326 325 328 329 327 323 322 320 321 319 318 318 317 316 315
323 325 325 323 321 322 322 323 324 323 324 322 324 324 324 323 325 324 324 324 324 325 324 324 326 324 324 326 326 326 329 328 327 323 322 323 318 316 318 318 317 317 316

GFSSE_850_thetae_087.txt.gz
Theta_e
347 337 332 331 328 328 329 331 333 332 333 334 333 331 330 332 330 341 340 330 313 328 334 337 339 338 318 317 315 315 321 322 322 323 322 322 332 336 335 334 327 329 328
346 340 333 330 328 328 329 330 332 333 332 333 334 332 330 332 330 339 336 326 313 324 336 338 338 328 316 315 314 314 316 314 314 314 315 315 318 321 322 321 317 318 319
345 343 335 331 331 330 330 330 330 331 331 332 333 331 331 331 334 341 335 319 314 321 337 336 334 320 317 315 314 316 320 321 320 318 317 316 316 316 315 315 315 314 316
346 344 340 334 333 333 332 333 331 328 326 331 332 331 330 332 335 339 333 315 317 327 333 332 323 319 318 315 316 323 327 329 327 323 321 319 319 318 318 318 318 317 315
346 345 341 340 336 335 333 333 329 323 325 325 330 331 330 333 334 333 329 333 328 325 325 321 320 320 319 317 318 323 329 331 330 325 322 321 320 319 319 319 319 319 319
345 345 341 342 338 337 334 332 325 330 333 329 329 331 331 335 337 336 325 336 335 320 320 320 320 320 318 318 318 323 328 330 330 327 323 320 318 319 319 319 319 319 320
345 344 342 340 342 337 336 331 325 331 336 320 329 332 331 334 338 339 326 333 332 320 320 321 320 319 318 318 318 323 327 328 329 328 324 320 319 320 320 320 320 320 320
344 344 342 341 340 337 334 332 326 331 339 320 333 331 332 334 337 339 325 333 321 321 325 321 321 319 319 318 318 321 324 326 327 326 324 320 320 321 322 322 321 321 320
339 341 344 342 340 336 333 332 330 329 335 325 331 332 332 336 340 337 322 329 323 321 322 321 320 319 319 319 319 319 323 323 324 325 326 323 322 322 322 321 320 319 319
337 338 341 341 338 336 335 333 334 331 328 338 331 333 335 338 339 335 318 327 322 322 321 320 319 318 318 318 318 319 323 324 324 324 324 322 322 323 323 322 322 323 323
333 334 337 340 339 337 337 335 334 337 321 336 335 333 338 340 338 329 324 327 322 322 321 320 319 318 318 317 317 319 320 322 322 322 322 322 323 324 324 323 324 324 325
329 331 332 335 335 334 332 329 331 335 334 326 340 337 341 339 334 325 321 322 322 321 320 319 318 318 318 317 317 318 321 323 323 323 323 323 324 325 325 325 324 324 324
329 329 328 330 331 325 328 327 326 328 333 325 335 341 339 338 336 318 318 321 320 321 319 318 318 318 317 317 317 318 324 324 323 326 326 325 325 325 325 324 325 325 324
327 327 329 328 324 326 325 323 323 324 330 327 333 338 338 338 333 315 316 319 320 320 318 317 317 317 317 318 319 320 323 324 325 327 328 329 330 329 325 324 323 324 325
325 327 326 323 324 323 322 323 325 326 327 329 325 337 336 337 329 317 316 317 318 317 317 317 318 318 317 319 319 322 324 328 328 329 329 330 328 329 328 325 323 322 322
326 326 324 324 323 323 324 323 326 327 330 328 320 333 335 335 327 321 320 317 316 317 318 318 319 320 321 321 321 324 326 329 331 330 329 329 328 328 328 327 327 324 322
325 326 324 323 324 324 325 326 327 327 332 323 319 325 332 332 331 326 325 318 317 319 319 319 320 321 323 325 326 329 329 330 330 329 329 329 329 329 329 328 327 325 324
326 326 324 323 325 325 326 326 327 333 328 328 331 332 331 332 332 329 324 322 321 321 321 320 321 324 325 327 328 329 331 330 329 329 330 329 328 329 329 328 328 327 323
326 325 325 324 325 326 329 328 327 331 329 329 330 331 331 331 331 327 324 324 322 321 322 323 324 324 326 328 329 330 330 330 330 330 329 329 328 328 328 328 326 318 317
327 325 327 325 324 326 326 329 325 330 331 331 329 329 328 326 323 323 324 326 330 331 331 330 327 324 324 326 327 329 330 331 331 329 329 328 328 328 328 327 317 314 316
326 325 325 325 324 325 326 329 328 328 331 331 330 327 329 328 325 326 329 331 331 332 331 330 330 328 326 328 330 329 329 330 329 329 328 328 328 328 327 316 312 314 315
324 325 325 325 325 326 325 324 325 326 326 330 330 330 330 330 331 332 332 329 329 330 332 332 331 331 330 329 328 329 329 330 329 328 329 328 328 329 324 314 313 313 313
325 325 325 326 326 325 327 325 326 326 326 326 326 327 329 328 328 328 329 328 329 331 331 331 331 332 331 330 329 328 329 330 328 328 327 329 329 326 316 314 313 313 313
324 323 325 326 327 325 324 327 328 329 328 328 327 327 326 327 328 329 328 328 328 328 328 328 328 327 328 329 329 329 328 327 329 326 327 328 323 319 317 316 316 315 314
322 322 325 325 326 327 324 326 327 327 327 327 328 327 327 327 327 327 327 327 327 327 327 327 327 325 324 323 327 328 327 327 327 327 324 323 323 320 319 319 319 319 318
322 322 322 323 324 325 325 323 325 324 325 325 325 325 325 325 324 322 323 325 325 326 325 326 326 327 326 326 327 326 326 326 326 327 325 323 321 322 322 320 317 318 318

GFSSE_850_thetae_090.txt.gz
Theta_e
345 338 333 334 334 332 331 331 332 332 333 332 332 333 333 331 332 335 338 324 318 324 332 339 337 332 327 321 321 328 323 325 322 320 326 332 335 332 332 322 319 325 329
345 335 332 332 332 330 330 331 334 332 332 332 332 330 332 332 331 341 336 316 328 334 339 340 333 316 315 315 316 321 316 317 316 316 316 320 322 319 317 316 315 317 322
345 338 331 331 329 329 330 331 333 334 333 332 333 330 329 332 329 339 334 314 328 336 339 339 323 316 315 314 315 315 316 317 316 316 316 316 316 316 317 316 315 315 315
345 342 333 329 328 328 329 330 330 331 333 332 333 331 330 334 333 340 333 314 325 336 337 335 319 316 315 316 320 322 322 321 320 319 318 318 318 318 318 318 318 317 315
346 343 336 330 330 330 331 331 331 330 329 331 331 332 331 334 335 340 333 315 318 335 338 329 318 317 315 319 323 325 324 324 323 321 320 319 318 318 318 318 318 319 318
346 345 341 335 333 334 333 333 332 326 322 322 330 330 332 333 337 334 328 329 334 334 336 321 319 318 316 319 323 325 324 323 322 322 319 318 318 318 318 318 318 318 319
344 344 342 341 339 336 334 334 328 325 331 329 328 329 333 333 336 334 334 335 330 330 321 332 320 318 318 319 322 325 324 323 322 322 319 319 319 320 320 320 319 319 319
342 344 342 341 340 339 335 336 327 329 333 335 327 330 333 332 337 336 333 336 324 320 320 322 319 318 318 319 321 323 322 324 324 324 320 320 320 321 321 321 319 318 318
340 342 342 340 340 339 335 335 330 331 332 338 319 330 333 333 337 338 334 336 323 321 322 320 320 319 318 318 320 322 321 321 321 323 322 320 320 321 321 320 319 320 321
335 337 339 340 339 338 334 334 331 332 330 335 326 333 332 334 337 338 334 333 332 335 333 321 320 319 319 319 319 322 323 321 321 322 321 320 321 322 322 321 321 323 324
333 334 337 338 340 338 332 333 331 334 328 329 334 332 333 334 337 339 333 328 332 333 325 321 319 318 318 318 319 320 322 321 320 321 321 322 322 324 323 323 323 323 324
330 331 331 332 334 338 334 333 329 335 334 327 331 333 333 333 338 338 332 328 328 321 322 321 319 318 318 317 318 319 321 322 321 321 321 322 323 324 324 323 323 323 324
328 330 332 332 333 334 334 334 332 329 331 328 330 334 334 334 339 339 329 329 322 322 321 321 319 318 318 317 317 318 321 322 322 323 325 324 325 328 325 322 323 323 324
327 327 327 327 329 329 327 328 328 329 330 327 327 333 337 337 339 337 327 323 321 321 320 319 318 318 318 317 317 318 322 323 324 325 327 328 329 329 327 325 322 322 323
327 326 326 327 327 327 324 323 321 321 323 329 325 329 331 337 339 336 326 318 320 320 320 318 318 317 317 318 319 319 321 324 326 326 328 329 328 327 328 326 324 322 321
322 323 325 326 325 324 324 322 322 322 325 326 324 326 332 328 336 337 325 319 320 320 319 318 317 317 317 317 318 320 322 326 329 329 329 328 328 328 328 328 327 326 323
322 324 326 325 325 324 324 323 324 324 324 325 324 326 329 331 333 332 319 318 319 320 318 317 318 319 320 321 320 321 324 325 329 330 329 328 329 328 328 329 328 327 326
322 322 321 325 325 324 324 324 325 326 326 323 328 329 329 329 332 330 322 320 317 316 317 318 321 321 321 322 324 326 328 329 329 329 329 329 329 327 327 328 328 328 326
323 324 324 325 325 324 325 327 326 326 330 328 332 331 329 325 333 332 328 325 319 317 319 319 321 321 322 324 326 327 329 330 330 330 330 329 329 327 328 328 328 327 322
322 325 325 324 325 324 325 326 327 326 328 328 328 325 322 323 327 331 330 327 321 322 322 321 321 322 323 325 327 329 329 330 330 330 330 328 328 327 327 328 328 325 313
321 324 324 325 326 325 324 325 326 328 327 328 328 325 328 328 330 331 331 327 324 323 321 322 325 324 324 324 326 327 328 330 330 331 330 329 328 327 328 328 327 316 312
322 324 325 325 325 325 325 325 325 327 328 328 328 324 322 321 328 330 329 326 326 325 328 329 329 328 326 325 327 329 329 329 330 330 329 328 327 327 328 327 328 314 313
322 325 328 327 325 325 325 325 326 327 329 331 331 328 328 327 327 326 324 324 329 330 330 329 330 330 330 329 328 328 328 328 328 328 329 328 328 328 328 328 324 313 313
324 323 324 325 326 326 326 325 325 326 327 327 330 327 325 323 324 325 325 327 330 329 329 328 330 329 329 328 328 328 328 327 328 327 327 328 328 326 325 322 315 315 317
322 323 324 325 325 326 323 325 326 325 327 325 326 327 326 328 327 327 327 327 327 328 328 328 328 328 327 326 326 325 326 328 328 328 328 326 326 326 321 319 318 319 318
321 323 323 323 324 324 326 324 325 326 327 327 327 327 325 324 326 327 326 326 326 327 326 326 326 326 326 326 325 326 328 328 327 327 327 326 326 325 323 319 320 321 321

GFSSE_850_thetae_093.txt.gz
Theta_e
344 340 344 336 339 336 335 334 331 331 330 328 328 332 333 333 336 337 337 328 316 320 335 337 335 332 330 329 328 330 327 321 324 331 333 332 330 329 321 319 326 330 334
345 342 342 337 338 336 334 332 331 332 332 331 330 332 333 331 331 333 336 320 321 331 337 337 330 326 318 320 320 319 320 318 317 318 322 322 318 316 316 315 316 320 323
344 338 338 336 336 336 335 334 332 332 332 331 331 331 332 331 332 339 333 318 333 338 340 336 317 316 315 317 319 315 315 315 315 316 316 316 316 317 317 316 316 315 314
344 336 332 332 334 333 334 336 334 334 333 332 331 329 329 331 330 340 331 320 335 337 338 331 315 315 315 316 316 318 318 318 317 317 318 318 318 317 317 317 317 317 316
344 339 332 331 330 329 330 332 332 333 333 333 332 331 330 334 332 334 331 319 335 336 338 326 316 315 315 318 321 322 322 322 320 320 319 317 317 317 317 317 318 318 318
345 342 335 330 328 329 329 330 330 330 330 331 331 332 331 334 337 339 332 316 331 336 335 324 316 315 317 320 321 322 322 321 320 319 318 318 318 318 318 318 318 318 318
343 343 337 330 330 331 332 332 332 330 325 323 326 330 332 332 336 340 332 318 319 336 335 319 318 316 318 320 320 321 321 321 320 318 318 319 319 320 320 319 319 318 318
343 344 340 338 335 334 334 334 332 326 328 329 326 328 329 332 334 337 332 333 334 333 336 319 319 317 318 320 320 320 321 321 320 319 319 319 320 320 320 319 318 318 318
339 342 342 341 340 339 336 337 332 329 333 335 333 329 330 334 333 336 335 335 333 333 329 328 319 318 318 319 320 320 320 321 321 321 319 319 320 321 320 320 320 321 322
335 337 339 341 340 340 337 336 332 330 332 333 338 323 331 334 333 337 334 336 328 324 329 332 319 318 318 318 320 320 320 320 320 321 320 319 321 322 321 321 321 323 324
333 332 335 335 338 338 337 334 332 329 330 331 334 326 332 334 334 337 336 335 321 328 324 323 320 319 318 318 320 320 320 320 320 320 320 320 321 322 322 322 322 323 323
333 333 333 334 335 336 335 333 332 327 329 329 335 331 333 333 334 337 337 336 321 333 334 326 320 319 319 318 319 320 321 321 320 321 321 321 322 323 324 322 322 323 323
334 334 334 333 331 332 332 334 332 329 332 329 327 329 333 334 334 336 337 337 330 334 334 329 320 318 318 317 318 319 320 321 322 321 322 323 325 328 325 323 322 322 323
329 331 331 332 332 332 332 333 333 332 331 330 328 327 326 333 334 335 337 338 331 333 329 324 320 318 318 317 317 317 319 321 322 323 326 327 328 328 327 325 323 321 321
328 326 325 327 326 327 329 328 328 328 325 324 328 327 328 328 334 335 338 337 329 331 326 324 320 318 318 317 317 317 319 321 323 324 326 328 328 327 327 327 325 324 322
324 325 325 325 323 324 325 326 324 323 323 322 326 325 322 326 329 337 336 337 331 323 324 322 320 318 318 317 318 318 319 321 324 326 328 328 327 328 327 328 327 326 325
319 321 323 323 325 325 325 324 324 323 323 322 322 323 324 327 325 330 333 334 322 319 326 321 319 318 317 317 318 319 320 321 325 329 329 328 328 328 327 328 328 328 326
316 320 323 323 324 325 325 323 324 324 324 324 324 323 325 324 326 326 330 334 328 329 326 322 318 317 317 317 318 320 320 322 324 327 330 329 329 328 327 327 327 328 327
318 321 323 323 323 324 325 324 324 324 326 325 326 326 325 324 325 326 329 331 322 318 326 323 317 317 318 319 321 323 324 326 327 329 329 329 329 329 327 327 327 328 327
319 322 325 325 324 325 325 323 324 324 325 326 325 327 327 325 326 329 330 327 323 324 321 321 318 319 321 320 321 323 326 327 329 329 330 330 330 328 328 327 327 327 327
322 323 323 324 323 324 325 324 324 325 325 327 326 326 331 331 331 330 329 330 325 324 322 318 320 323 322 322 324 325 328 328 329 329 330 330 330 329 328 327 327 328 327
321 321 321 323 323 325 325 325 324 324 324 326 327 327 329 329 329 328 328 328 328 319 320 322 324 323 322 323 324 326 327 327 328 329 329 330 330 329 328 327 327 328 327
321 321 321 321 322 324 325 325 325 325 326 325 327 327 326 324 324 325 324 327 329 324 324 325 324 323 323 324 324 326 328 328 327 327 329 330 329 328 327 327 328 327 327
320 319 320 323 325 325 324 325 325 325 325 326 326 329 327 325 326 323 324 326 327 328 326 324 324 328 328 328 325 326 328 328 327 328 328 327 327 328 328 328 328 327 325
321 321 322 323 322 324 323 324 324 324 326 326 326 329 328 324 322 324 322 323 324 325 326 323 325 326 327 328 328 327 327 328 327 327 327 327 327 327 327 327 327 327 322
320 322 322 323 323 324 324 324 324 325 326 326 326 327 328 327 324 326 325 326 325 324 324 324 325 326 327 327 327 327 326 325 325 325 327 327 327 327 326 325 325 323 318

GFSSE_850_thetae_096.txt.gz
Theta_e
344 339 341 337 336 335 336 334 333 333 333 333 335 336 338 338 338 338 336 326 314 326 337 340 337 336 338 333 331 328 326 328 335 335 333 331 325 319 321 326 330 334 334
344 341 344 335 339 336 335 335 334 331 331 329 329 331 332 333 334 335 335 321 318 331 339 339 332 331 327 320 323 322 320 320 322 324 322 318 317 316 315 316 317 320 323
344 343 343 335 341 338 335 335 332 332 331 330 328 329 331 331 331 332 335 320 323 336 339 333 321 317 320 318 317 318 316 316 316 317 316 316 317 317 316 316 316 315 314
344 340 341 335 338 337 335 334 333 333 333 332 330 331 332 331 330 336 332 325 333 338 338 324 316 315 316 318 315 316 317 317 317 317 317 317 317 316 316 317 317 316 316
343 337 337 335 335 335 334 335 334 332 333 333 331 330 331 332 330 338 332 329 334 339 337 321 315 315 316 316 318 319 319 319 318 318 317 317 316 317 317 316 317 317 318
343 339 335 333 333 333 331 332 332 333 332 332 332 332 332 334 334 331 334 326 334 337 338 321 316 315 316 319 320 321 321 319 318 317 317 317 318 318 318 317 317 317 317
344 341 336 333 332 330 330 330 330 330 330 330 331 331 333 331 336 339 333 321 333 337 336 325 316 315 318 320 320 321 320 319 318 318 318 318 319 319 319 318 318 317 317
342 342 338 335 331 329 330 331 331 331 329 327 329 329 330 332 333 337 337 321 332 333 334 325 316 316 318 319 320 320 319 319 318 318 318 318 319 320 319 318 317 318 319
336 339 340 335 333 332 333 333 334 333 328 326 326 329 330 330 333 334 336 328 324 326 333 320 318 317 318 319 319 319 319 320 319 318 318 319 320 320 319 319 320 321 322
335 334 340 340 339 336 335 335 335 332 329 331 333 331 330 332 334 334 336 335 336 335 334 326 319 318 318 318 319 319 320 320 320 320 319 319 320 321 320 320 321 322 322
335 334 333 334 336 337 338 337 336 333 328 330 332 337 329 330 333 334 336 335 336 332 333 334 321 318 318 318 319 320 320 320 320 320 319 319 321 322 322 322 321 322 323
334 334 334 333 334 333 335 335 336 334 328 328 330 333 321 328 333 334 336 335 335 331 325 334 329 318 318 318 319 320 321 321 320 320 319 320 321 322 323 321 321 322 322
332 334 334 335 334 333 333 332 335 333 330 328 328 334 330 332 333 334 336 335 335 333 332 331 331 321 318 318 319 319 320 321 320 321 320 321 322 326 324 322 320 321 322
326 330 333 332 330 331 332 332 333 333 331 329 329 328 328 328 328 333 335 335 335 335 330 334 329 321 319 318 318 318 319 320 321 322 323 324 325 327 326 325 323 321 320
323 328 329 329 328 327 329 331 331 332 332 328 331 330 325 328 327 327 332 334 335 334 331 334 333 323 319 318 317 317 317 319 320 322 324 326 327 327 326 326 325 324 323
320 327 328 327 326 326 326 326 326 329 328 329 327 324 324 328 327 327 327 331 334 334 334 331 331 327 320 318 317 317 317 317 320 322 323 325 327 326 327 327 327 326 325
313 318 322 326 327 326 324 324 325 326 324 323 323 322 321 327 327 326 325 326 330 335 334 329 330 327 323 318 318 317 317 317 320 322 325 327 327 327 327 327 327 327 327
311 313 315 318 322 323 325 325 325 324 323 323 324 324 323 321 323 324 327 328 327 327 334 329 325 327 323 319 318 317 318 319 320 321 327 328 328 328 327 327 327 326 327
311 313 316 319 322 323 323 324 324 323 323 324 324 325 324 323 323 322 325 328 330 328 330 324 321 324 323 319 317 317 319 319 320 322 324 328 328 328 329 328 327 327 327
310 312 316 320 323 324 324 324 324 324 323 323 324 325 326 325 326 327 324 326 330 330 330 325 322 321 320 319 318 317 320 321 322 324 326 328 329 329 329 329 327 327 327
310 314 319 321 324 323 324 324 324 324 324 324 324 324 326 326 326 327 327 326 328 330 331 327 323 325 324 319 320 323 323 323 325 327 328 328 329 330 330 329 328 327 327
316 322 321 322 322 323 324 324 325 325 325 324 324 324 324 327 326 328 328 326 330 327 326 323 321 320 320 319 324 325 323 323 325 326 328 329 329 330 330 330 328 327 327
318 319 320 321 322 321 322 324 325 325 324 324 324 324 325 326 326 325 330 330 330 328 324 319 319 323 321 319 325 324 325 326 326 326 327 328 328 329 329 329 328 327 327
319 319 320 320 319 319 320 321 324 324 324 325 323 323 325 326 326 327 327 329 330 329 323 322 319 317 320 321 324 324 324 327 327 326 326 325 327 329 329 329 328 327 327
319 320 320 322 321 321 321 323 323 324 322 323 324 325 323 325 326 326 327 325 323 324 326 325 317 317 321 325 324 324 324 325 327 327 327 327 327 327 326 326 327 328 327
316 318 319 319 321 323 324 323 324 323 324 324 325 326 326 328 328 327 325 324 325 324 325 325 324 323 322 323 324 325 326 325 326 327 327 326 325 325 326 326 326 327 327

GFSSE_850_thetae_099.txt.gz
Theta_e
344 342 338 335 334 337 333 333 337 339 340 340 340 340 340 339 338 338 336 324 318 334 340 338 337 340 338 337 330 329 331 337 335 334 330 322 318 322 327 333 335 336 334
345 341 339 337 335 336 337 333 333 333 333 334 336 337 339 338 337 335 334 320 319 334 338 338 338 338 337 328 324 321 326 329 329 324 318 317 316 316 318 318 321 323 329
344 342 344 336 336 335 336 335 334 333 331 330 329 329 336 337 332 332 333 320 321 334 336 339 329 334 319 319 320 318 318 318 318 317 316 316 316 316 316 316 315 315 318
344 344 343 337 339 338 339 335 334 331 331 330 329 328 330 336 330 331 334 321 327 337 337 330 318 319 318 317 317 316 316 316 316 316 317 317 316 316 316 316 316 316 315
343 342 342 339 339 339 336 334 333 332 332 331 330 330 333 336 330 335 333 324 333 338 337 323 316 315 317 316 316 317 317 317 317 317 317 316 316 316 316 316 317 317 317
343 341 338 338 337 337 336 334 333 333 332 332 332 331 333 336 331 333 334 333 334 335 338 326 315 315 317 317 318 319 319 318 318 317 317 317 317 317 317 317 317 317 317
344 341 339 338 336 335 335 334 334 334 333 332 333 333 333 334 334 333 335 332 333 336 338 330 316 315 317 319 320 320 319 318 317 317 318 318 318 318 318 317 317 317 316
340 341 339 339 339 334 332 332 332 331 332 332 332 332 331 332 333 336 335 330 332 335 336 335 317 316 318 320 320 319 319 318 317 318 318 318 318 319 318 317 318 319 320
335 337 340 338 336 333 331 330 331 331 331 330 331 331 328 331 333 334 337 331 329 332 334 333 319 316 318 319 320 319 319 319 318 318 318 318 319 319 319 319 320 321 322
336 336 336 340 337 333 331 332 333 333 333 331 326 325 329 330 332 334 335 336 329 329 330 331 320 316 318 319 319 319 319 319 319 318 318 318 319 320 320 320 321 322 321
335 336 335 337 338 338 338 335 335 335 335 331 329 331 332 329 331 332 335 336 332 332 332 333 321 317 318 319 320 320 319 319 319 319 318 318 320 321 321 321 320 322 322
325 334 335 334 336 335 335 335 335 335 336 332 327 330 334 336 329 331 334 335 335 335 334 332 332 322 318 318 320 321 320 320 319 320 319 319 320 321 322 321 320 321 321
317 327 332 334 334 334 334 333 334 333 335 332 329 328 333 326 323 329 333 335 336 335 335 332 333 332 320 318 319 320 321 321 321 320 320 320 320 322 325 322 320 320 322
313 322 330 333 334 335 334 334 332 332 334 332 328 327 328 328 328 330 331 333 335 333 333 334 330 332 327 318 318 320 321 321 321 321 321 321 322 325 325 324 322 321 320
311 315 324 329 332 332 331 332 332 331 332 332 331 328 329 329 328 327 328 331 331 333 333 334 331 330 329 324 319 319 319 320 321 321 321 323 324 326 326 327 326 323 323
308 310 320 328 329 329 330 330 329 331 332 332 330 330 331 330 329 328 328 329 332 332 333 334 334 331 333 326 321 319 318 318 319 321 322 323 325 327 325 326 328 326 326
306 310 312 326 328 327 326 326 326 328 331 332 331 329 325 323 322 323 327 327 328 333 333 333 334 333 332 332 324 319 318 317 317 319 321 322 324 327 326 327 327 327 327
305 308 311 313 316 323 326 326 325 325 325 326 325 323 323 324 324 322 322 327 326 328 333 334 333 334 330 324 327 321 318 317 316 317 320 322 324 327 327 327 327 326 326
306 306 310 311 313 316 318 323 325 325 325 324 323 323 323 324 324 325 323 322 325 326 328 329 333 334 328 325 328 323 319 318 317 318 320 321 326 328 328 327 327 327 326
305 305 307 310 311 317 320 324 324 324 324 324 323 323 323 324 324 325 324 324 324 325 326 330 329 329 329 325 324 320 319 318 317 320 321 321 323 328 328 328 329 327 327
308 306 307 311 313 319 323 324 324 322 323 323 324 324 323 324 324 324 326 325 325 327 326 328 329 330 331 324 320 318 320 319 318 318 320 321 323 325 328 329 329 329 327
310 308 311 315 319 322 323 323 323 323 323 323 324 324 324 324 325 325 326 326 327 327 327 325 327 329 329 322 320 321 321 320 318 320 322 324 326 327 329 329 329 329 328
317 320 319 320 321 321 322 321 321 322 323 324 324 323 323 323 324 325 325 327 326 330 329 326 327 329 328 323 322 324 322 324 323 322 321 323 325 327 328 329 330 329 329
318 318 318 319 320 320 320 320 320 321 326 324 323 322 323 322 324 324 325 327 327 329 329 327 327 328 325 322 323 322 318 323 325 323 323 323 324 326 328 328 328 329 329
316 317 318 318 319 318 320 321 322 323 323 322 323 325 325 325 325 324 324 326 326 327 327 325 325 323 323 322 322 320 320 320 323 325 326 326 326 325 326 327 328 328 327
315 316 318 319 319 319 320 321 321 323 322 323 322 322 322 324 324 325 325 326 326 327 326 326 323 322 321 320 320 318 319 321 322 323 325 326 326 326 326 326 327 326 326

GFSSE_850_thetae_102.txt.gz
Theta_e
346 347 344 340 337 337 338 339 341 341 341 341 341 341 341 340 339 338 335 321 323 336 337 336 337 339 338 335 329 331 338 338 336 334 323 320 325 328 332 337 338 336 335
347 346 344 337 336 336 333 335 336 338 339 339 338 340 340 339 338 337 335 320 323 337 340 337 339 338 338 334 328 327 335 334 333 325 320 317 317 321 325 328 330 330 335
345 345 345 338 336 337 336 332 332 333 333 333 334 339 339 339 337 335 333 319 326 337 338 338 338 338 331 325 320 323 326 326 323 319 316 328 316 316 316 316 317 320 322
344 344 345 338 338 336 335 337 333 333 332 330 328 331 336 336 335 332 331 322 326 336 337 334 333 328 319 321 320 318 319 317 317 316 328 329 323 316 316 316 316 315 315
344 345 344 342 338 338 337 337 335 333 330 330 331 329 331 339 331 331 333 323 327 336 338 334 321 317 318 318 318 316 316 316 317 318 324 330 330 316 316 316 317 317 316
344 345 343 342 339 341 340 337 335 332 331 331 331 330 333 337 333 337 337 325 333 336 338 335 317 316 318 316 316 317 317 318 317 323 321 317 330 317 317 317 317 317 317
343 344 342 341 338 339 339 337 335 334 333 332 332 334 334 334 335 332 337 335 334 336 338 336 316 315 318 317 319 320 319 318 319 319 328 323 324 318 317 317 317 317 316
340 343 341 339 339 337 337 336 335 335 335 334 334 333 333 333 333 334 335 334 334 334 337 337 319 315 316 319 321 321 319 318 318 320 321 329 320 318 318 317 318 318 319
336 339 341 340 339 338 336 334 333 333 333 334 333 333 332 332 333 334 336 335 332 333 335 336 332 315 316 320 321 321 320 319 326 327 323 328 319 319 318 318 320 321 321
335 335 336 339 339 338 335 331 330 330 330 330 331 330 329 330 330 333 334 337 334 332 333 333 332 322 316 320 322 321 321 320 327 319 323 329 319 319 319 319 320 322 321
326 335 336 336 338 339 337 333 332 332 333 334 333 328 328 328 335 331 332 335 336 333 331 331 330 326 316 320 322 322 322 324 329 327 327 320 319 320 320 320 320 321 322
316 323 333 335 336 338 337 337 337 336 336 335 334 329 330 332 337 336 336 333 334 334 331 334 333 327 318 326 326 323 322 329 330 329 328 318 319 321 321 322 320 321 322
312 315 319 331 335 336 336 336 335 334 333 334 335 329 330 332 330 328 335 332 333 335 334 334 333 333 329 327 330 329 328 330 330 329 327 320 319 321 327 323 320 321 321
309 312 314 322 331 334 335 335 335 334 333 332 334 331 327 330 330 330 334 337 336 336 335 335 336 335 333 331 328 329 328 327 328 329 328 320 320 321 326 324 321 320 319
306 309 312 315 325 332 334 335 334 334 333 334 332 329 327 328 327 328 329 336 336 336 336 333 333 335 334 335 330 325 324 326 326 326 327 322 321 322 325 325 326 323 321
305 306 309 312 324 329 333 333 333 333 332 332 332 330 328 328 330 331 330 328 330 337 336 334 334 335 333 333 332 330 323 320 323 323 325 324 322 323 325 326 329 327 325
309 306 306 311 318 328 330 331 331 332 332 332 332 331 331 331 330 329 324 324 326 328 335 335 334 334 334 332 331 329 323 320 319 320 320 322 323 324 326 326 325 328 328
309 309 306 307 313 323 328 328 329 329 330 330 331 331 332 330 328 323 323 324 323 329 328 331 332 333 334 334 333 332 328 323 321 319 319 320 321 322 323 326 326 327 327
308 309 307 306 308 312 318 322 326 327 327 325 325 326 327 325 323 323 324 325 326 324 324 328 329 332 333 334 334 330 325 326 320 320 320 319 319 321 323 325 326 327 327
312 310 308 306 306 310 311 313 316 320 324 325 325 324 324 323 323 323 324 325 327 328 328 327 334 333 332 332 333 333 327 321 325 319 318 319 321 322 322 326 327 327 327
314 313 310 306 307 309 311 314 318 322 323 323 323 323 323 324 324 323 324 324 325 327 328 328 328 326 330 331 332 331 326 324 329 320 318 317 318 320 321 322 328 328 328
316 317 314 312 308 313 315 321 323 324 323 323 322 322 322 323 323 324 324 324 324 327 328 328 327 328 327 331 330 329 328 326 325 320 319 319 318 318 320 321 323 327 328
315 316 315 319 322 322 324 324 323 322 321 320 321 321 321 322 323 323 323 323 324 326 327 328 327 327 327 328 329 328 325 323 323 321 319 318 319 318 320 322 324 327 329
314 315 316 319 320 320 320 320 320 320 322 321 319 322 323 323 325 324 323 323 324 326 327 327 327 328 329 328 327 328 326 323 322 322 322 320 321 322 321 322 325 327 328
313 313 315 317 318 319 319 319 319 321 321 321 322 322 323 322 323 326 325 325 326 326 327 327 326 329 328 327 327 326 325 322 323 323 323 322 321 320 322 323 322 326 327
312 315 316 317 318 319 319 319 320 321 323 323 322 322 322 322 323 325 327 325 325 326 326 326 326 327 327 326 326 325 324 323 322 321 320 322 322 323 323 323 324 325 325

GFSSE_850_thetae_105.txt.gz
Theta_e
346 346 346 344 344 339 341 341 342 341 341 341 342 342 341 340 339 337 333 319 324 333 335 333 338 339 336 336 323 337 339 338 337 326 322 330 333 330 337 338 338 336 337
346 348 346 342 338 338 339 340 341 340 340 340 341 340 340 339 338 337 334 323 325 337 338 335 340 338 337 335 324 338 338 335 330 323 319 318 323 329 334 336 337 336 336
345 347 347 341 337 336 335 337 337 338 338 337 341 341 340 339 337 336 334 324 325 338 339 337 339 338 337 328 324 332 334 332 324 318 319 331 316 318 318 319 321 326 328
343 346 346 344 337 337 337 333 333 333 333 333 335 340 340 336 337 335 333 324 328 337 338 337 337 336 334 322 319 321 323 321 320 317 329 330 328 316 316 315 315 317 317
343 346 347 346 340 337 337 337 335 333 333 331 330 330 333 336 337 331 331 327 325 335 337 336 330 326 319 320 320 318 318 317 316 324 330 331 331 316 316 316 316 316 316
344 346 344 344 343 338 339 337 337 335 333 331 331 332 331 337 338 335 335 332 325 335 337 337 322 318 319 318 318 316 316 316 317 330 331 328 332 317 316 317 317 317 317
341 344 345 342 342 339 341 340 338 336 333 334 333 334 336 334 336 334 336 336 326 335 337 338 326 316 317 316 316 317 318 318 323 329 331 330 329 317 317 317 317 317 316
337 343 345 342 340 339 339 338 337 336 335 334 333 333 333 333 333 335 334 336 334 334 336 337 332 315 317 316 318 320 320 318 321 329 331 332 328 318 317 317 317 318 318
335 337 342 342 341 338 337 336 336 335 334 334 333 333 332 332 332 332 334 336 335 334 333 336 337 321 315 317 320 321 320 319 324 329 330 332 322 319 318 318 319 320 320
324 333 336 340 342 341 340 337 335 333 332 332 331 332 332 332 331 330 332 334 336 333 334 335 335 334 317 316 321 321 321 320 320 329 329 330 329 318 319 319 319 321 321
314 323 332 336 339 340 340 340 333 331 331 331 332 332 331 328 326 330 330 333 334 336 334 333 333 331 329 317 320 321 321 320 322 329 328 328 322 319 319 319 319 321 321
312 314 320 330 336 338 340 340 339 337 334 334 335 335 333 332 337 338 338 336 333 334 335 333 331 331 331 318 318 321 321 321 330 330 329 328 319 318 319 321 319 319 321
310 310 313 319 328 335 340 338 338 339 337 335 335 335 332 336 336 338 339 337 335 334 335 333 332 334 333 323 330 329 321 324 330 330 330 328 319 318 323 321 321 319 320
309 307 310 313 318 329 334 339 337 336 335 333 332 335 331 330 331 335 337 336 336 335 335 336 335 335 334 333 328 330 331 329 330 330 330 329 321 319 319 327 325 320 319
310 309 307 309 314 318 329 333 338 336 336 334 330 329 332 329 330 329 332 335 336 335 336 336 336 335 335 335 334 328 330 329 328 328 329 329 327 320 320 322 327 322 321
310 310 310 310 309 313 321 330 333 336 334 334 334 333 332 328 328 328 328 329 330 336 337 335 335 335 335 335 334 333 328 328 328 327 327 327 326 322 321 322 324 328 326
311 311 311 312 310 310 315 327 333 334 335 332 334 334 333 331 330 329 331 331 330 328 330 335 335 335 334 335 335 335 333 329 325 325 325 325 325 323 321 323 325 325 328
312 312 312 312 312 311 314 323 330 333 335 334 333 332 333 332 331 330 330 330 329 331 332 332 330 334 333 333 333 334 333 331 327 324 321 321 323 324 322 322 324 326 325
317 315 313 312 311 311 313 321 329 334 334 332 331 332 332 331 330 329 328 328 328 330 329 330 330 331 331 331 332 333 333 333 332 328 321 320 320 321 322 322 322 325 325
318 318 318 315 312 310 312 317 324 328 331 329 330 329 329 328 328 327 328 328 328 329 329 328 329 329 330 329 330 332 331 332 332 331 326 322 320 320 319 318 321 322 325
316 317 319 315 313 311 310 316 320 323 325 328 328 326 326 326 326 327 327 327 328 328 328 328 329 330 329 328 329 330 328 332 331 331 329 326 320 319 321 318 318 319 324
314 314 313 318 316 312 312 320 321 324 326 328 328 325 324 323 322 325 326 326 326 326 328 328 327 328 329 329 329 328 329 327 330 328 331 326 320 322 319 320 318 319 319
313 313 314 315 316 317 317 320 322 326 325 326 324 322 322 322 323 324 323 324 326 326 326 326 327 327 328 329 328 328 328 328 328 328 327 327 323 324 321 318 318 319 319
313 313 314 314 315 316 320 320 322 323 324 325 325 325 324 325 323 323 326 326 326 325 326 326 326 327 328 328 328 327 327 328 326 326 327 326 324 323 322 318 319 319 319
310 310 311 311 313 315 317 318 319 320 324 323 323 322 322 322 322 321 321 322 324 326 325 325 326 327 327 328 327 328 328 328 328 324 324 324 324 322 321 319 320 319 319
308 308 309 311 313 315 317 317 317 318 320 321 320 321 322 322 322 320 322 323 323 324 326 326 326 326 328 327 326 328 328 327 326 325 323 324 324 323 323 321 321 322 324

GFSSE_850_thetae_108.txt.gz
Theta_e
345 344 345 344 342 340 341 341 342 341 340 341 341 341 340 339 338 336 332 322 323 333 333 335 338 335 334 319 333 339 338 337 326 320 328 332 330 333 337 338 337 337 336
345 345 345 343 341 338 339 341 341 340 340 340 340 340 340 339 337 336 333 323 324 336 335 340 339 337 337 326 334 337 337 333 324 320 318 320 324 332 336 337 336 336 336
345 345 345 346 339 337 337 339 340 339 339 339 339 341 339 339 336 336 333 327 324 337 339 338 340 337 336 327 323 333 333 330 322 317 325 322 317 320 321 321 322 327 331
344 346 348 345 341 337 335 337 337 337 337 336 337 336 337 336 336 336 333 328 325 338 339 336 337 337 334 323 319 324 325 323 319 328 330 330 319 316 316 315 315 319 318
342 344 345 345 345 338 338 336 333 334 334 333 336 335 333 335 337 336 332 329 323 336 338 336 334 331 325 319 319 318 318 318 317 328 331 330 329 316 315 315 315 315 316
342 344 344 345 345 342 338 337 336 336 334 333 331 331 330 332 337 337 332 331 323 332 337 337 334 321 320 318 318 317 316 316 318 329 331 332 331 323 316 316 317 317 316
339 344 344 344 343 342 338 339 338 338 335 332 331 332 332 331 335 335 334 336 332 328 335 337 337 319 318 318 317 316 317 317 321 327 330 328 330 320 317 316 316 316 316
335 341 343 344 341 341 339 340 340 338 336 333 333 332 332 333 332 333 333 333 335 329 335 336 336 326 316 317 316 318 319 318 319 328 331 330 331 323 317 317 316 317 318
324 334 341 343 343 340 339 337 337 337 336 335 334 333 333 332 332 332 331 333 334 334 334 334 335 335 317 316 316 318 320 319 319 327 328 327 326 320 318 317 318 319 320
314 322 332 339 341 341 341 339 337 335 335 334 333 333 333 333 333 332 330 330 333 334 334 333 333 335 333 316 316 319 320 319 318 327 329 330 329 325 317 318 318 319 320
312 313 319 330 336 340 339 339 340 337 334 332 331 331 331 331 331 329 329 329 330 333 334 333 333 334 332 329 317 318 320 319 319 325 328 325 327 324 317 317 318 318 319
309 310 311 315 327 333 338 338 338 339 333 331 331 333 334 334 331 330 336 336 336 332 333 334 334 333 331 330 327 317 319 319 319 322 329 327 327 323 317 318 319 317 318
309 308 307 309 313 321 330 335 337 337 338 337 337 337 337 336 337 336 337 337 337 336 333 334 334 333 331 332 330 319 318 319 320 325 330 329 327 324 318 317 319 319 317
308 309 308 307 307 311 317 327 334 336 336 337 336 336 335 334 335 337 336 337 335 335 333 332 334 333 332 333 332 327 328 329 321 326 331 330 328 325 318 320 324 323 319
310 310 310 310 309 307 311 315 326 332 336 335 334 334 331 334 331 330 336 337 336 337 336 335 335 334 335 334 334 329 329 331 330 327 331 330 330 328 321 319 325 328 322
311 311 310 310 310 311 309 315 316 328 334 334 335 333 331 331 332 329 330 331 335 337 337 335 334 334 334 333 334 334 333 329 330 329 328 329 329 328 325 320 320 322 327
315 313 312 312 312 312 311 311 318 318 331 334 332 334 334 332 332 328 328 327 327 330 330 330 334 333 334 333 333 334 335 332 329 329 328 327 326 326 324 321 320 321 322
318 318 318 315 313 312 312 310 313 318 333 332 332 332 332 332 332 332 331 329 328 329 329 327 326 330 332 334 334 333 334 335 332 332 328 327 326 325 323 320 319 320 322
316 316 318 318 318 314 311 310 312 318 325 331 330 331 331 331 332 331 331 330 329 328 328 325 325 328 330 329 329 330 330 332 332 333 331 327 324 322 321 320 318 318 320
314 314 313 317 318 316 313 311 309 316 324 329 328 330 330 330 331 331 328 328 327 327 327 327 327 324 325 326 328 329 329 329 330 332 332 331 331 322 321 320 320 319 318
313 313 313 313 314 318 314 312 311 314 321 325 328 328 328 327 326 326 328 327 327 327 327 327 327 328 325 324 327 328 329 329 328 327 328 330 331 327 324 321 319 319 319
312 313 313 312 312 316 317 313 310 316 320 322 324 326 327 326 325 326 327 326 326 325 325 325 325 325 326 327 327 329 328 328 327 329 329 328 330 330 329 322 321 319 318
310 312 313 312 313 313 314 315 315 317 317 320 322 324 325 325 323 323 322 323 322 324 324 324 325 326 326 326 327 328 328 327 327 327 326 326 326 329 329 329 326 320 319
309 311 312 312 312 314 314 313 316 319 319 319 321 323 324 323 323 324 323 323 323 322 323 323 324 325 325 326 326 327 327 327 327 327 327 327 327 327 327 327 328 322 321
308 310 311 312 312 313 314 315 315 318 319 320 321 320 321 321 321 321 321 321 321 321 322 322 322 323 325 326 325 326 327 326 326 328 326 326 327 327 327 326 325 324 323
307 308 309 310 310 309 311 315 315 317 317 317 317 319 318 319 319 320 320 319 320 320 320 318 321 323 323 324 326 326 326 327 325 327 328 327 325 326 326 325 324 323 322

GFSSE_850_thetae_111.txt.gz
Theta_e
342 343 344 344 344 340 340 340 341 340 340 340 340 340 339 338 336 334 328 321 327 332 332 336 334 331 318 326 335 337 334 325 320 328 333 332 328 336 338 338 337 337 338
345 343 344 344 341 338 340 341 341 340 340 340 339 339 339 338 337 335 331 323 328 334 334 338 338 337 327 328 335 337 335 325 320 319 318 323 329 336 337 336 334 335 335
342 343 344 346 341 337 338 339 340 339 339 339 339 338 338 337 336 336 333 326 326 337 336 339 338 336 331 323 325 333 329 325 317 320 323 320 319 324 322 322 322 325 331
342 342 344 345 344 337 336 338 338 337 337 337 336 335 335 336 335 335 332 329 324 339 340 337 337 337 333 323 318 323 322 320 322 329 328 323 322 316 316 315 315 318 318
342 343 344 344 345 340 337 334 334 335 334 334 333 330 332 334 335 336 332 330 324 336 338 335 335 334 333 325 319 318 318 317 321 329 330 329 325 316 315 315 315 315 315
341 341 342 344 345 345 339 338 336 335 334 334 332 330 330 330 334 336 331 330 327 331 336 337 335 323 320 318 320 317 317 316 318 324 328 329 324 324 316 315 316 316 316
337 342 342 343 344 343 342 338 337 337 336 334 332 331 331 331 331 335 333 334 334 324 331 336 336 333 317 317 318 317 316 316 318 323 326 324 322 323 316 316 316 316 316
324 339 340 342 341 341 341 339 340 339 338 335 333 333 332 333 333 332 332 332 333 331 328 334 335 335 320 316 317 316 317 318 318 323 328 327 322 324 317 316 316 316 317
315 321 336 341 340 340 340 339 338 338 338 336 334 333 333 333 333 332 332 332 333 333 332 334 334 334 333 317 316 316 318 319 318 323 326 326 324 324 317 317 317 317 318
312 313 316 329 340 340 340 340 338 336 336 336 336 335 334 333 333 332 332 330 330 333 334 333 333 332 333 332 317 316 318 319 318 320 327 327 328 327 324 317 317 317 317
308 310 312 314 323 335 339 338 339 339 337 335 334 332 332 332 331 331 331 329 328 329 332 333 333 333 333 332 330 319 316 319 319 319 326 326 327 324 321 317 317 318 317
308 308 308 309 311 317 328 337 337 337 338 335 332 331 330 331 332 333 329 331 335 332 330 332 334 333 333 333 331 328 321 317 319 318 321 324 325 325 323 317 317 318 318
308 308 308 307 307 308 312 322 335 337 336 337 336 333 332 334 335 333 332 336 337 337 335 332 330 333 333 333 332 331 330 318 319 320 320 325 328 325 323 318 316 317 318
310 310 310 309 309 308 307 309 318 331 335 335 335 336 337 336 335 336 337 338 338 337 337 334 333 332 332 332 332 332 332 322 323 324 320 325 330 328 326 321 317 318 318
310 311 311 310 310 310 309 308 309 315 327 333 334 335 335 335 333 334 335 337 337 337 337 336 335 334 334 333 334 334 333 328 325 330 327 327 330 330 328 327 319 318 323
317 317 316 314 312 311 311 310 308 310 314 329 333 334 334 333 330 332 331 330 335 335 336 336 335 334 334 334 334 333 333 333 328 329 330 328 330 330 330 328 325 319 320
317 316 316 316 315 314 312 311 310 309 310 315 330 333 334 333 332 331 331 329 332 332 335 334 332 332 333 333 332 333 333 333 334 330 329 330 329 328 328 328 326 323 320
314 313 313 313 314 315 315 313 312 310 309 311 317 331 331 332 332 330 331 330 328 327 328 330 329 328 328 333 332 331 332 332 332 333 330 329 329 328 327 326 324 323 321
313 312 313 312 312 313 315 316 314 312 310 311 317 327 331 330 331 331 331 331 331 330 330 329 328 326 325 325 325 326 328 329 330 331 331 332 330 328 328 326 325 323 321
312 312 312 312 312 311 311 315 315 313 310 312 316 322 328 329 329 329 330 330 327 329 328 327 326 326 325 323 324 324 323 322 325 328 330 330 331 331 329 326 325 324 321
311 312 313 313 312 312 311 315 315 312 311 310 316 322 325 326 328 328 329 329 327 326 327 327 327 327 326 326 328 325 322 322 325 326 328 329 329 330 330 328 327 327 321
309 311 312 312 312 314 313 312 314 315 311 316 317 318 321 326 327 327 326 326 326 326 326 326 325 325 325 325 325 326 326 326 326 324 325 327 328 327 327 327 329 326 321
307 309 310 312 312 314 313 313 312 314 313 317 318 318 321 323 325 326 325 324 324 322 322 321 321 322 323 323 324 326 325 325 325 326 326 326 326 326 327 328 328 327 326
307 308 309 311 312 314 314 314 314 314 315 317 316 318 321 321 322 322 321 320 321 321 322 322 321 321 321 320 322 324 324 325 325 325 325 326 326 326 326 326 326 326 327
307 308 309 310 311 313 313 314 315 315 316 317 318 319 318 319 318 319 319 320 319 319 319 319 318 319 319 320 321 322 322 324 325 325 325 325 326 326 325 326 327 327 327
307 306 307 307 308 309 312 311 312 313 315 316 315 315 315 316 316 317 317 318 317 317 317 316 316 316 316 317 318 321 323 323 323 324 325 326 326 325 325 325 326 326 327

GFSSE_850_thetae_114.txt.gz
Theta_e
340 342 343 344 343 342 341 340 341 341 340 341 339 339 338 337 334 331 323 322 331 330 333 332 330 318 320 330 334 333 323 321 325 331 332 327 331 337 338 337 337 339 338
340 343 342 344 342 340 339 340 340 340 339 340 339 339 338 337 336 333 329 324 332 333 337 338 335 325 322 332 337 337 329 319 318 318 320 322 333 337 337 335 335 336 335
339 341 342 345 342 339 339 340 340 339 339 339 338 338 337 336 335 335 332 326 328 335 337 340 337 335 327 321 332 335 325 319 316 317 319 317 320 323 323 321 322 322 327
339 340 341 344 345 339 337 338 339 338 338 337 336 336 335 336 335 334 332 329 325 338 339 337 337 336 332 324 319 324 322 319 317 318 319 317 316 315 315 315 315 316 317
340 340 340 342 345 342 337 335 337 336 335 335 334 334 335 334 337 336 333 330 325 335 339 336 336 333 331 324 319 320 319 318 321 321 320 320 317 315 314 314 314 315 315
339 340 340 341 342 344 341 337 335 333 333 333 333 332 331 331 331 336 333 330 328 329 338 335 335 329 318 318 319 317 317 317 321 321 320 320 320 319 315 315 315 315 316
334 340 340 340 341 343 343 341 337 337 336 335 334 332 330 330 330 333 335 333 332 326 330 336 336 335 320 317 318 318 316 316 318 321 322 322 321 320 316 316 315 315 315
316 334 338 340 340 340 340 340 338 338 338 337 335 333 332 332 333 332 332 333 333 334 327 331 336 336 335 318 317 317 316 316 317 319 319 321 325 323 321 316 316 315 316
313 314 326 338 340 339 340 339 338 338 339 339 336 335 334 333 333 333 333 332 332 332 333 329 333 335 334 330 316 317 316 318 318 319 319 321 323 321 320 316 316 316 317
308 311 313 316 332 337 338 339 339 338 336 336 336 335 334 333 333 333 333 332 331 331 333 333 333 333 332 333 330 316 316 318 319 318 320 320 322 325 323 321 316 316 317
308 308 308 310 311 320 333 337 337 338 338 338 335 335 334 332 332 332 332 332 331 329 329 332 333 333 333 333 333 330 317 317 320 319 320 321 324 325 323 320 316 316 317
308 308 308 307 307 308 311 321 336 337 336 337 338 334 333 331 330 331 331 331 329 331 329 329 332 333 333 333 333 332 328 321 317 320 320 322 323 324 323 322 318 316 316
310 310 309 309 309 308 308 308 313 330 337 335 335 336 333 331 330 332 334 334 330 336 336 335 331 332 333 333 333 333 331 330 328 318 320 322 322 325 326 322 321 317 316
310 310 310 310 309 309 309 308 308 310 321 335 334 334 335 336 336 335 335 334 333 335 336 336 336 334 333 333 333 333 332 331 332 323 318 321 322 324 329 328 324 321 317
311 313 313 313 311 309 308 309 309 308 308 314 331 333 333 333 335 336 335 335 336 335 336 336 335 334 332 332 333 333 333 333 333 329 322 328 324 323 327 330 329 327 320
316 315 314 313 312 312 311 310 309 309 309 308 311 329 331 333 334 333 334 333 333 334 334 334 334 334 333 333 333 333 334 334 333 333 329 327 330 326 326 329 329 328 327
316 315 312 311 311 311 311 311 310 310 309 310 309 309 328 331 333 333 332 331 332 329 332 333 334 334 333 330 330 329 331 332 333 333 332 332 329 330 329 328 328 329 327
314 313 312 312 312 312 311 311 312 312 311 309 309 309 310 327 332 331 332 332 331 329 331 332 333 332 329 328 327 324 327 329 328 329 330 331 332 330 330 329 328 327 327
310 311 311 311 311 312 311 310 309 312 314 312 310 309 310 315 328 330 330 332 330 330 329 328 328 328 328 327 325 325 325 325 325 326 327 328 329 331 330 329 330 328 327
309 310 311 312 312 311 312 312 311 310 315 313 312 309 311 317 323 327 329 330 330 330 329 329 329 327 327 326 326 325 322 320 319 318 318 319 323 328 330 331 330 328 327
309 309 311 311 312 312 314 312 312 311 313 313 312 310 313 317 321 324 325 327 328 329 327 327 327 327 326 326 326 322 321 320 318 318 316 316 318 322 326 329 330 330 329
308 307 310 311 311 312 314 313 312 312 313 315 314 317 318 318 319 321 324 325 326 327 327 326 325 325 325 323 323 323 323 321 319 319 321 321 320 320 323 326 328 329 330
307 307 308 310 311 311 312 314 314 314 313 314 313 315 316 316 320 321 321 322 322 323 323 323 322 320 320 319 320 322 322 322 322 322 322 324 325 324 325 325 326 327 328
308 308 308 309 310 311 311 311 313 314 313 313 313 314 316 316 317 317 319 319 319 319 318 320 320 320 319 319 319 318 322 321 321 321 322 322 323 323 324 325 325 326 326
308 307 307 307 307 309 311 311 311 311 312 313 314 315 317 316 315 314 317 317 317 317 318 318 318 316 316 316 315 316 317 319 321 321 322 322 322 323 322 323 324 324 324
307 307 306 306 307 308 308 309 310 310 310 309 309 311 313 313 315 315 316 315 314 313 312 311 311 313 314 314 314 314 313 314 314 311 313 318 321 321 322 323 323 323 324

GFSSE_850_thetae_117.txt.gz
Theta_e
340 342 341 343 343 342 341 340 340 340 339 340 339 338 337 336 333 329 323 323 330 329 332 329 321 318 323 332 334 321 320 320 327 329 330 325 335 336 337 336 337 338 336
338 342 340 343 344 341 339 339 340 340 339 339 338 337 337 337 335 333 327 324 331 332 335 333 330 319 329 334 337 330 323 318 317 319 320 321 335 337 335 335 337 337 335
337 338 341 341 343 339 338 339 339 339 339 339 338 337 336 336 334 334 332 326 329 333 337 340 338 328 323 328 336 334 324 318 316 316 316 317 322 327 327 324 323 321 320
337 339 339 341 344 341 337 337 338 338 338 338 337 336 335 336 334 333 333 330 325 335 335 338 337 336 331 322 327 332 323 318 317 318 318 316 315 315 315 315 315 315 316
338 339 339 340 342 341 338 336 337 338 336 336 335 334 334 334 334 336 335 330 327 327 336 339 337 335 334 330 321 325 320 317 317 318 320 319 317 314 314 314 314 314 314
339 339 339 340 340 341 342 338 336 333 334 334 334 334 332 331 330 330 335 330 329 325 336 337 336 334 324 322 320 319 320 317 317 316 317 320 320 320 317 315 315 315 315
334 338 339 339 340 341 342 342 339 337 336 335 334 334 333 331 331 331 333 334 331 328 327 336 336 335 334 319 318 319 318 317 317 317 317 317 318 319 320 316 315 315 315
314 327 335 336 338 339 339 340 339 338 337 337 336 335 334 331 331 332 333 332 332 333 333 326 332 336 335 331 317 318 317 316 316 317 318 318 319 319 320 317 315 315 315
309 311 316 332 338 338 337 339 339 338 338 338 338 338 335 333 333 332 332 332 332 332 332 333 328 333 335 334 328 316 317 316 316 318 319 319 320 320 320 319 316 316 316
308 308 308 312 318 333 335 337 338 338 338 337 336 337 336 335 333 332 332 332 333 332 330 332 333 331 334 334 333 325 317 316 318 318 318 319 321 322 323 321 319 316 316
307 308 307 307 308 311 320 331 335 336 337 338 338 337 335 335 334 333 333 332 332 332 331 329 330 332 333 334 332 333 325 317 317 319 319 319 321 323 328 327 320 318 316
309 309 308 308 308 307 308 309 316 330 335 335 336 337 337 335 334 332 331 331 331 331 330 328 329 330 333 333 333 333 333 329 319 317 320 320 320 322 324 330 322 321 317
310 310 310 309 309 308 308 307 308 310 318 335 334 334 334 335 335 332 330 330 332 333 331 332 332 329 330 333 333 333 333 332 330 329 321 320 320 320 322 327 329 323 322
310 311 311 312 311 310 309 308 308 307 308 311 324 332 333 333 334 335 335 335 334 334 332 334 335 335 335 333 332 333 333 333 332 331 332 322 320 321 321 323 328 328 326
313 314 313 312 311 310 310 310 309 309 308 308 308 314 328 329 332 332 333 335 336 335 334 334 334 335 334 333 332 332 331 332 332 332 333 330 319 320 321 322 325 329 329
314 314 313 311 311 310 310 310 310 310 310 309 308 307 308 323 328 330 331 333 334 334 334 333 334 334 334 334 333 333 333 333 333 333 333 332 326 327 329 326 324 327 329
314 313 311 311 311 311 311 311 310 310 311 311 310 309 308 308 321 326 329 332 332 333 332 331 331 334 333 333 333 332 332 331 330 330 331 332 332 331 329 329 329 328 328
310 310 309 310 311 310 310 311 310 309 309 310 312 313 310 309 308 317 324 331 331 331 331 330 329 331 332 332 332 328 327 326 325 327 328 328 327 327 327 328 331 329 329
310 310 310 310 311 311 311 311 312 311 311 310 312 313 313 309 309 312 318 326 330 330 330 329 329 331 330 330 329 328 327 324 324 324 324 323 323 323 323 323 327 330 329
309 309 309 311 311 311 312 313 312 311 310 313 313 312 312 310 310 313 318 322 325 328 328 329 329 329 328 328 327 327 325 324 323 321 319 317 316 315 315 315 317 323 328
308 309 309 310 310 311 313 313 314 313 312 314 315 314 316 317 316 315 316 321 323 325 326 328 327 327 327 327 327 326 325 323 319 317 316 315 315 316 317 316 316 317 321
308 308 308 310 310 311 311 311 313 313 315 315 314 313 315 316 315 317 318 319 323 324 324 323 325 325 325 326 324 322 319 318 316 319 320 319 318 319 320 319 319 320 320
308 308 308 310 310 310 310 311 311 313 312 312 313 314 314 315 315 316 317 319 319 320 320 320 318 318 319 319 319 319 320 321 319 318 318 318 320 319 319 320 321 322 323
307 307 308 309 310 310 310 311 311 312 312 313 313 314 313 315 315 315 315 316 317 318 316 315 318 316 316 317 317 316 316 317 316 317 318 318 317 321 320 321 321 321 322
307 307 307 307 307 308 308 309 310 311 311 311 311 312 313 312 313 312 313 312 313 314 314 317 317 317 317 316 316 316 316 315 314 312 313 315 316 318 320 321 322 322 321
307 307 305 304 304 304 304 305 304 305 306 307 308 307 306 305 303 303 302 301 299 300 301 303 305 304 305 305 308 309 310 309 309 309 309 308 311 313 314 316 318 318 320